<?xml version="1.0" encoding="UTF-8" standalone="no" ?>
<gpx xmlns="http://www.topografix.com/GPX/1/1" xmlns:xsi="http://www.w3.org/2001/XMLSchema-instance" xsi:schemaLocation="http://www.topografix.com/GPX/1/1 http://www.topografix.com/GPX/1/1/gpx.xsd" version="1.1" creator="VisuGPX - https://www.visugpx.com">
  <metadata>
    <name>Selonnet Cyclisme</name>
    <desc><![CDATA[tour de tete grosse vincent, michel, christian]]></desc>
  </metadata>
  <trk>
    <name><![CDATA[Selonnet Cyclisme]]></name>
    <trkseg>
      <trkpt lat="44.37153" lon="6.31314">
        <ele>1060.3632112874</ele>
        <time>2021-08-07T12:38:47.000Z</time>
      </trkpt>
      <trkpt lat="44.37149" lon="6.31248">
        <ele>1060.8624848055</ele>
        <time>2021-08-07T12:38:47.016Z</time>
      </trkpt>
      <trkpt lat="44.37146" lon="6.31233">
        <ele>1061.5625678007</ele>
        <time>2021-08-07T12:38:47.036Z</time>
      </trkpt>
      <trkpt lat="44.37134" lon="6.31202">
        <ele>1062.4687022918</ele>
        <time>2021-08-07T12:38:47.064Z</time>
      </trkpt>
      <trkpt lat="44.3713" lon="6.31179">
        <ele>1063.5169806965</ele>
        <time>2021-08-07T12:38:47.098Z</time>
      </trkpt>
      <trkpt lat="44.37133" lon="6.3115">
        <ele>1064.7409333508</ele>
        <time>2021-08-07T12:38:47.139Z</time>
      </trkpt>
      <trkpt lat="44.37127" lon="6.31115">
        <ele>1066.266267121</ele>
        <time>2021-08-07T12:38:47.188Z</time>
      </trkpt>
      <trkpt lat="44.3711" lon="6.31022">
        <ele>1068.1520152799</ele>
        <time>2021-08-07T12:38:47.260Z</time>
      </trkpt>
      <trkpt lat="44.37101" lon="6.30993">
        <ele>1069.752826857</ele>
        <time>2021-08-07T12:38:47.340Z</time>
      </trkpt>
      <trkpt lat="44.37091" lon="6.30984">
        <ele>1071.4051188939</ele>
        <time>2021-08-07T12:38:47.424Z</time>
      </trkpt>
      <trkpt lat="44.37052" lon="6.30976">
        <ele>1073.1881170015</ele>
        <time>2021-08-07T12:38:47.521Z</time>
      </trkpt>
      <trkpt lat="44.37015" lon="6.30946">
        <ele>1075.2121139417</ele>
        <time>2021-08-07T12:38:47.632Z</time>
      </trkpt>
      <trkpt lat="44.36999" lon="6.30935">
        <ele>1077.2239187759</ele>
        <time>2021-08-07T12:38:47.749Z</time>
      </trkpt>
      <trkpt lat="44.36983" lon="6.30921">
        <ele>1079.1906102326</ele>
        <time>2021-08-07T12:38:47.873Z</time>
      </trkpt>
      <trkpt lat="44.3697" lon="6.30903">
        <ele>1081.1407648744</ele>
        <time>2021-08-07T12:38:48.003Z</time>
      </trkpt>
      <trkpt lat="44.3694" lon="6.30852">
        <ele>1083.2052938059</ele>
        <time>2021-08-07T12:38:48.149Z</time>
      </trkpt>
      <trkpt lat="44.36866" lon="6.3072">
        <ele>1085.5825039949</ele>
        <time>2021-08-07T12:38:48.335Z</time>
      </trkpt>
      <trkpt lat="44.36843" lon="6.30674">
        <ele>1087.8299606191</ele>
        <time>2021-08-07T12:38:48.534Z</time>
      </trkpt>
      <trkpt lat="44.36831" lon="6.30655">
        <ele>1090.0875628721</ele>
        <time>2021-08-07T12:38:48.739Z</time>
      </trkpt>
      <trkpt lat="44.36808" lon="6.30634">
        <ele>1092.6043819428</ele>
        <time>2021-08-07T12:38:48.953Z</time>
      </trkpt>
      <trkpt lat="44.3674" lon="6.30593">
        <ele>1095.4085497022</ele>
        <time>2021-08-07T12:38:49.192Z</time>
      </trkpt>
      <trkpt lat="44.3673" lon="6.3058">
        <ele>1098.0040901973</ele>
        <time>2021-08-07T12:38:49.435Z</time>
      </trkpt>
      <trkpt lat="44.36765" lon="6.30525">
        <ele>1100.5048064769</ele>
        <time>2021-08-07T12:38:49.696Z</time>
      </trkpt>
      <trkpt lat="44.36776" lon="6.30513">
        <ele>1102.9672921297</ele>
        <time>2021-08-07T12:38:49.962Z</time>
      </trkpt>
      <trkpt lat="44.36782" lon="6.305">
        <ele>1105.3817638519</ele>
        <time>2021-08-07T12:38:50.231Z</time>
      </trkpt>
      <trkpt lat="44.36796" lon="6.30448">
        <ele>1108.1630898821</ele>
        <time>2021-08-07T12:38:50.513Z</time>
      </trkpt>
      <trkpt lat="44.36809" lon="6.30413">
        <ele>1110.9659929514</ele>
        <time>2021-08-07T12:38:50.805Z</time>
      </trkpt>
      <trkpt lat="44.3681" lon="6.30386">
        <ele>1113.6338432992</ele>
        <time>2021-08-07T12:38:51.103Z</time>
      </trkpt>
      <trkpt lat="44.36802" lon="6.30343">
        <ele>1116.3104257371</ele>
        <time>2021-08-07T12:38:51.412Z</time>
      </trkpt>
      <trkpt lat="44.36797" lon="6.30265">
        <ele>1119.2342682882</ele>
        <time>2021-08-07T12:38:51.740Z</time>
      </trkpt>
      <trkpt lat="44.36792" lon="6.30222">
        <ele>1122.0945811217</ele>
        <time>2021-08-07T12:38:52.078Z</time>
      </trkpt>
      <trkpt lat="44.36793" lon="6.30206">
        <ele>1124.7254098629</ele>
        <time>2021-08-07T12:38:52.420Z</time>
      </trkpt>
      <trkpt lat="44.36799" lon="6.30193">
        <ele>1127.3168410296</ele>
        <time>2021-08-07T12:38:52.766Z</time>
      </trkpt>
      <trkpt lat="44.36805" lon="6.30172">
        <ele>1130.0068609013</ele>
        <time>2021-08-07T12:38:53.117Z</time>
      </trkpt>
      <trkpt lat="44.36805" lon="6.30147">
        <ele>1132.6000335391</ele>
        <time>2021-08-07T12:38:53.474Z</time>
      </trkpt>
      <trkpt lat="44.36791" lon="6.301">
        <ele>1135.0302977052</ele>
        <time>2021-08-07T12:38:53.843Z</time>
      </trkpt>
      <trkpt lat="44.36782" lon="6.30052">
        <ele>1137.3531101088</ele>
        <time>2021-08-07T12:38:54.224Z</time>
      </trkpt>
      <trkpt lat="44.36765" lon="6.29982">
        <ele>1139.9418609012</ele>
        <time>2021-08-07T12:38:54.623Z</time>
      </trkpt>
      <trkpt lat="44.36763" lon="6.29962">
        <ele>1142.3906905288</ele>
        <time>2021-08-07T12:38:55.027Z</time>
      </trkpt>
      <trkpt lat="44.36767" lon="6.29947">
        <ele>1144.7754934031</ele>
        <time>2021-08-07T12:38:55.435Z</time>
      </trkpt>
      <trkpt lat="44.3677" lon="6.29942">
        <ele>1147.0536851711</ele>
        <time>2021-08-07T12:38:55.844Z</time>
      </trkpt>
      <trkpt lat="44.36785" lon="6.29929">
        <ele>1149.4223355195</ele>
        <time>2021-08-07T12:38:56.259Z</time>
      </trkpt>
      <trkpt lat="44.36793" lon="6.29916">
        <ele>1151.7654077983</ele>
        <time>2021-08-07T12:38:56.678Z</time>
      </trkpt>
      <trkpt lat="44.36799" lon="6.29904">
        <ele>1154.1554334279</ele>
        <time>2021-08-07T12:38:57.101Z</time>
      </trkpt>
      <trkpt lat="44.36807" lon="6.29876">
        <ele>1156.8656235723</ele>
        <time>2021-08-07T12:38:57.531Z</time>
      </trkpt>
      <trkpt lat="44.36809" lon="6.2985">
        <ele>1159.721473897</ele>
        <time>2021-08-07T12:38:57.967Z</time>
      </trkpt>
      <trkpt lat="44.36817" lon="6.29809">
        <ele>1162.648278137</ele>
        <time>2021-08-07T12:38:58.413Z</time>
      </trkpt>
      <trkpt lat="44.36822" lon="6.29797">
        <ele>1165.2828157055</ele>
        <time>2021-08-07T12:38:58.862Z</time>
      </trkpt>
      <trkpt lat="44.3683" lon="6.29784">
        <ele>1167.8442722153</ele>
        <time>2021-08-07T12:38:59.316Z</time>
      </trkpt>
      <trkpt lat="44.3684" lon="6.29773">
        <ele>1170.5754949132</ele>
        <time>2021-08-07T12:38:59.774Z</time>
      </trkpt>
      <trkpt lat="44.36845" lon="6.29762">
        <ele>1173.2977060981</ele>
        <time>2021-08-07T12:39:00.235Z</time>
      </trkpt>
      <trkpt lat="44.36846" lon="6.29743">
        <ele>1175.9695909167</ele>
        <time>2021-08-07T12:39:00.701Z</time>
      </trkpt>
      <trkpt lat="44.36844" lon="6.29725">
        <ele>1178.6869967369</ele>
        <time>2021-08-07T12:39:01.171Z</time>
      </trkpt>
      <trkpt lat="44.36851" lon="6.29686">
        <ele>1181.7055471935</ele>
        <time>2021-08-07T12:39:01.651Z</time>
      </trkpt>
      <trkpt lat="44.36852" lon="6.2967">
        <ele>1184.4611324269</ele>
        <time>2021-08-07T12:39:02.134Z</time>
      </trkpt>
      <trkpt lat="44.36846" lon="6.29661">
        <ele>1187.1139588379</ele>
        <time>2021-08-07T12:39:02.620Z</time>
      </trkpt>
      <trkpt lat="44.36843" lon="6.2966">
        <ele>1189.7497346772</ele>
        <time>2021-08-07T12:39:03.107Z</time>
      </trkpt>
      <trkpt lat="44.36838" lon="6.29662">
        <ele>1192.3465691183</ele>
        <time>2021-08-07T12:39:03.596Z</time>
      </trkpt>
      <trkpt lat="44.3683" lon="6.29659">
        <ele>1194.9638910826</ele>
        <time>2021-08-07T12:39:04.088Z</time>
      </trkpt>
      <trkpt lat="44.36828" lon="6.29652">
        <ele>1197.7368826539</ele>
        <time>2021-08-07T12:39:04.582Z</time>
      </trkpt>
      <trkpt lat="44.36829" lon="6.29642">
        <ele>1200.5885526616</ele>
        <time>2021-08-07T12:39:05.078Z</time>
      </trkpt>
      <trkpt lat="44.36834" lon="6.29626">
        <ele>1203.6426916103</ele>
        <time>2021-08-07T12:39:05.578Z</time>
      </trkpt>
      <trkpt lat="44.36838" lon="6.29591">
        <ele>1207.02090046</ele>
        <time>2021-08-07T12:39:06.087Z</time>
      </trkpt>
      <trkpt lat="44.36836" lon="6.29561">
        <ele>1210.4417902868</ele>
        <time>2021-08-07T12:39:06.603Z</time>
      </trkpt>
      <trkpt lat="44.36837" lon="6.29536">
        <ele>1213.9317627846</ele>
        <time>2021-08-07T12:39:07.125Z</time>
      </trkpt>
      <trkpt lat="44.3684" lon="6.29515">
        <ele>1217.431707898</ele>
        <time>2021-08-07T12:39:07.652Z</time>
      </trkpt>
      <trkpt lat="44.36838" lon="6.2948">
        <ele>1221.0298867399</ele>
        <time>2021-08-07T12:39:08.187Z</time>
      </trkpt>
      <trkpt lat="44.3684" lon="6.29473">
        <ele>1224.3484127098</ele>
        <time>2021-08-07T12:39:08.724Z</time>
      </trkpt>
      <trkpt lat="44.36837" lon="6.29451">
        <ele>1227.702208965</ele>
        <time>2021-08-07T12:39:09.266Z</time>
      </trkpt>
      <trkpt lat="44.36837" lon="6.29404">
        <ele>1231.1097762765</ele>
        <time>2021-08-07T12:39:09.820Z</time>
      </trkpt>
      <trkpt lat="44.36829" lon="6.29348">
        <ele>1234.7722689474</ele>
        <time>2021-08-07T12:39:10.387Z</time>
      </trkpt>
      <trkpt lat="44.36826" lon="6.2934">
        <ele>1238.1406651072</ele>
        <time>2021-08-07T12:39:10.956Z</time>
      </trkpt>
      <trkpt lat="44.3682" lon="6.29297">
        <ele>1241.5967075339</ele>
        <time>2021-08-07T12:39:11.536Z</time>
      </trkpt>
      <trkpt lat="44.36805" lon="6.29242">
        <ele>1244.9699454553</ele>
        <time>2021-08-07T12:39:12.130Z</time>
      </trkpt>
      <trkpt lat="44.36802" lon="6.2919">
        <ele>1248.3818422426</ele>
        <time>2021-08-07T12:39:12.737Z</time>
      </trkpt>
      <trkpt lat="44.36802" lon="6.29171">
        <ele>1251.5793818738</ele>
        <time>2021-08-07T12:39:13.348Z</time>
      </trkpt>
      <trkpt lat="44.36798" lon="6.29151">
        <ele>1254.8217919829</ele>
        <time>2021-08-07T12:39:13.964Z</time>
      </trkpt>
      <trkpt lat="44.36803" lon="6.29106">
        <ele>1257.9927680948</ele>
        <time>2021-08-07T12:39:14.591Z</time>
      </trkpt>
      <trkpt lat="44.36802" lon="6.29093">
        <ele>1261.059845705</ele>
        <time>2021-08-07T12:39:15.221Z</time>
      </trkpt>
      <trkpt lat="44.36794" lon="6.29071">
        <ele>1264.2370377449</ele>
        <time>2021-08-07T12:39:15.857Z</time>
      </trkpt>
      <trkpt lat="44.36788" lon="6.29064">
        <ele>1267.2512323473</ele>
        <time>2021-08-07T12:39:16.496Z</time>
      </trkpt>
      <trkpt lat="44.36779" lon="6.29063">
        <ele>1270.2522029825</ele>
        <time>2021-08-07T12:39:17.138Z</time>
      </trkpt>
      <trkpt lat="44.36777" lon="6.29055">
        <ele>1273.1144813059</ele>
        <time>2021-08-07T12:39:17.782Z</time>
      </trkpt>
      <trkpt lat="44.36769" lon="6.29047">
        <ele>1275.972582188</ele>
        <time>2021-08-07T12:39:18.429Z</time>
      </trkpt>
      <trkpt lat="44.36764" lon="6.29038">
        <ele>1278.7213338609</ele>
        <time>2021-08-07T12:39:19.079Z</time>
      </trkpt>
      <trkpt lat="44.36757" lon="6.2903">
        <ele>1281.4535209043</ele>
        <time>2021-08-07T12:39:19.732Z</time>
      </trkpt>
      <trkpt lat="44.3675" lon="6.29027">
        <ele>1284.1353657491</ele>
        <time>2021-08-07T12:39:20.387Z</time>
      </trkpt>
      <trkpt lat="44.36741" lon="6.29026">
        <ele>1286.8390516768</ele>
        <time>2021-08-07T12:39:21.045Z</time>
      </trkpt>
      <trkpt lat="44.3673" lon="6.29023">
        <ele>1289.531674682</ele>
        <time>2021-08-07T12:39:21.707Z</time>
      </trkpt>
      <trkpt lat="44.36692" lon="6.29017">
        <ele>1292.8312068733</ele>
        <time>2021-08-07T12:39:22.382Z</time>
      </trkpt>
      <trkpt lat="44.36674" lon="6.29008">
        <ele>1295.6746002552</ele>
        <time>2021-08-07T12:39:23.063Z</time>
      </trkpt>
      <trkpt lat="44.36668" lon="6.28999">
        <ele>1298.230915743</ele>
        <time>2021-08-07T12:39:23.747Z</time>
      </trkpt>
      <trkpt lat="44.36665" lon="6.28981">
        <ele>1300.625116624</ele>
        <time>2021-08-07T12:39:24.435Z</time>
      </trkpt>
      <trkpt lat="44.36667" lon="6.28966">
        <ele>1302.899587255</ele>
        <time>2021-08-07T12:39:25.127Z</time>
      </trkpt>
      <trkpt lat="44.3668" lon="6.28916">
        <ele>1305.4767353551</ele>
        <time>2021-08-07T12:39:25.832Z</time>
      </trkpt>
      <trkpt lat="44.36695" lon="6.28891">
        <ele>1307.6565277695</ele>
        <time>2021-08-07T12:39:26.544Z</time>
      </trkpt>
      <trkpt lat="44.36695" lon="6.28886">
        <ele>1309.8508120083</ele>
        <time>2021-08-07T12:39:27.258Z</time>
      </trkpt>
      <trkpt lat="44.36694" lon="6.28882">
        <ele>1312.0485489656</ele>
        <time>2021-08-07T12:39:27.973Z</time>
      </trkpt>
      <trkpt lat="44.36689" lon="6.28882">
        <ele>1314.2588393793</ele>
        <time>2021-08-07T12:39:28.689Z</time>
      </trkpt>
      <trkpt lat="44.36675" lon="6.28892">
        <ele>1316.5259471233</ele>
        <time>2021-08-07T12:39:29.410Z</time>
      </trkpt>
      <trkpt lat="44.36663" lon="6.28893">
        <ele>1318.8031198902</ele>
        <time>2021-08-07T12:39:30.135Z</time>
      </trkpt>
      <trkpt lat="44.36659" lon="6.28896">
        <ele>1320.841486197</ele>
        <time>2021-08-07T12:39:30.862Z</time>
      </trkpt>
      <trkpt lat="44.36653" lon="6.28907">
        <ele>1322.7927987168</ele>
        <time>2021-08-07T12:39:31.592Z</time>
      </trkpt>
      <trkpt lat="44.36648" lon="6.28912">
        <ele>1324.7453018215</ele>
        <time>2021-08-07T12:39:32.324Z</time>
      </trkpt>
      <trkpt lat="44.36639" lon="6.28919">
        <ele>1326.7129198028</ele>
        <time>2021-08-07T12:39:33.060Z</time>
      </trkpt>
      <trkpt lat="44.36622" lon="6.28923">
        <ele>1328.8906820365</ele>
        <time>2021-08-07T12:39:33.801Z</time>
      </trkpt>
      <trkpt lat="44.36609" lon="6.2893">
        <ele>1331.0444322678</ele>
        <time>2021-08-07T12:39:34.547Z</time>
      </trkpt>
      <trkpt lat="44.36604" lon="6.28936">
        <ele>1333.042913488</ele>
        <time>2021-08-07T12:39:35.295Z</time>
      </trkpt>
      <trkpt lat="44.36601" lon="6.28964">
        <ele>1334.8467103588</ele>
        <time>2021-08-07T12:39:36.050Z</time>
      </trkpt>
      <trkpt lat="44.36587" lon="6.28998">
        <ele>1337.3495716645</ele>
        <time>2021-08-07T12:39:36.815Z</time>
      </trkpt>
      <trkpt lat="44.36584" lon="6.29002">
        <ele>1339.3530197042</ele>
        <time>2021-08-07T12:39:37.581Z</time>
      </trkpt>
      <trkpt lat="44.36579" lon="6.29">
        <ele>1341.3444825384</ele>
        <time>2021-08-07T12:39:38.349Z</time>
      </trkpt>
      <trkpt lat="44.36578" lon="6.28997">
        <ele>1343.2380320299</ele>
        <time>2021-08-07T12:39:39.117Z</time>
      </trkpt>
      <trkpt lat="44.36578" lon="6.28962">
        <ele>1344.9055412782</ele>
        <time>2021-08-07T12:39:39.894Z</time>
      </trkpt>
      <trkpt lat="44.36575" lon="6.28944">
        <ele>1346.9447250507</ele>
        <time>2021-08-07T12:39:40.675Z</time>
      </trkpt>
      <trkpt lat="44.3657" lon="6.28931">
        <ele>1349.0136999176</ele>
        <time>2021-08-07T12:39:41.460Z</time>
      </trkpt>
      <trkpt lat="44.36569" lon="6.28916">
        <ele>1350.9822954091</ele>
        <time>2021-08-07T12:39:42.248Z</time>
      </trkpt>
      <trkpt lat="44.36571" lon="6.28903">
        <ele>1352.9062341862</ele>
        <time>2021-08-07T12:39:43.039Z</time>
      </trkpt>
      <trkpt lat="44.36577" lon="6.28891">
        <ele>1354.7439209289</ele>
        <time>2021-08-07T12:39:43.834Z</time>
      </trkpt>
      <trkpt lat="44.36584" lon="6.28858">
        <ele>1357.0774331269</ele>
        <time>2021-08-07T12:39:44.637Z</time>
      </trkpt>
      <trkpt lat="44.3659" lon="6.28845">
        <ele>1359.1723682413</ele>
        <time>2021-08-07T12:39:45.444Z</time>
      </trkpt>
      <trkpt lat="44.36598" lon="6.28837">
        <ele>1361.2069598804</ele>
        <time>2021-08-07T12:39:46.254Z</time>
      </trkpt>
      <trkpt lat="44.36625" lon="6.28817">
        <ele>1362.9784207955</ele>
        <time>2021-08-07T12:39:47.074Z</time>
      </trkpt>
      <trkpt lat="44.36632" lon="6.28799">
        <ele>1365.0619896931</ele>
        <time>2021-08-07T12:39:47.899Z</time>
      </trkpt>
      <trkpt lat="44.36635" lon="6.28779">
        <ele>1367.3488874017</ele>
        <time>2021-08-07T12:39:48.729Z</time>
      </trkpt>
      <trkpt lat="44.36627" lon="6.28761">
        <ele>1369.9225852962</ele>
        <time>2021-08-07T12:39:49.564Z</time>
      </trkpt>
      <trkpt lat="44.36623" lon="6.28731">
        <ele>1372.4669970046</ele>
        <time>2021-08-07T12:39:50.406Z</time>
      </trkpt>
      <trkpt lat="44.36616" lon="6.28716">
        <ele>1375.0963991552</ele>
        <time>2021-08-07T12:39:51.253Z</time>
      </trkpt>
      <trkpt lat="44.36613" lon="6.28695">
        <ele>1377.6602640001</ele>
        <time>2021-08-07T12:39:52.105Z</time>
      </trkpt>
      <trkpt lat="44.36592" lon="6.28653">
        <ele>1380.5482745666</ele>
        <time>2021-08-07T12:39:52.969Z</time>
      </trkpt>
      <trkpt lat="44.36584" lon="6.28643">
        <ele>1383.1884208079</ele>
        <time>2021-08-07T12:39:53.837Z</time>
      </trkpt>
      <trkpt lat="44.36566" lon="6.28636">
        <ele>1386.066905081</ele>
        <time>2021-08-07T12:39:54.711Z</time>
      </trkpt>
      <trkpt lat="44.36553" lon="6.28634">
        <ele>1388.9071027314</ele>
        <time>2021-08-07T12:39:55.589Z</time>
      </trkpt>
      <trkpt lat="44.36544" lon="6.2862">
        <ele>1391.501869398</ele>
        <time>2021-08-07T12:39:56.472Z</time>
      </trkpt>
      <trkpt lat="44.36541" lon="6.2862">
        <ele>1394.1516102265</ele>
        <time>2021-08-07T12:39:57.356Z</time>
      </trkpt>
      <trkpt lat="44.36541" lon="6.28634">
        <ele>1396.8205675767</ele>
        <time>2021-08-07T12:39:58.243Z</time>
      </trkpt>
      <trkpt lat="44.3655" lon="6.28659">
        <ele>1399.4389575511</ele>
        <time>2021-08-07T12:39:59.137Z</time>
      </trkpt>
      <trkpt lat="44.36549" lon="6.28666">
        <ele>1402.0330314238</ele>
        <time>2021-08-07T12:40:00.032Z</time>
      </trkpt>
      <trkpt lat="44.36544" lon="6.28681">
        <ele>1404.6774731807</ele>
        <time>2021-08-07T12:40:00.932Z</time>
      </trkpt>
      <trkpt lat="44.36521" lon="6.28695">
        <ele>1407.4393972266</ele>
        <time>2021-08-07T12:40:01.840Z</time>
      </trkpt>
      <trkpt lat="44.36498" lon="6.28697">
        <ele>1410.1463441774</ele>
        <time>2021-08-07T12:40:02.756Z</time>
      </trkpt>
      <trkpt lat="44.36466" lon="6.28685">
        <ele>1413.0512912443</ele>
        <time>2021-08-07T12:40:03.682Z</time>
      </trkpt>
      <trkpt lat="44.36456" lon="6.28678">
        <ele>1415.6895991288</ele>
        <time>2021-08-07T12:40:04.612Z</time>
      </trkpt>
      <trkpt lat="44.36429" lon="6.28652">
        <ele>1418.4023166307</ele>
        <time>2021-08-07T12:40:05.553Z</time>
      </trkpt>
      <trkpt lat="44.36419" lon="6.28647">
        <ele>1420.9825862869</ele>
        <time>2021-08-07T12:40:06.498Z</time>
      </trkpt>
      <trkpt lat="44.36402" lon="6.28646">
        <ele>1423.5635828776</ele>
        <time>2021-08-07T12:40:07.448Z</time>
      </trkpt>
      <trkpt lat="44.36378" lon="6.28651">
        <ele>1426.2365450515</ele>
        <time>2021-08-07T12:40:08.406Z</time>
      </trkpt>
      <trkpt lat="44.3637" lon="6.28654">
        <ele>1428.8214748549</ele>
        <time>2021-08-07T12:40:09.367Z</time>
      </trkpt>
      <trkpt lat="44.36342" lon="6.28674">
        <ele>1431.5620714143</ele>
        <time>2021-08-07T12:40:10.339Z</time>
      </trkpt>
      <trkpt lat="44.36327" lon="6.28689">
        <ele>1434.3047605434</ele>
        <time>2021-08-07T12:40:11.317Z</time>
      </trkpt>
      <trkpt lat="44.36319" lon="6.28694">
        <ele>1436.8461624895</ele>
        <time>2021-08-07T12:40:12.298Z</time>
      </trkpt>
      <trkpt lat="44.36297" lon="6.28705">
        <ele>1439.5279457762</ele>
        <time>2021-08-07T12:40:13.287Z</time>
      </trkpt>
      <trkpt lat="44.36285" lon="6.28708">
        <ele>1442.0208827971</ele>
        <time>2021-08-07T12:40:14.280Z</time>
      </trkpt>
      <trkpt lat="44.36272" lon="6.28711">
        <ele>1444.4745102322</ele>
        <time>2021-08-07T12:40:15.277Z</time>
      </trkpt>
      <trkpt lat="44.36255" lon="6.28711">
        <ele>1446.8879278917</ele>
        <time>2021-08-07T12:40:16.280Z</time>
      </trkpt>
      <trkpt lat="44.36212" lon="6.28707">
        <ele>1449.3907002886</ele>
        <time>2021-08-07T12:40:17.297Z</time>
      </trkpt>
      <trkpt lat="44.36204" lon="6.28709">
        <ele>1451.7822754557</ele>
        <time>2021-08-07T12:40:18.317Z</time>
      </trkpt>
      <trkpt lat="44.3619" lon="6.28716">
        <ele>1454.3006296357</ele>
        <time>2021-08-07T12:40:19.342Z</time>
      </trkpt>
      <trkpt lat="44.36163" lon="6.28719">
        <ele>1456.7788010524</ele>
        <time>2021-08-07T12:40:20.376Z</time>
      </trkpt>
      <trkpt lat="44.36162" lon="6.28721">
        <ele>1459.075580553</ele>
        <time>2021-08-07T12:40:21.410Z</time>
      </trkpt>
      <trkpt lat="44.36158" lon="6.28715">
        <ele>1461.3014728561</ele>
        <time>2021-08-07T12:40:22.446Z</time>
      </trkpt>
      <trkpt lat="44.36149" lon="6.28711">
        <ele>1463.5884784219</ele>
        <time>2021-08-07T12:40:23.485Z</time>
      </trkpt>
      <trkpt lat="44.36139" lon="6.28703">
        <ele>1465.8536464933</ele>
        <time>2021-08-07T12:40:24.528Z</time>
      </trkpt>
      <trkpt lat="44.36115" lon="6.28679">
        <ele>1468.216965808</ele>
        <time>2021-08-07T12:40:25.581Z</time>
      </trkpt>
      <trkpt lat="44.36097" lon="6.28663">
        <ele>1470.6552050099</ele>
        <time>2021-08-07T12:40:26.641Z</time>
      </trkpt>
      <trkpt lat="44.36091" lon="6.28651">
        <ele>1472.9691245801</ele>
        <time>2021-08-07T12:40:27.705Z</time>
      </trkpt>
      <trkpt lat="44.36088" lon="6.28626">
        <ele>1475.238031347</ele>
        <time>2021-08-07T12:40:28.775Z</time>
      </trkpt>
      <trkpt lat="44.36049" lon="6.28502">
        <ele>1477.9448791957</ele>
        <time>2021-08-07T12:40:29.877Z</time>
      </trkpt>
      <trkpt lat="44.3604" lon="6.28464">
        <ele>1480.3586331317</ele>
        <time>2021-08-07T12:40:30.989Z</time>
      </trkpt>
      <trkpt lat="44.36036" lon="6.28432">
        <ele>1482.6574416853</ele>
        <time>2021-08-07T12:40:32.108Z</time>
      </trkpt>
      <trkpt lat="44.36039" lon="6.28406">
        <ele>1484.9217670279</ele>
        <time>2021-08-07T12:40:33.234Z</time>
      </trkpt>
      <trkpt lat="44.36038" lon="6.28378">
        <ele>1487.203954956</ele>
        <time>2021-08-07T12:40:34.366Z</time>
      </trkpt>
      <trkpt lat="44.36034" lon="6.2837">
        <ele>1489.4515711816</ele>
        <time>2021-08-07T12:40:35.501Z</time>
      </trkpt>
      <trkpt lat="44.36014" lon="6.28347">
        <ele>1491.7524729831</ele>
        <time>2021-08-07T12:40:36.644Z</time>
      </trkpt>
      <trkpt lat="44.35937" lon="6.28265">
        <ele>1494.4179658197</ele>
        <time>2021-08-07T12:40:37.820Z</time>
      </trkpt>
      <trkpt lat="44.35925" lon="6.282">
        <ele>1496.672617049</ele>
        <time>2021-08-07T12:40:39.012Z</time>
      </trkpt>
      <trkpt lat="44.35918" lon="6.28179">
        <ele>1499.0073417858</ele>
        <time>2021-08-07T12:40:40.209Z</time>
      </trkpt>
      <trkpt lat="44.35911" lon="6.28164">
        <ele>1501.3495434437</ele>
        <time>2021-08-07T12:40:41.411Z</time>
      </trkpt>
      <trkpt lat="44.35876" lon="6.28111">
        <ele>1503.880764344</ele>
        <time>2021-08-07T12:40:42.630Z</time>
      </trkpt>
      <trkpt lat="44.35849" lon="6.28082">
        <ele>1506.3157699268</ele>
        <time>2021-08-07T12:40:43.860Z</time>
      </trkpt>
      <trkpt lat="44.35823" lon="6.28061">
        <ele>1508.6375693172</ele>
        <time>2021-08-07T12:40:45.100Z</time>
      </trkpt>
      <trkpt lat="44.35793" lon="6.28041">
        <ele>1510.9790073954</ele>
        <time>2021-08-07T12:40:46.351Z</time>
      </trkpt>
      <trkpt lat="44.35763" lon="6.28027">
        <ele>1513.2759554224</ele>
        <time>2021-08-07T12:40:47.613Z</time>
      </trkpt>
      <trkpt lat="44.3574" lon="6.2802">
        <ele>1515.4857646464</ele>
        <time>2021-08-07T12:40:48.883Z</time>
      </trkpt>
      <trkpt lat="44.35719" lon="6.28009">
        <ele>1517.5919853404</ele>
        <time>2021-08-07T12:40:50.160Z</time>
      </trkpt>
      <trkpt lat="44.35683" lon="6.27985">
        <ele>1519.9036848201</ele>
        <time>2021-08-07T12:40:51.451Z</time>
      </trkpt>
      <trkpt lat="44.35668" lon="6.27972">
        <ele>1522.0881634257</ele>
        <time>2021-08-07T12:40:52.747Z</time>
      </trkpt>
      <trkpt lat="44.3563" lon="6.27951">
        <ele>1524.4631909941</ele>
        <time>2021-08-07T12:40:54.057Z</time>
      </trkpt>
      <trkpt lat="44.35624" lon="6.27946">
        <ele>1526.5556777028</ele>
        <time>2021-08-07T12:40:55.369Z</time>
      </trkpt>
      <trkpt lat="44.35604" lon="6.27923">
        <ele>1528.7064909859</ele>
        <time>2021-08-07T12:40:56.690Z</time>
      </trkpt>
      <trkpt lat="44.35594" lon="6.27915">
        <ele>1530.7542417923</ele>
        <time>2021-08-07T12:40:58.015Z</time>
      </trkpt>
      <trkpt lat="44.35583" lon="6.27898">
        <ele>1532.7611378405</ele>
        <time>2021-08-07T12:40:59.345Z</time>
      </trkpt>
      <trkpt lat="44.35572" lon="6.27865">
        <ele>1534.7371223901</ele>
        <time>2021-08-07T12:41:00.684Z</time>
      </trkpt>
      <trkpt lat="44.35568" lon="6.27846">
        <ele>1536.6444980041</ele>
        <time>2021-08-07T12:41:02.028Z</time>
      </trkpt>
      <trkpt lat="44.35564" lon="6.27833">
        <ele>1538.5052893629</ele>
        <time>2021-08-07T12:41:03.375Z</time>
      </trkpt>
      <trkpt lat="44.35541" lon="6.27783">
        <ele>1540.5108722782</ele>
        <time>2021-08-07T12:41:04.736Z</time>
      </trkpt>
      <trkpt lat="44.3553" lon="6.27764">
        <ele>1542.314810005</ele>
        <time>2021-08-07T12:41:06.103Z</time>
      </trkpt>
      <trkpt lat="44.35521" lon="6.27758">
        <ele>1544.0462082864</ele>
        <time>2021-08-07T12:41:07.473Z</time>
      </trkpt>
      <trkpt lat="44.35508" lon="6.27744">
        <ele>1545.7501017949</ele>
        <time>2021-08-07T12:41:08.849Z</time>
      </trkpt>
      <trkpt lat="44.35485" lon="6.27716">
        <ele>1547.5103559198</ele>
        <time>2021-08-07T12:41:10.235Z</time>
      </trkpt>
      <trkpt lat="44.35471" lon="6.27694">
        <ele>1549.1856990629</ele>
        <time>2021-08-07T12:41:11.628Z</time>
      </trkpt>
      <trkpt lat="44.35468" lon="6.27673">
        <ele>1550.7262833545</ele>
        <time>2021-08-07T12:41:13.026Z</time>
      </trkpt>
      <trkpt lat="44.35478" lon="6.27635">
        <ele>1552.2727634332</ele>
        <time>2021-08-07T12:41:14.434Z</time>
      </trkpt>
      <trkpt lat="44.35477" lon="6.27632">
        <ele>1553.6747469746</ele>
        <time>2021-08-07T12:41:15.843Z</time>
      </trkpt>
      <trkpt lat="44.35474" lon="6.27629">
        <ele>1555.0615029841</ele>
        <time>2021-08-07T12:41:17.253Z</time>
      </trkpt>
      <trkpt lat="44.35472" lon="6.27628">
        <ele>1556.3741663127</ele>
        <time>2021-08-07T12:41:18.664Z</time>
      </trkpt>
      <trkpt lat="44.35467" lon="6.27633">
        <ele>1557.6453132805</ele>
        <time>2021-08-07T12:41:20.077Z</time>
      </trkpt>
      <trkpt lat="44.35456" lon="6.27649">
        <ele>1558.807188875</ele>
        <time>2021-08-07T12:41:21.495Z</time>
      </trkpt>
      <trkpt lat="44.35436" lon="6.27674">
        <ele>1559.9817498549</ele>
        <time>2021-08-07T12:41:22.922Z</time>
      </trkpt>
      <trkpt lat="44.35422" lon="6.27682">
        <ele>1561.1821960326</ele>
        <time>2021-08-07T12:41:24.354Z</time>
      </trkpt>
      <trkpt lat="44.35403" lon="6.27699">
        <ele>1562.4361324366</ele>
        <time>2021-08-07T12:41:25.794Z</time>
      </trkpt>
      <trkpt lat="44.35376" lon="6.27719">
        <ele>1563.7573723689</ele>
        <time>2021-08-07T12:41:27.244Z</time>
      </trkpt>
      <trkpt lat="44.35365" lon="6.27729">
        <ele>1564.8373575946</ele>
        <time>2021-08-07T12:41:28.698Z</time>
      </trkpt>
      <trkpt lat="44.35353" lon="6.27734">
        <ele>1565.8755494363</ele>
        <time>2021-08-07T12:41:30.156Z</time>
      </trkpt>
      <trkpt lat="44.35347" lon="6.27734">
        <ele>1566.8516491612</ele>
        <time>2021-08-07T12:41:31.616Z</time>
      </trkpt>
      <trkpt lat="44.35341" lon="6.27729">
        <ele>1567.81711798</ele>
        <time>2021-08-07T12:41:33.079Z</time>
      </trkpt>
      <trkpt lat="44.35337" lon="6.27721">
        <ele>1568.7707445086</ele>
        <time>2021-08-07T12:41:34.544Z</time>
      </trkpt>
      <trkpt lat="44.35325" lon="6.27662">
        <ele>1569.9071423955</ele>
        <time>2021-08-07T12:41:36.024Z</time>
      </trkpt>
      <trkpt lat="44.35321" lon="6.27651">
        <ele>1570.8428912299</ele>
        <time>2021-08-07T12:41:37.506Z</time>
      </trkpt>
      <trkpt lat="44.35306" lon="6.27635">
        <ele>1571.7405536207</ele>
        <time>2021-08-07T12:41:38.995Z</time>
      </trkpt>
      <trkpt lat="44.35284" lon="6.27601">
        <ele>1572.6542516875</ele>
        <time>2021-08-07T12:41:40.495Z</time>
      </trkpt>
      <trkpt lat="44.3525" lon="6.27573">
        <ele>1573.4317426951</ele>
        <time>2021-08-07T12:41:42.008Z</time>
      </trkpt>
      <trkpt lat="44.35214" lon="6.27529">
        <ele>1574.3812644748</ele>
        <time>2021-08-07T12:41:43.537Z</time>
      </trkpt>
      <trkpt lat="44.35205" lon="6.27525">
        <ele>1575.2313072726</ele>
        <time>2021-08-07T12:41:45.069Z</time>
      </trkpt>
      <trkpt lat="44.35201" lon="6.27527">
        <ele>1576.053368064</ele>
        <time>2021-08-07T12:41:46.602Z</time>
      </trkpt>
      <trkpt lat="44.35197" lon="6.27538">
        <ele>1576.8490788019</ele>
        <time>2021-08-07T12:41:48.138Z</time>
      </trkpt>
      <trkpt lat="44.35194" lon="6.27557">
        <ele>1577.6287563605</ele>
        <time>2021-08-07T12:41:49.679Z</time>
      </trkpt>
      <trkpt lat="44.35191" lon="6.27608">
        <ele>1578.2752913317</ele>
        <time>2021-08-07T12:41:51.232Z</time>
      </trkpt>
      <trkpt lat="44.35184" lon="6.27639">
        <ele>1579.2755531792</ele>
        <time>2021-08-07T12:41:52.793Z</time>
      </trkpt>
      <trkpt lat="44.35181" lon="6.27681">
        <ele>1580.3150779928</ele>
        <time>2021-08-07T12:41:54.364Z</time>
      </trkpt>
      <trkpt lat="44.35175" lon="6.27698">
        <ele>1581.3498653622</ele>
        <time>2021-08-07T12:41:55.940Z</time>
      </trkpt>
      <trkpt lat="44.35157" lon="6.27737">
        <ele>1582.695415983</ele>
        <time>2021-08-07T12:41:57.527Z</time>
      </trkpt>
      <trkpt lat="44.35144" lon="6.27758">
        <ele>1583.7936627165</ele>
        <time>2021-08-07T12:41:59.120Z</time>
      </trkpt>
      <trkpt lat="44.35131" lon="6.27775">
        <ele>1584.930782683</ele>
        <time>2021-08-07T12:42:00.719Z</time>
      </trkpt>
      <trkpt lat="44.35125" lon="6.2779">
        <ele>1585.8970463598</ele>
        <time>2021-08-07T12:42:02.322Z</time>
      </trkpt>
      <trkpt lat="44.35117" lon="6.27813">
        <ele>1586.9640026794</ele>
        <time>2021-08-07T12:42:03.931Z</time>
      </trkpt>
      <trkpt lat="44.35114" lon="6.2783">
        <ele>1587.9265245109</ele>
        <time>2021-08-07T12:42:05.545Z</time>
      </trkpt>
      <trkpt lat="44.35105" lon="6.27856">
        <ele>1589.0378992358</ele>
        <time>2021-08-07T12:42:07.166Z</time>
      </trkpt>
      <trkpt lat="44.35092" lon="6.27899">
        <ele>1590.0107167562</ele>
        <time>2021-08-07T12:42:08.798Z</time>
      </trkpt>
      <trkpt lat="44.35089" lon="6.27914">
        <ele>1590.8755399249</ele>
        <time>2021-08-07T12:42:10.433Z</time>
      </trkpt>
      <trkpt lat="44.35085" lon="6.27923">
        <ele>1591.8544768596</ele>
        <time>2021-08-07T12:42:12.071Z</time>
      </trkpt>
      <trkpt lat="44.3508" lon="6.27929">
        <ele>1592.8743073712</ele>
        <time>2021-08-07T12:42:13.711Z</time>
      </trkpt>
      <trkpt lat="44.35072" lon="6.27933">
        <ele>1593.917641244</ele>
        <time>2021-08-07T12:42:15.354Z</time>
      </trkpt>
      <trkpt lat="44.35059" lon="6.27936">
        <ele>1594.9461862329</ele>
        <time>2021-08-07T12:42:17.001Z</time>
      </trkpt>
      <trkpt lat="44.35025" lon="6.27928">
        <ele>1596.117426916</ele>
        <time>2021-08-07T12:42:18.660Z</time>
      </trkpt>
      <trkpt lat="44.35011" lon="6.27923">
        <ele>1597.2509909368</ele>
        <time>2021-08-07T12:42:20.324Z</time>
      </trkpt>
      <trkpt lat="44.34996" lon="6.27914">
        <ele>1598.4716913612</ele>
        <time>2021-08-07T12:42:21.993Z</time>
      </trkpt>
      <trkpt lat="44.34979" lon="6.279">
        <ele>1599.7216324091</ele>
        <time>2021-08-07T12:42:23.669Z</time>
      </trkpt>
      <trkpt lat="44.3496" lon="6.27874">
        <ele>1601.1446221198</ele>
        <time>2021-08-07T12:42:25.354Z</time>
      </trkpt>
      <trkpt lat="44.34947" lon="6.27847">
        <ele>1602.5816946742</ele>
        <time>2021-08-07T12:42:27.047Z</time>
      </trkpt>
      <trkpt lat="44.34923" lon="6.27817">
        <ele>1603.863001715</ele>
        <time>2021-08-07T12:42:28.750Z</time>
      </trkpt>
      <trkpt lat="44.34912" lon="6.27811">
        <ele>1605.0602352054</ele>
        <time>2021-08-07T12:42:30.457Z</time>
      </trkpt>
      <trkpt lat="44.34909" lon="6.27812">
        <ele>1606.277924424</ele>
        <time>2021-08-07T12:42:32.165Z</time>
      </trkpt>
      <trkpt lat="44.34904" lon="6.27825">
        <ele>1607.4583756211</ele>
        <time>2021-08-07T12:42:33.877Z</time>
      </trkpt>
      <trkpt lat="44.34905" lon="6.27848">
        <ele>1608.4479200806</ele>
        <time>2021-08-07T12:42:35.594Z</time>
      </trkpt>
      <trkpt lat="44.34897" lon="6.27932">
        <ele>1609.5567087668</ele>
        <time>2021-08-07T12:42:37.331Z</time>
      </trkpt>
      <trkpt lat="44.34897" lon="6.27966">
        <ele>1610.5990394192</ele>
        <time>2021-08-07T12:42:39.077Z</time>
      </trkpt>
      <trkpt lat="44.34895" lon="6.27987">
        <ele>1611.6298880375</ele>
        <time>2021-08-07T12:42:40.828Z</time>
      </trkpt>
      <trkpt lat="44.34887" lon="6.28006">
        <ele>1612.7051926456</ele>
        <time>2021-08-07T12:42:42.584Z</time>
      </trkpt>
      <trkpt lat="44.34847" lon="6.28019">
        <ele>1614.1235301759</ele>
        <time>2021-08-07T12:42:44.353Z</time>
      </trkpt>
      <trkpt lat="44.34828" lon="6.28018">
        <ele>1615.4224101297</ele>
        <time>2021-08-07T12:42:46.129Z</time>
      </trkpt>
      <trkpt lat="44.34824" lon="6.28023">
        <ele>1616.4064378992</ele>
        <time>2021-08-07T12:42:47.907Z</time>
      </trkpt>
      <trkpt lat="44.34822" lon="6.28035">
        <ele>1617.2444566685</ele>
        <time>2021-08-07T12:42:49.688Z</time>
      </trkpt>
      <trkpt lat="44.34827" lon="6.2806">
        <ele>1617.9097562525</ele>
        <time>2021-08-07T12:42:51.475Z</time>
      </trkpt>
      <trkpt lat="44.34847" lon="6.28098">
        <ele>1618.3964360981</ele>
        <time>2021-08-07T12:42:53.273Z</time>
      </trkpt>
      <trkpt lat="44.34881" lon="6.28156">
        <ele>1618.9034010839</ele>
        <time>2021-08-07T12:42:55.089Z</time>
      </trkpt>
      <trkpt lat="44.34906" lon="6.28187">
        <ele>1619.2854816519</ele>
        <time>2021-08-07T12:42:56.916Z</time>
      </trkpt>
      <trkpt lat="44.34917" lon="6.28206">
        <ele>1619.689166164</ele>
        <time>2021-08-07T12:42:58.749Z</time>
      </trkpt>
      <trkpt lat="44.34955" lon="6.28249">
        <ele>1619.9330581742</ele>
        <time>2021-08-07T12:43:00.598Z</time>
      </trkpt>
      <trkpt lat="44.34963" lon="6.28264">
        <ele>1620.0018484664</ele>
        <time>2021-08-07T12:43:02.452Z</time>
      </trkpt>
      <trkpt lat="44.34971" lon="6.28287">
        <ele>1619.7269658287</ele>
        <time>2021-08-07T12:43:04.312Z</time>
      </trkpt>
      <trkpt lat="44.34972" lon="6.28308">
        <ele>1619.4171832824</ele>
        <time>2021-08-07T12:43:06.177Z</time>
      </trkpt>
      <trkpt lat="44.34968" lon="6.28356">
        <ele>1619.0403665629</ele>
        <time>2021-08-07T12:43:08.053Z</time>
      </trkpt>
      <trkpt lat="44.3496" lon="6.28371">
        <ele>1618.3543922022</ele>
        <time>2021-08-07T12:43:09.934Z</time>
      </trkpt>
      <trkpt lat="44.3494" lon="6.28383">
        <ele>1617.6393341995</ele>
        <time>2021-08-07T12:43:11.822Z</time>
      </trkpt>
      <trkpt lat="44.34921" lon="6.28391">
        <ele>1616.6311491828</ele>
        <time>2021-08-07T12:43:13.717Z</time>
      </trkpt>
      <trkpt lat="44.34902" lon="6.28394">
        <ele>1615.6500675501</ele>
        <time>2021-08-07T12:43:15.618Z</time>
      </trkpt>
      <trkpt lat="44.34863" lon="6.2841">
        <ele>1614.4810000754</ele>
        <time>2021-08-07T12:43:17.533Z</time>
      </trkpt>
      <trkpt lat="44.34844" lon="6.28425">
        <ele>1613.0727389825</ele>
        <time>2021-08-07T12:43:19.455Z</time>
      </trkpt>
      <trkpt lat="44.34797" lon="6.2845">
        <ele>1611.4139029343</ele>
        <time>2021-08-07T12:43:21.394Z</time>
      </trkpt>
      <trkpt lat="44.34786" lon="6.28451">
        <ele>1609.9377402742</ele>
        <time>2021-08-07T12:43:23.336Z</time>
      </trkpt>
      <trkpt lat="44.34769" lon="6.28447">
        <ele>1608.4582021874</ele>
        <time>2021-08-07T12:43:25.284Z</time>
      </trkpt>
      <trkpt lat="44.34748" lon="6.28436">
        <ele>1607.079815505</ele>
        <time>2021-08-07T12:43:27.239Z</time>
      </trkpt>
      <trkpt lat="44.34731" lon="6.28432">
        <ele>1605.5445992906</ele>
        <time>2021-08-07T12:43:29.200Z</time>
      </trkpt>
      <trkpt lat="44.34726" lon="6.28432">
        <ele>1603.9136359813</ele>
        <time>2021-08-07T12:43:31.163Z</time>
      </trkpt>
      <trkpt lat="44.34716" lon="6.28435">
        <ele>1602.1773383511</ele>
        <time>2021-08-07T12:43:33.129Z</time>
      </trkpt>
      <trkpt lat="44.34712" lon="6.28438">
        <ele>1600.4687135222</ele>
        <time>2021-08-07T12:43:35.097Z</time>
      </trkpt>
      <trkpt lat="44.34709" lon="6.28443">
        <ele>1598.7021273965</ele>
        <time>2021-08-07T12:43:37.066Z</time>
      </trkpt>
      <trkpt lat="44.34704" lon="6.28455">
        <ele>1596.836443282</ele>
        <time>2021-08-07T12:43:39.039Z</time>
      </trkpt>
      <trkpt lat="44.34703" lon="6.28462">
        <ele>1595.1150486253</ele>
        <time>2021-08-07T12:43:41.014Z</time>
      </trkpt>
      <trkpt lat="44.34718" lon="6.28568">
        <ele>1592.9745386293</ele>
        <time>2021-08-07T12:43:43.014Z</time>
      </trkpt>
      <trkpt lat="44.34716" lon="6.28583">
        <ele>1591.3137918253</ele>
        <time>2021-08-07T12:43:45.018Z</time>
      </trkpt>
      <trkpt lat="44.3471" lon="6.28596">
        <ele>1589.783036958</ele>
        <time>2021-08-07T12:43:47.026Z</time>
      </trkpt>
      <trkpt lat="44.34687" lon="6.28621">
        <ele>1588.2218441397</ele>
        <time>2021-08-07T12:43:49.043Z</time>
      </trkpt>
      <trkpt lat="44.34674" lon="6.28632">
        <ele>1586.9294164346</ele>
        <time>2021-08-07T12:43:51.065Z</time>
      </trkpt>
      <trkpt lat="44.34653" lon="6.28647">
        <ele>1585.8227633809</ele>
        <time>2021-08-07T12:43:53.095Z</time>
      </trkpt>
      <trkpt lat="44.34605" lon="6.28687">
        <ele>1584.4110807251</ele>
        <time>2021-08-07T12:43:55.144Z</time>
      </trkpt>
      <trkpt lat="44.34595" lon="6.28705">
        <ele>1583.34796871</ele>
        <time>2021-08-07T12:43:57.198Z</time>
      </trkpt>
      <trkpt lat="44.34582" lon="6.28756">
        <ele>1582.2563711373</ele>
        <time>2021-08-07T12:43:59.265Z</time>
      </trkpt>
      <trkpt lat="44.3457" lon="6.28762">
        <ele>1581.6979561828</ele>
        <time>2021-08-07T12:44:01.337Z</time>
      </trkpt>
      <trkpt lat="44.34519" lon="6.28781">
        <ele>1581.4523164753</ele>
        <time>2021-08-07T12:44:03.426Z</time>
      </trkpt>
      <trkpt lat="44.34498" lon="6.28785">
        <ele>1581.1849466158</ele>
        <time>2021-08-07T12:44:05.523Z</time>
      </trkpt>
      <trkpt lat="44.34488" lon="6.28797">
        <ele>1581.1167995554</ele>
        <time>2021-08-07T12:44:07.624Z</time>
      </trkpt>
      <trkpt lat="44.34488" lon="6.28813">
        <ele>1581.1639637839</ele>
        <time>2021-08-07T12:44:09.729Z</time>
      </trkpt>
      <trkpt lat="44.3449" lon="6.28818">
        <ele>1581.2884288339</ele>
        <time>2021-08-07T12:44:11.835Z</time>
      </trkpt>
      <trkpt lat="44.34502" lon="6.28837">
        <ele>1581.52130009</ele>
        <time>2021-08-07T12:44:13.947Z</time>
      </trkpt>
      <trkpt lat="44.34528" lon="6.28866">
        <ele>1581.6916616936</ele>
        <time>2021-08-07T12:44:16.070Z</time>
      </trkpt>
      <trkpt lat="44.34546" lon="6.2889">
        <ele>1582.1627004718</ele>
        <time>2021-08-07T12:44:18.202Z</time>
      </trkpt>
      <trkpt lat="44.34558" lon="6.28919">
        <ele>1582.8075407472</ele>
        <time>2021-08-07T12:44:20.342Z</time>
      </trkpt>
      <trkpt lat="44.34557" lon="6.28933">
        <ele>1583.6259037277</ele>
        <time>2021-08-07T12:44:22.485Z</time>
      </trkpt>
      <trkpt lat="44.34551" lon="6.2895">
        <ele>1584.6496708851</ele>
        <time>2021-08-07T12:44:24.632Z</time>
      </trkpt>
      <trkpt lat="44.34547" lon="6.28956">
        <ele>1585.7142754213</ele>
        <time>2021-08-07T12:44:26.782Z</time>
      </trkpt>
      <trkpt lat="44.34529" lon="6.28975">
        <ele>1586.9610544183</ele>
        <time>2021-08-07T12:44:28.939Z</time>
      </trkpt>
      <trkpt lat="44.34501" lon="6.28995">
        <ele>1588.5299421323</ele>
        <time>2021-08-07T12:44:31.106Z</time>
      </trkpt>
      <trkpt lat="44.34491" lon="6.2901">
        <ele>1589.9950026714</ele>
        <time>2021-08-07T12:44:33.278Z</time>
      </trkpt>
      <trkpt lat="44.3449" lon="6.29018">
        <ele>1591.270857488</ele>
        <time>2021-08-07T12:44:35.452Z</time>
      </trkpt>
      <trkpt lat="44.34492" lon="6.29026">
        <ele>1592.5342111579</ele>
        <time>2021-08-07T12:44:37.628Z</time>
      </trkpt>
      <trkpt lat="44.34504" lon="6.29038">
        <ele>1593.7230808447</ele>
        <time>2021-08-07T12:44:39.809Z</time>
      </trkpt>
      <trkpt lat="44.34567" lon="6.29067">
        <ele>1594.8596458146</ele>
        <time>2021-08-07T12:44:42.012Z</time>
      </trkpt>
      <trkpt lat="44.34593" lon="6.29081">
        <ele>1596.1873858562</ele>
        <time>2021-08-07T12:44:44.225Z</time>
      </trkpt>
      <trkpt lat="44.34604" lon="6.29091">
        <ele>1597.4179531609</ele>
        <time>2021-08-07T12:44:46.442Z</time>
      </trkpt>
      <trkpt lat="44.34613" lon="6.29108">
        <ele>1598.6133290539</ele>
        <time>2021-08-07T12:44:48.664Z</time>
      </trkpt>
      <trkpt lat="44.34619" lon="6.29144">
        <ele>1599.7085284614</ele>
        <time>2021-08-07T12:44:50.895Z</time>
      </trkpt>
      <trkpt lat="44.34621" lon="6.29224">
        <ele>1600.8530722222</ele>
        <time>2021-08-07T12:44:53.145Z</time>
      </trkpt>
      <trkpt lat="44.34626" lon="6.29243">
        <ele>1601.8349045806</ele>
        <time>2021-08-07T12:44:55.400Z</time>
      </trkpt>
      <trkpt lat="44.34639" lon="6.29258">
        <ele>1602.7728356399</ele>
        <time>2021-08-07T12:44:57.660Z</time>
      </trkpt>
      <trkpt lat="44.34655" lon="6.29261">
        <ele>1603.6703371691</ele>
        <time>2021-08-07T12:44:59.926Z</time>
      </trkpt>
      <trkpt lat="44.347" lon="6.29237">
        <ele>1604.4866950443</ele>
        <time>2021-08-07T12:45:02.208Z</time>
      </trkpt>
      <trkpt lat="44.34724" lon="6.29235">
        <ele>1605.1791035486</ele>
        <time>2021-08-07T12:45:04.498Z</time>
      </trkpt>
      <trkpt lat="44.34742" lon="6.29243">
        <ele>1605.8196572937</ele>
        <time>2021-08-07T12:45:06.794Z</time>
      </trkpt>
      <trkpt lat="44.34756" lon="6.29259">
        <ele>1606.4446181573</ele>
        <time>2021-08-07T12:45:09.096Z</time>
      </trkpt>
      <trkpt lat="44.34766" lon="6.29283">
        <ele>1607.0445033317</ele>
        <time>2021-08-07T12:45:11.405Z</time>
      </trkpt>
      <trkpt lat="44.34767" lon="6.29296">
        <ele>1607.5801072027</ele>
        <time>2021-08-07T12:45:13.717Z</time>
      </trkpt>
      <trkpt lat="44.34761" lon="6.29331">
        <ele>1608.1071710807</ele>
        <time>2021-08-07T12:45:16.038Z</time>
      </trkpt>
      <trkpt lat="44.34754" lon="6.29352">
        <ele>1608.5706444</ele>
        <time>2021-08-07T12:45:18.364Z</time>
      </trkpt>
      <trkpt lat="44.3475" lon="6.29378">
        <ele>1608.9246461245</ele>
        <time>2021-08-07T12:45:20.697Z</time>
      </trkpt>
      <trkpt lat="44.3474" lon="6.29471">
        <ele>1609.2526763759</ele>
        <time>2021-08-07T12:45:23.052Z</time>
      </trkpt>
      <trkpt lat="44.34726" lon="6.29533">
        <ele>1609.5300373376</ele>
        <time>2021-08-07T12:45:25.423Z</time>
      </trkpt>
      <trkpt lat="44.34725" lon="6.29537">
        <ele>1609.7135710429</ele>
        <time>2021-08-07T12:45:27.795Z</time>
      </trkpt>
      <trkpt lat="44.34719" lon="6.29544">
        <ele>1609.8544632142</ele>
        <time>2021-08-07T12:45:30.169Z</time>
      </trkpt>
      <trkpt lat="44.34709" lon="6.29544">
        <ele>1609.9564124791</ele>
        <time>2021-08-07T12:45:32.547Z</time>
      </trkpt>
      <trkpt lat="44.34702" lon="6.29547">
        <ele>1609.9999540009</ele>
        <time>2021-08-07T12:45:34.927Z</time>
      </trkpt>
      <trkpt lat="44.34692" lon="6.29558">
        <ele>1609.971518346</ele>
        <time>2021-08-07T12:45:37.311Z</time>
      </trkpt>
      <trkpt lat="44.34681" lon="6.29574">
        <ele>1609.9170107425</ele>
        <time>2021-08-07T12:45:39.701Z</time>
      </trkpt>
      <trkpt lat="44.3467" lon="6.29602">
        <ele>1609.8235019078</ele>
        <time>2021-08-07T12:45:42.098Z</time>
      </trkpt>
      <trkpt lat="44.34656" lon="6.29648">
        <ele>1609.7782700593</ele>
        <time>2021-08-07T12:45:44.507Z</time>
      </trkpt>
      <trkpt lat="44.34638" lon="6.29752">
        <ele>1609.7433202382</ele>
        <time>2021-08-07T12:45:46.942Z</time>
      </trkpt>
      <trkpt lat="44.34638" lon="6.29754">
        <ele>1609.5949645024</ele>
        <time>2021-08-07T12:45:49.377Z</time>
      </trkpt>
      <trkpt lat="44.34644" lon="6.29756">
        <ele>1609.3770519237</ele>
        <time>2021-08-07T12:45:51.814Z</time>
      </trkpt>
      <trkpt lat="44.34647" lon="6.29769">
        <ele>1609.1707556851</ele>
        <time>2021-08-07T12:45:54.255Z</time>
      </trkpt>
      <trkpt lat="44.34645" lon="6.29785">
        <ele>1608.9432547089</ele>
        <time>2021-08-07T12:45:56.700Z</time>
      </trkpt>
      <trkpt lat="44.34644" lon="6.29794">
        <ele>1608.7222207841</ele>
        <time>2021-08-07T12:45:59.147Z</time>
      </trkpt>
      <trkpt lat="44.34632" lon="6.29812">
        <ele>1608.5548014967</ele>
        <time>2021-08-07T12:46:01.599Z</time>
      </trkpt>
      <trkpt lat="44.34629" lon="6.29837">
        <ele>1608.2562886184</ele>
        <time>2021-08-07T12:46:04.058Z</time>
      </trkpt>
      <trkpt lat="44.34628" lon="6.29872">
        <ele>1607.9484550896</ele>
        <time>2021-08-07T12:46:06.525Z</time>
      </trkpt>
      <trkpt lat="44.34621" lon="6.29912">
        <ele>1607.8795978406</ele>
        <time>2021-08-07T12:46:09.002Z</time>
      </trkpt>
      <trkpt lat="44.34624" lon="6.29926">
        <ele>1607.5516279735</ele>
        <time>2021-08-07T12:46:11.482Z</time>
      </trkpt>
      <trkpt lat="44.34629" lon="6.29939">
        <ele>1607.155221514</ele>
        <time>2021-08-07T12:46:13.966Z</time>
      </trkpt>
      <trkpt lat="44.34644" lon="6.29967">
        <ele>1606.6772345372</ele>
        <time>2021-08-07T12:46:16.458Z</time>
      </trkpt>
      <trkpt lat="44.34669" lon="6.29991">
        <ele>1606.071349382</ele>
        <time>2021-08-07T12:46:18.960Z</time>
      </trkpt>
      <trkpt lat="44.34696" lon="6.30022">
        <ele>1605.6052177483</ele>
        <time>2021-08-07T12:46:21.474Z</time>
      </trkpt>
      <trkpt lat="44.34749" lon="6.30086">
        <ele>1605.253926983</ele>
        <time>2021-08-07T12:46:24.011Z</time>
      </trkpt>
      <trkpt lat="44.34781" lon="6.30134">
        <ele>1604.7821828842</ele>
        <time>2021-08-07T12:46:26.564Z</time>
      </trkpt>
      <trkpt lat="44.34792" lon="6.30159">
        <ele>1604.3852999852</ele>
        <time>2021-08-07T12:46:29.124Z</time>
      </trkpt>
      <trkpt lat="44.34802" lon="6.30173">
        <ele>1604.0592350879</ele>
        <time>2021-08-07T12:46:31.689Z</time>
      </trkpt>
      <trkpt lat="44.34806" lon="6.30185">
        <ele>1603.8637728576</ele>
        <time>2021-08-07T12:46:34.257Z</time>
      </trkpt>
      <trkpt lat="44.34815" lon="6.3019">
        <ele>1603.6771618509</ele>
        <time>2021-08-07T12:46:36.828Z</time>
      </trkpt>
      <trkpt lat="44.34813" lon="6.30188">
        <ele>1603.611999771</ele>
        <time>2021-08-07T12:46:39.400Z</time>
      </trkpt>
      <trkpt lat="44.34806" lon="6.30187">
        <ele>1603.6512331065</ele>
        <time>2021-08-07T12:46:41.974Z</time>
      </trkpt>
      <trkpt lat="44.34799" lon="6.3019">
        <ele>1603.750260337</ele>
        <time>2021-08-07T12:46:44.551Z</time>
      </trkpt>
      <trkpt lat="44.34782" lon="6.30203">
        <ele>1604.0550923815</ele>
        <time>2021-08-07T12:46:47.134Z</time>
      </trkpt>
      <trkpt lat="44.34749" lon="6.30239">
        <ele>1604.4205034368</ele>
        <time>2021-08-07T12:46:49.731Z</time>
      </trkpt>
      <trkpt lat="44.3474" lon="6.30243">
        <ele>1604.5878292375</ele>
        <time>2021-08-07T12:46:52.331Z</time>
      </trkpt>
      <trkpt lat="44.34728" lon="6.30244">
        <ele>1604.8277498245</ele>
        <time>2021-08-07T12:46:54.935Z</time>
      </trkpt>
      <trkpt lat="44.34712" lon="6.30253">
        <ele>1605.0733776212</ele>
        <time>2021-08-07T12:46:57.545Z</time>
      </trkpt>
      <trkpt lat="44.34707" lon="6.30258">
        <ele>1605.2445211765</ele>
        <time>2021-08-07T12:47:00.157Z</time>
      </trkpt>
      <trkpt lat="44.34689" lon="6.30282">
        <ele>1605.457334387</ele>
        <time>2021-08-07T12:47:02.777Z</time>
      </trkpt>
      <trkpt lat="44.3468" lon="6.30298">
        <ele>1605.6182038931</ele>
        <time>2021-08-07T12:47:05.402Z</time>
      </trkpt>
      <trkpt lat="44.34669" lon="6.3033">
        <ele>1605.7016996568</ele>
        <time>2021-08-07T12:47:08.036Z</time>
      </trkpt>
      <trkpt lat="44.34663" lon="6.30345">
        <ele>1605.797153751</ele>
        <time>2021-08-07T12:47:10.674Z</time>
      </trkpt>
      <trkpt lat="44.3466" lon="6.30361">
        <ele>1605.809183535</ele>
        <time>2021-08-07T12:47:13.316Z</time>
      </trkpt>
      <trkpt lat="44.34654" lon="6.30374">
        <ele>1605.7798690896</ele>
        <time>2021-08-07T12:47:15.961Z</time>
      </trkpt>
      <trkpt lat="44.34652" lon="6.30376">
        <ele>1605.8477759802</ele>
        <time>2021-08-07T12:47:18.607Z</time>
      </trkpt>
      <trkpt lat="44.3465" lon="6.30375">
        <ele>1605.9405386456</ele>
        <time>2021-08-07T12:47:21.254Z</time>
      </trkpt>
      <trkpt lat="44.34647" lon="6.30385">
        <ele>1605.9620409605</ele>
        <time>2021-08-07T12:47:23.904Z</time>
      </trkpt>
      <trkpt lat="44.3465" lon="6.3044">
        <ele>1605.8298995526</ele>
        <time>2021-08-07T12:47:26.567Z</time>
      </trkpt>
      <trkpt lat="44.34655" lon="6.30459">
        <ele>1605.9712914036</ele>
        <time>2021-08-07T12:47:29.235Z</time>
      </trkpt>
      <trkpt lat="44.34655" lon="6.30463">
        <ele>1606.1102972796</ele>
        <time>2021-08-07T12:47:31.903Z</time>
      </trkpt>
      <trkpt lat="44.34652" lon="6.30467">
        <ele>1606.2415100921</ele>
        <time>2021-08-07T12:47:34.573Z</time>
      </trkpt>
      <trkpt lat="44.34647" lon="6.30459">
        <ele>1606.3954440179</ele>
        <time>2021-08-07T12:47:37.245Z</time>
      </trkpt>
      <trkpt lat="44.34642" lon="6.30441">
        <ele>1606.5901484434</ele>
        <time>2021-08-07T12:47:39.922Z</time>
      </trkpt>
      <trkpt lat="44.34635" lon="6.30403">
        <ele>1606.9249868451</ele>
        <time>2021-08-07T12:47:42.608Z</time>
      </trkpt>
      <trkpt lat="44.34626" lon="6.30373">
        <ele>1607.2844943222</ele>
        <time>2021-08-07T12:47:45.302Z</time>
      </trkpt>
      <trkpt lat="44.3462" lon="6.30355">
        <ele>1607.5980100283</ele>
        <time>2021-08-07T12:47:48.001Z</time>
      </trkpt>
      <trkpt lat="44.34596" lon="6.30301">
        <ele>1607.9205748228</ele>
        <time>2021-08-07T12:47:50.715Z</time>
      </trkpt>
      <trkpt lat="44.34584" lon="6.3028">
        <ele>1608.1596472282</ele>
        <time>2021-08-07T12:47:53.436Z</time>
      </trkpt>
      <trkpt lat="44.34547" lon="6.3023">
        <ele>1608.5588389238</ele>
        <time>2021-08-07T12:47:56.174Z</time>
      </trkpt>
      <trkpt lat="44.34534" lon="6.3021">
        <ele>1609.0469125661</ele>
        <time>2021-08-07T12:47:58.918Z</time>
      </trkpt>
      <trkpt lat="44.3452" lon="6.30207">
        <ele>1609.3593535879</ele>
        <time>2021-08-07T12:48:01.667Z</time>
      </trkpt>
      <trkpt lat="44.34512" lon="6.30217">
        <ele>1609.6658741424</ele>
        <time>2021-08-07T12:48:04.420Z</time>
      </trkpt>
      <trkpt lat="44.34511" lon="6.30222">
        <ele>1609.9197280436</ele>
        <time>2021-08-07T12:48:07.174Z</time>
      </trkpt>
      <trkpt lat="44.34506" lon="6.30274">
        <ele>1610.1757197647</ele>
        <time>2021-08-07T12:48:09.940Z</time>
      </trkpt>
      <trkpt lat="44.34502" lon="6.30289">
        <ele>1610.5470865302</ele>
        <time>2021-08-07T12:48:12.710Z</time>
      </trkpt>
      <trkpt lat="44.34491" lon="6.30311">
        <ele>1611.0720852621</ele>
        <time>2021-08-07T12:48:15.487Z</time>
      </trkpt>
      <trkpt lat="44.34486" lon="6.30337">
        <ele>1611.3647076401</ele>
        <time>2021-08-07T12:48:18.270Z</time>
      </trkpt>
      <trkpt lat="44.34487" lon="6.30352">
        <ele>1611.5223515408</ele>
        <time>2021-08-07T12:48:21.057Z</time>
      </trkpt>
      <trkpt lat="44.3448" lon="6.30394">
        <ele>1611.6869794542</ele>
        <time>2021-08-07T12:48:23.854Z</time>
      </trkpt>
      <trkpt lat="44.34478" lon="6.30425">
        <ele>1611.6278559428</ele>
        <time>2021-08-07T12:48:26.658Z</time>
      </trkpt>
      <trkpt lat="44.3447" lon="6.30454">
        <ele>1611.6711543634</ele>
        <time>2021-08-07T12:48:29.470Z</time>
      </trkpt>
      <trkpt lat="44.34457" lon="6.30483">
        <ele>1611.601986731</ele>
        <time>2021-08-07T12:48:32.290Z</time>
      </trkpt>
      <trkpt lat="44.34448" lon="6.30495">
        <ele>1611.7205870329</ele>
        <time>2021-08-07T12:48:35.114Z</time>
      </trkpt>
      <trkpt lat="44.34418" lon="6.30547">
        <ele>1611.7543969997</ele>
        <time>2021-08-07T12:48:37.954Z</time>
      </trkpt>
      <trkpt lat="44.34404" lon="6.30577">
        <ele>1611.4617161599</ele>
        <time>2021-08-07T12:48:40.803Z</time>
      </trkpt>
      <trkpt lat="44.34399" lon="6.3058">
        <ele>1611.5979170475</ele>
        <time>2021-08-07T12:48:43.653Z</time>
      </trkpt>
      <trkpt lat="44.34394" lon="6.30579">
        <ele>1611.834932793</ele>
        <time>2021-08-07T12:48:46.505Z</time>
      </trkpt>
      <trkpt lat="44.34358" lon="6.30561">
        <ele>1612.3154135498</ele>
        <time>2021-08-07T12:48:49.370Z</time>
      </trkpt>
      <trkpt lat="44.34317" lon="6.30528">
        <ele>1612.7849794622</ele>
        <time>2021-08-07T12:48:52.251Z</time>
      </trkpt>
      <trkpt lat="44.34296" lon="6.30517">
        <ele>1613.1296515126</ele>
        <time>2021-08-07T12:48:55.139Z</time>
      </trkpt>
      <trkpt lat="44.34273" lon="6.3052">
        <ele>1613.4466802891</ele>
        <time>2021-08-07T12:48:58.035Z</time>
      </trkpt>
      <trkpt lat="44.34264" lon="6.30517">
        <ele>1614.049162974</ele>
        <time>2021-08-07T12:49:00.934Z</time>
      </trkpt>
      <trkpt lat="44.34245" lon="6.30517">
        <ele>1614.6806802954</ele>
        <time>2021-08-07T12:49:03.839Z</time>
      </trkpt>
      <trkpt lat="44.34231" lon="6.30529">
        <ele>1615.3465450816</ele>
        <time>2021-08-07T12:49:06.750Z</time>
      </trkpt>
      <trkpt lat="44.34211" lon="6.30534">
        <ele>1616.1835222984</ele>
        <time>2021-08-07T12:49:09.668Z</time>
      </trkpt>
      <trkpt lat="44.34195" lon="6.30536">
        <ele>1617.0890464657</ele>
        <time>2021-08-07T12:49:12.591Z</time>
      </trkpt>
      <trkpt lat="44.34184" lon="6.30535">
        <ele>1618.06183676</ele>
        <time>2021-08-07T12:49:15.518Z</time>
      </trkpt>
      <trkpt lat="44.34162" lon="6.30526">
        <ele>1619.2035374281</ele>
        <time>2021-08-07T12:49:18.452Z</time>
      </trkpt>
      <trkpt lat="44.34137" lon="6.30529">
        <ele>1620.3934539446</ele>
        <time>2021-08-07T12:49:21.395Z</time>
      </trkpt>
      <trkpt lat="44.34114" lon="6.30522">
        <ele>1621.7522603927</ele>
        <time>2021-08-07T12:49:24.345Z</time>
      </trkpt>
      <trkpt lat="44.3411" lon="6.30522">
        <ele>1622.9435101828</ele>
        <time>2021-08-07T12:49:27.297Z</time>
      </trkpt>
      <trkpt lat="44.34098" lon="6.30528">
        <ele>1624.1047219652</ele>
        <time>2021-08-07T12:49:30.253Z</time>
      </trkpt>
      <trkpt lat="44.34088" lon="6.3053">
        <ele>1625.3469394996</ele>
        <time>2021-08-07T12:49:33.213Z</time>
      </trkpt>
      <trkpt lat="44.34074" lon="6.30525">
        <ele>1626.7333397135</ele>
        <time>2021-08-07T12:49:36.177Z</time>
      </trkpt>
      <trkpt lat="44.34042" lon="6.30509">
        <ele>1628.3872406222</ele>
        <time>2021-08-07T12:49:39.153Z</time>
      </trkpt>
      <trkpt lat="44.34029" lon="6.30508">
        <ele>1629.8425005688</ele>
        <time>2021-08-07T12:49:42.133Z</time>
      </trkpt>
      <trkpt lat="44.34022" lon="6.3051">
        <ele>1631.239756014</ele>
        <time>2021-08-07T12:49:45.115Z</time>
      </trkpt>
      <trkpt lat="44.34014" lon="6.30509">
        <ele>1632.6463748533</ele>
        <time>2021-08-07T12:49:48.100Z</time>
      </trkpt>
      <trkpt lat="44.33999" lon="6.30504">
        <ele>1634.0822188712</ele>
        <time>2021-08-07T12:49:51.090Z</time>
      </trkpt>
      <trkpt lat="44.33976" lon="6.30502">
        <ele>1635.4686218875</ele>
        <time>2021-08-07T12:49:54.088Z</time>
      </trkpt>
      <trkpt lat="44.33953" lon="6.30494">
        <ele>1637.0080054522</ele>
        <time>2021-08-07T12:49:57.094Z</time>
      </trkpt>
      <trkpt lat="44.33925" lon="6.30491">
        <ele>1638.4862340217</ele>
        <time>2021-08-07T12:50:00.109Z</time>
      </trkpt>
      <trkpt lat="44.33917" lon="6.30486">
        <ele>1640.0390587533</ele>
        <time>2021-08-07T12:50:03.127Z</time>
      </trkpt>
      <trkpt lat="44.33907" lon="6.30472">
        <ele>1641.7327228651</ele>
        <time>2021-08-07T12:50:06.150Z</time>
      </trkpt>
      <trkpt lat="44.3388" lon="6.30475">
        <ele>1643.0684028375</ele>
        <time>2021-08-07T12:50:09.182Z</time>
      </trkpt>
      <trkpt lat="44.33857" lon="6.3047">
        <ele>1644.6859921394</ele>
        <time>2021-08-07T12:50:12.222Z</time>
      </trkpt>
      <trkpt lat="44.33843" lon="6.30471">
        <ele>1646.1589833584</ele>
        <time>2021-08-07T12:50:15.266Z</time>
      </trkpt>
      <trkpt lat="44.33817" lon="6.30468">
        <ele>1647.6993831222</ele>
        <time>2021-08-07T12:50:18.319Z</time>
      </trkpt>
      <trkpt lat="44.33803" lon="6.30463">
        <ele>1649.1952856209</ele>
        <time>2021-08-07T12:50:21.377Z</time>
      </trkpt>
      <trkpt lat="44.33767" lon="6.30443">
        <ele>1650.8361060997</ele>
        <time>2021-08-07T12:50:24.448Z</time>
      </trkpt>
      <trkpt lat="44.33753" lon="6.3044">
        <ele>1652.1620161278</ele>
        <time>2021-08-07T12:50:27.523Z</time>
      </trkpt>
      <trkpt lat="44.33736" lon="6.30445">
        <ele>1653.3129246594</ele>
        <time>2021-08-07T12:50:30.604Z</time>
      </trkpt>
      <trkpt lat="44.33724" lon="6.30439">
        <ele>1654.7328420517</ele>
        <time>2021-08-07T12:50:33.689Z</time>
      </trkpt>
      <trkpt lat="44.33705" lon="6.30433">
        <ele>1656.0380646701</ele>
        <time>2021-08-07T12:50:36.781Z</time>
      </trkpt>
      <trkpt lat="44.33687" lon="6.30424">
        <ele>1657.3607386678</ele>
        <time>2021-08-07T12:50:39.879Z</time>
      </trkpt>
      <trkpt lat="44.33673" lon="6.30425">
        <ele>1658.5208979033</ele>
        <time>2021-08-07T12:50:42.982Z</time>
      </trkpt>
      <trkpt lat="44.33658" lon="6.30418">
        <ele>1659.8225614916</ele>
        <time>2021-08-07T12:50:46.090Z</time>
      </trkpt>
      <trkpt lat="44.33644" lon="6.30425">
        <ele>1660.9293414299</ele>
        <time>2021-08-07T12:50:49.203Z</time>
      </trkpt>
      <trkpt lat="44.33626" lon="6.3043">
        <ele>1662.0094691889</ele>
        <time>2021-08-07T12:50:52.322Z</time>
      </trkpt>
      <trkpt lat="44.33615" lon="6.30439">
        <ele>1663.0473129542</ele>
        <time>2021-08-07T12:50:55.446Z</time>
      </trkpt>
      <trkpt lat="44.33598" lon="6.30448">
        <ele>1664.0427864702</ele>
        <time>2021-08-07T12:50:58.576Z</time>
      </trkpt>
      <trkpt lat="44.3358" lon="6.30454">
        <ele>1665.0707405906</ele>
        <time>2021-08-07T12:51:01.712Z</time>
      </trkpt>
      <trkpt lat="44.33561" lon="6.30456">
        <ele>1666.1664369245</ele>
        <time>2021-08-07T12:51:04.854Z</time>
      </trkpt>
      <trkpt lat="44.33546" lon="6.30464">
        <ele>1667.124314975</ele>
        <time>2021-08-07T12:51:08.002Z</time>
      </trkpt>
      <trkpt lat="44.33527" lon="6.30476">
        <ele>1668.0410430257</ele>
        <time>2021-08-07T12:51:11.157Z</time>
      </trkpt>
      <trkpt lat="44.33514" lon="6.30477">
        <ele>1668.9714813268</ele>
        <time>2021-08-07T12:51:14.316Z</time>
      </trkpt>
      <trkpt lat="44.335" lon="6.30472">
        <ele>1670.0062939072</ele>
        <time>2021-08-07T12:51:17.480Z</time>
      </trkpt>
      <trkpt lat="44.33482" lon="6.30471">
        <ele>1670.8101898235</ele>
        <time>2021-08-07T12:51:20.650Z</time>
      </trkpt>
      <trkpt lat="44.33443" lon="6.30467">
        <ele>1671.5157105999</ele>
        <time>2021-08-07T12:51:23.833Z</time>
      </trkpt>
      <trkpt lat="44.33426" lon="6.30475">
        <ele>1672.2809013398</ele>
        <time>2021-08-07T12:51:27.022Z</time>
      </trkpt>
      <trkpt lat="44.33416" lon="6.30475">
        <ele>1673.0918722149</ele>
        <time>2021-08-07T12:51:30.214Z</time>
      </trkpt>
      <trkpt lat="44.33393" lon="6.3049">
        <ele>1673.833903778</ele>
        <time>2021-08-07T12:51:33.414Z</time>
      </trkpt>
      <trkpt lat="44.33377" lon="6.30497">
        <ele>1674.6165901801</ele>
        <time>2021-08-07T12:51:36.620Z</time>
      </trkpt>
      <trkpt lat="44.33365" lon="6.30509">
        <ele>1675.3065741307</ele>
        <time>2021-08-07T12:51:39.831Z</time>
      </trkpt>
      <trkpt lat="44.3334" lon="6.30517">
        <ele>1675.9924371269</ele>
        <time>2021-08-07T12:51:43.051Z</time>
      </trkpt>
      <trkpt lat="44.33323" lon="6.30519">
        <ele>1676.6245179545</ele>
        <time>2021-08-07T12:51:46.276Z</time>
      </trkpt>
      <trkpt lat="44.33312" lon="6.3051">
        <ele>1677.355821127</ele>
        <time>2021-08-07T12:51:49.506Z</time>
      </trkpt>
      <trkpt lat="44.333" lon="6.3049">
        <ele>1678.1946059585</ele>
        <time>2021-08-07T12:51:52.742Z</time>
      </trkpt>
      <trkpt lat="44.33287" lon="6.30479">
        <ele>1678.8584981308</ele>
        <time>2021-08-07T12:51:55.983Z</time>
      </trkpt>
      <trkpt lat="44.33276" lon="6.30472">
        <ele>1679.4121213119</ele>
        <time>2021-08-07T12:51:59.228Z</time>
      </trkpt>
      <trkpt lat="44.33264" lon="6.30473">
        <ele>1679.7807734575</ele>
        <time>2021-08-07T12:52:02.477Z</time>
      </trkpt>
      <trkpt lat="44.33242" lon="6.30452">
        <ele>1680.3188430574</ele>
        <time>2021-08-07T12:52:05.735Z</time>
      </trkpt>
      <trkpt lat="44.33224" lon="6.3044">
        <ele>1680.745602158</ele>
        <time>2021-08-07T12:52:08.999Z</time>
      </trkpt>
      <trkpt lat="44.3321" lon="6.30439">
        <ele>1681.054829052</ele>
        <time>2021-08-07T12:52:12.268Z</time>
      </trkpt>
      <trkpt lat="44.33187" lon="6.30441">
        <ele>1681.3119083351</ele>
        <time>2021-08-07T12:52:15.545Z</time>
      </trkpt>
      <trkpt lat="44.33154" lon="6.30451">
        <ele>1681.5996421045</ele>
        <time>2021-08-07T12:52:18.833Z</time>
      </trkpt>
      <trkpt lat="44.33145" lon="6.3045">
        <ele>1681.7587987732</ele>
        <time>2021-08-07T12:52:22.124Z</time>
      </trkpt>
      <trkpt lat="44.33131" lon="6.30446">
        <ele>1681.8499656967</ele>
        <time>2021-08-07T12:52:25.420Z</time>
      </trkpt>
      <trkpt lat="44.33075" lon="6.30422">
        <ele>1681.7045559115</ele>
        <time>2021-08-07T12:52:28.735Z</time>
      </trkpt>
      <trkpt lat="44.33075" lon="6.30418">
        <ele>1681.5217297255</ele>
        <time>2021-08-07T12:52:32.051Z</time>
      </trkpt>
      <trkpt lat="44.3308" lon="6.30415">
        <ele>1681.2652978375</ele>
        <time>2021-08-07T12:52:35.369Z</time>
      </trkpt>
      <trkpt lat="44.33079" lon="6.30409">
        <ele>1680.9155340168</ele>
        <time>2021-08-07T12:52:38.688Z</time>
      </trkpt>
      <trkpt lat="44.33077" lon="6.30391">
        <ele>1680.486644019</ele>
        <time>2021-08-07T12:52:42.012Z</time>
      </trkpt>
      <trkpt lat="44.33071" lon="6.30372">
        <ele>1679.9288575206</ele>
        <time>2021-08-07T12:52:45.341Z</time>
      </trkpt>
      <trkpt lat="44.33065" lon="6.30357">
        <ele>1679.2932987351</ele>
        <time>2021-08-07T12:52:48.674Z</time>
      </trkpt>
      <trkpt lat="44.33044" lon="6.30325">
        <ele>1678.4659077546</ele>
        <time>2021-08-07T12:52:52.017Z</time>
      </trkpt>
      <trkpt lat="44.33032" lon="6.30299">
        <ele>1677.7093534566</ele>
        <time>2021-08-07T12:52:55.367Z</time>
      </trkpt>
      <trkpt lat="44.33027" lon="6.30293">
        <ele>1676.9621565122</ele>
        <time>2021-08-07T12:52:58.720Z</time>
      </trkpt>
      <trkpt lat="44.33013" lon="6.30287">
        <ele>1676.179032838</ele>
        <time>2021-08-07T12:53:02.077Z</time>
      </trkpt>
      <trkpt lat="44.32995" lon="6.30284">
        <ele>1675.3443562796</ele>
        <time>2021-08-07T12:53:05.440Z</time>
      </trkpt>
      <trkpt lat="44.32972" lon="6.30284">
        <ele>1674.4925780773</ele>
        <time>2021-08-07T12:53:08.811Z</time>
      </trkpt>
      <trkpt lat="44.32953" lon="6.30289">
        <ele>1673.5721204365</ele>
        <time>2021-08-07T12:53:12.189Z</time>
      </trkpt>
      <trkpt lat="44.32927" lon="6.30286">
        <ele>1672.6246180892</ele>
        <time>2021-08-07T12:53:15.575Z</time>
      </trkpt>
      <trkpt lat="44.32908" lon="6.30278">
        <ele>1671.7508951955</ele>
        <time>2021-08-07T12:53:18.968Z</time>
      </trkpt>
      <trkpt lat="44.32888" lon="6.30264">
        <ele>1670.948371025</ele>
        <time>2021-08-07T12:53:22.368Z</time>
      </trkpt>
      <trkpt lat="44.32876" lon="6.30249">
        <ele>1670.1127971379</ele>
        <time>2021-08-07T12:53:25.774Z</time>
      </trkpt>
      <trkpt lat="44.32856" lon="6.30233">
        <ele>1669.2412835968</ele>
        <time>2021-08-07T12:53:29.188Z</time>
      </trkpt>
      <trkpt lat="44.32845" lon="6.30219">
        <ele>1668.3560300027</ele>
        <time>2021-08-07T12:53:32.606Z</time>
      </trkpt>
      <trkpt lat="44.32833" lon="6.30202">
        <ele>1667.4982336159</ele>
        <time>2021-08-07T12:53:36.030Z</time>
      </trkpt>
      <trkpt lat="44.32821" lon="6.30179">
        <ele>1666.6305930508</ele>
        <time>2021-08-07T12:53:39.461Z</time>
      </trkpt>
      <trkpt lat="44.32816" lon="6.30167">
        <ele>1665.8366580613</ele>
        <time>2021-08-07T12:53:42.895Z</time>
      </trkpt>
      <trkpt lat="44.32813" lon="6.30154">
        <ele>1665.0962140824</ele>
        <time>2021-08-07T12:53:46.332Z</time>
      </trkpt>
      <trkpt lat="44.32814" lon="6.30091">
        <ele>1664.2563208392</ele>
        <time>2021-08-07T12:53:49.785Z</time>
      </trkpt>
      <trkpt lat="44.3282" lon="6.30076">
        <ele>1663.6742278654</ele>
        <time>2021-08-07T12:53:53.242Z</time>
      </trkpt>
      <trkpt lat="44.32831" lon="6.30059">
        <ele>1663.2823944192</ele>
        <time>2021-08-07T12:53:56.704Z</time>
      </trkpt>
      <trkpt lat="44.32832" lon="6.30046">
        <ele>1662.9749011208</ele>
        <time>2021-08-07T12:54:00.169Z</time>
      </trkpt>
      <trkpt lat="44.32815" lon="6.30022">
        <ele>1662.8067593634</ele>
        <time>2021-08-07T12:54:03.642Z</time>
      </trkpt>
      <trkpt lat="44.32812" lon="6.3002">
        <ele>1662.7237405409</ele>
        <time>2021-08-07T12:54:07.116Z</time>
      </trkpt>
      <trkpt lat="44.32802" lon="6.30018">
        <ele>1662.7296903105</ele>
        <time>2021-08-07T12:54:10.594Z</time>
      </trkpt>
      <trkpt lat="44.32786" lon="6.30026">
        <ele>1662.8860152603</ele>
        <time>2021-08-07T12:54:14.077Z</time>
      </trkpt>
      <trkpt lat="44.3277" lon="6.30041">
        <ele>1663.1752683888</ele>
        <time>2021-08-07T12:54:17.567Z</time>
      </trkpt>
      <trkpt lat="44.3275" lon="6.30068">
        <ele>1663.6495014343</ele>
        <time>2021-08-07T12:54:21.066Z</time>
      </trkpt>
      <trkpt lat="44.32743" lon="6.3007">
        <ele>1664.309498026</ele>
        <time>2021-08-07T12:54:24.567Z</time>
      </trkpt>
      <trkpt lat="44.32738" lon="6.30069">
        <ele>1665.156852152</ele>
        <time>2021-08-07T12:54:28.070Z</time>
      </trkpt>
      <trkpt lat="44.32726" lon="6.30062">
        <ele>1666.2282024217</ele>
        <time>2021-08-07T12:54:31.578Z</time>
      </trkpt>
      <trkpt lat="44.32719" lon="6.30053">
        <ele>1667.4669195535</ele>
        <time>2021-08-07T12:54:35.089Z</time>
      </trkpt>
      <trkpt lat="44.32704" lon="6.3001">
        <ele>1669.0438288626</ele>
        <time>2021-08-07T12:54:38.611Z</time>
      </trkpt>
      <trkpt lat="44.32691" lon="6.29985">
        <ele>1670.594193507</ele>
        <time>2021-08-07T12:54:42.141Z</time>
      </trkpt>
      <trkpt lat="44.32691" lon="6.29963">
        <ele>1672.3158371477</ele>
        <time>2021-08-07T12:54:45.676Z</time>
      </trkpt>
      <trkpt lat="44.32699" lon="6.29939">
        <ele>1674.2938538793</ele>
        <time>2021-08-07T12:54:49.217Z</time>
      </trkpt>
      <trkpt lat="44.32694" lon="6.29927">
        <ele>1676.3417755179</ele>
        <time>2021-08-07T12:54:52.762Z</time>
      </trkpt>
      <trkpt lat="44.32683" lon="6.29927">
        <ele>1678.4941880006</ele>
        <time>2021-08-07T12:54:56.310Z</time>
      </trkpt>
      <trkpt lat="44.32675" lon="6.2993">
        <ele>1680.7688457917</ele>
        <time>2021-08-07T12:54:59.861Z</time>
      </trkpt>
      <trkpt lat="44.32635" lon="6.2996">
        <ele>1683.454785002</ele>
        <time>2021-08-07T12:55:03.427Z</time>
      </trkpt>
      <trkpt lat="44.32613" lon="6.29988">
        <ele>1686.2436989081</ele>
        <time>2021-08-07T12:55:07.003Z</time>
      </trkpt>
      <trkpt lat="44.32573" lon="6.30011">
        <ele>1689.2040796095</ele>
        <time>2021-08-07T12:55:10.594Z</time>
      </trkpt>
      <trkpt lat="44.32557" lon="6.30023">
        <ele>1691.9991359985</ele>
        <time>2021-08-07T12:55:14.191Z</time>
      </trkpt>
      <trkpt lat="44.32531" lon="6.3005">
        <ele>1694.7703868222</ele>
        <time>2021-08-07T12:55:17.798Z</time>
      </trkpt>
      <trkpt lat="44.32507" lon="6.3007">
        <ele>1697.8537009122</ele>
        <time>2021-08-07T12:55:21.415Z</time>
      </trkpt>
      <trkpt lat="44.32483" lon="6.301">
        <ele>1701.1174012572</ele>
        <time>2021-08-07T12:55:25.042Z</time>
      </trkpt>
      <trkpt lat="44.32438" lon="6.30146">
        <ele>1704.391726313</ele>
        <time>2021-08-07T12:55:28.688Z</time>
      </trkpt>
      <trkpt lat="44.32424" lon="6.30151">
        <ele>1707.5715274093</ele>
        <time>2021-08-07T12:55:32.339Z</time>
      </trkpt>
      <trkpt lat="44.32422" lon="6.30149">
        <ele>1710.7428431945</ele>
        <time>2021-08-07T12:55:35.991Z</time>
      </trkpt>
      <trkpt lat="44.32421" lon="6.30138">
        <ele>1713.9980930517</ele>
        <time>2021-08-07T12:55:39.645Z</time>
      </trkpt>
      <trkpt lat="44.32423" lon="6.30122">
        <ele>1717.2622497546</ele>
        <time>2021-08-07T12:55:43.303Z</time>
      </trkpt>
      <trkpt lat="44.32431" lon="6.30102">
        <ele>1720.5372256794</ele>
        <time>2021-08-07T12:55:46.967Z</time>
      </trkpt>
      <trkpt lat="44.3244" lon="6.30072">
        <ele>1723.8295210011</ele>
        <time>2021-08-07T12:55:50.639Z</time>
      </trkpt>
      <trkpt lat="44.32458" lon="6.3">
        <ele>1727.1716560489</ele>
        <time>2021-08-07T12:55:54.329Z</time>
      </trkpt>
      <trkpt lat="44.32498" lon="6.29908">
        <ele>1730.3827140106</ele>
        <time>2021-08-07T12:55:58.045Z</time>
      </trkpt>
      <trkpt lat="44.32514" lon="6.29862">
        <ele>1736.9429463502</ele>
        <time>2021-08-07T12:56:01.773Z</time>
      </trkpt>
      <trkpt lat="44.32528" lon="6.29806">
        <ele>1740.2363410282</ele>
        <time>2021-08-07T12:56:05.515Z</time>
      </trkpt>
      <trkpt lat="44.32547" lon="6.29688">
        <ele>1743.6798109057</ele>
        <time>2021-08-07T12:56:09.286Z</time>
      </trkpt>
      <trkpt lat="44.32551" lon="6.29636">
        <ele>1746.7904946396</ele>
        <time>2021-08-07T12:56:13.070Z</time>
      </trkpt>
      <trkpt lat="44.32562" lon="6.29553">
        <ele>1750.0083426575</ele>
        <time>2021-08-07T12:56:16.874Z</time>
      </trkpt>
      <trkpt lat="44.32561" lon="6.29534">
        <ele>1752.9264535384</ele>
        <time>2021-08-07T12:56:20.682Z</time>
      </trkpt>
      <trkpt lat="44.3258" lon="6.29464">
        <ele>1756.1068703051</ele>
        <time>2021-08-07T12:56:24.508Z</time>
      </trkpt>
      <trkpt lat="44.32591" lon="6.29413">
        <ele>1758.9523202117</ele>
        <time>2021-08-07T12:56:28.347Z</time>
      </trkpt>
      <trkpt lat="44.3259" lon="6.2939">
        <ele>1761.451209122</ele>
        <time>2021-08-07T12:56:32.191Z</time>
      </trkpt>
      <trkpt lat="44.32584" lon="6.29355">
        <ele>1763.7450485785</ele>
        <time>2021-08-07T12:56:36.044Z</time>
      </trkpt>
      <trkpt lat="44.32584" lon="6.29337">
        <ele>1765.7023878486</ele>
        <time>2021-08-07T12:56:39.901Z</time>
      </trkpt>
      <trkpt lat="44.32586" lon="6.29328">
        <ele>1767.4276609371</ele>
        <time>2021-08-07T12:56:43.761Z</time>
      </trkpt>
      <trkpt lat="44.32594" lon="6.29316">
        <ele>1768.9097695425</ele>
        <time>2021-08-07T12:56:47.625Z</time>
      </trkpt>
      <trkpt lat="44.32596" lon="6.29309">
        <ele>1770.2058317292</ele>
        <time>2021-08-07T12:56:51.490Z</time>
      </trkpt>
      <trkpt lat="44.32594" lon="6.29264">
        <ele>1771.1808402385</ele>
        <time>2021-08-07T12:56:55.366Z</time>
      </trkpt>
      <trkpt lat="44.32582" lon="6.29134">
        <ele>1771.9865009053</ele>
        <time>2021-08-07T12:56:59.274Z</time>
      </trkpt>
      <trkpt lat="44.32578" lon="6.29061">
        <ele>1772.4913124666</ele>
        <time>2021-08-07T12:57:03.199Z</time>
      </trkpt>
      <trkpt lat="44.32575" lon="6.2903">
        <ele>1772.8897143615</ele>
        <time>2021-08-07T12:57:07.131Z</time>
      </trkpt>
      <trkpt lat="44.3257" lon="6.29014">
        <ele>1773.1829148702</ele>
        <time>2021-08-07T12:57:11.068Z</time>
      </trkpt>
      <trkpt lat="44.32532" lon="6.28942">
        <ele>1773.3002262632</ele>
        <time>2021-08-07T12:57:15.026Z</time>
      </trkpt>
      <trkpt lat="44.32497" lon="6.28856">
        <ele>1773.6086044574</ele>
        <time>2021-08-07T12:57:19.008Z</time>
      </trkpt>
      <trkpt lat="44.32448" lon="6.28757">
        <ele>1773.8114885464</ele>
        <time>2021-08-07T12:57:23.019Z</time>
      </trkpt>
      <trkpt lat="44.32443" lon="6.28743">
        <ele>1773.5492790808</ele>
        <time>2021-08-07T12:57:27.033Z</time>
      </trkpt>
      <trkpt lat="44.32443" lon="6.28734">
        <ele>1773.1490169629</ele>
        <time>2021-08-07T12:57:31.049Z</time>
      </trkpt>
      <trkpt lat="44.32446" lon="6.28734">
        <ele>1772.6577835078</ele>
        <time>2021-08-07T12:57:35.067Z</time>
      </trkpt>
      <trkpt lat="44.32448" lon="6.28754">
        <ele>1772.0573108295</ele>
        <time>2021-08-07T12:57:39.090Z</time>
      </trkpt>
      <trkpt lat="44.32453" lon="6.28769">
        <ele>1771.2974566275</ele>
        <time>2021-08-07T12:57:43.117Z</time>
      </trkpt>
      <trkpt lat="44.32492" lon="6.28852">
        <ele>1770.142941415</ele>
        <time>2021-08-07T12:57:47.167Z</time>
      </trkpt>
      <trkpt lat="44.32532" lon="6.28944">
        <ele>1768.9078282053</ele>
        <time>2021-08-07T12:57:51.243Z</time>
      </trkpt>
      <trkpt lat="44.32556" lon="6.28992">
        <ele>1767.8252216543</ele>
        <time>2021-08-07T12:57:55.333Z</time>
      </trkpt>
      <trkpt lat="44.3257" lon="6.2901">
        <ele>1766.8024006248</ele>
        <time>2021-08-07T12:57:59.429Z</time>
      </trkpt>
      <trkpt lat="44.32575" lon="6.29013">
        <ele>1765.6213159814</ele>
        <time>2021-08-07T12:58:03.527Z</time>
      </trkpt>
      <trkpt lat="44.32605" lon="6.29013">
        <ele>1764.4837130548</ele>
        <time>2021-08-07T12:58:07.635Z</time>
      </trkpt>
      <trkpt lat="44.32619" lon="6.29023">
        <ele>1763.1950233446</ele>
        <time>2021-08-07T12:58:11.749Z</time>
      </trkpt>
      <trkpt lat="44.32639" lon="6.29042">
        <ele>1761.7544593713</ele>
        <time>2021-08-07T12:58:15.871Z</time>
      </trkpt>
      <trkpt lat="44.3266" lon="6.29066">
        <ele>1760.0425873117</ele>
        <time>2021-08-07T12:58:20.002Z</time>
      </trkpt>
      <trkpt lat="44.32664" lon="6.29073">
        <ele>1758.4950258827</ele>
        <time>2021-08-07T12:58:24.135Z</time>
      </trkpt>
      <trkpt lat="44.32671" lon="6.29089">
        <ele>1756.9054167545</ele>
        <time>2021-08-07T12:58:28.272Z</time>
      </trkpt>
      <trkpt lat="44.32675" lon="6.29105">
        <ele>1755.330249407</ele>
        <time>2021-08-07T12:58:32.413Z</time>
      </trkpt>
      <trkpt lat="44.32679" lon="6.29111">
        <ele>1753.7750373522</ele>
        <time>2021-08-07T12:58:36.556Z</time>
      </trkpt>
      <trkpt lat="44.32681" lon="6.29112">
        <ele>1752.1781271722</ele>
        <time>2021-08-07T12:58:40.700Z</time>
      </trkpt>
      <trkpt lat="44.32686" lon="6.29091">
        <ele>1750.4997129973</ele>
        <time>2021-08-07T12:58:44.849Z</time>
      </trkpt>
      <trkpt lat="44.32695" lon="6.29069">
        <ele>1748.8814759563</ele>
        <time>2021-08-07T12:58:49.004Z</time>
      </trkpt>
      <trkpt lat="44.32717" lon="6.29029">
        <ele>1747.0518865849</ele>
        <time>2021-08-07T12:58:53.171Z</time>
      </trkpt>
      <trkpt lat="44.32729" lon="6.28987">
        <ele>1745.3048291305</ele>
        <time>2021-08-07T12:58:57.349Z</time>
      </trkpt>
      <trkpt lat="44.32728" lon="6.28973">
        <ele>1743.6770727718</ele>
        <time>2021-08-07T12:59:01.530Z</time>
      </trkpt>
      <trkpt lat="44.32722" lon="6.28954">
        <ele>1742.0245048499</ele>
        <time>2021-08-07T12:59:05.716Z</time>
      </trkpt>
      <trkpt lat="44.32719" lon="6.28945">
        <ele>1740.456173701</ele>
        <time>2021-08-07T12:59:09.905Z</time>
      </trkpt>
      <trkpt lat="44.32711" lon="6.28935">
        <ele>1738.9057534469</ele>
        <time>2021-08-07T12:59:14.097Z</time>
      </trkpt>
      <trkpt lat="44.32708" lon="6.28924">
        <ele>1737.384667436</ele>
        <time>2021-08-07T12:59:18.292Z</time>
      </trkpt>
      <trkpt lat="44.32708" lon="6.2892">
        <ele>1735.952302572</ele>
        <time>2021-08-07T12:59:22.488Z</time>
      </trkpt>
      <trkpt lat="44.32712" lon="6.2891">
        <ele>1734.5214731619</ele>
        <time>2021-08-07T12:59:26.687Z</time>
      </trkpt>
      <trkpt lat="44.32729" lon="6.28894">
        <ele>1733.1548288403</ele>
        <time>2021-08-07T12:59:30.893Z</time>
      </trkpt>
      <trkpt lat="44.32748" lon="6.28893">
        <ele>1731.9517780423</ele>
        <time>2021-08-07T12:59:35.105Z</time>
      </trkpt>
      <trkpt lat="44.32754" lon="6.28891">
        <ele>1730.703690305</ele>
        <time>2021-08-07T12:59:39.319Z</time>
      </trkpt>
      <trkpt lat="44.32764" lon="6.28882">
        <ele>1729.4519104573</ele>
        <time>2021-08-07T12:59:43.537Z</time>
      </trkpt>
      <trkpt lat="44.32793" lon="6.28847">
        <ele>1728.081951528</ele>
        <time>2021-08-07T12:59:47.768Z</time>
      </trkpt>
      <trkpt lat="44.32805" lon="6.28829">
        <ele>1726.8890678568</ele>
        <time>2021-08-07T12:59:52.004Z</time>
      </trkpt>
      <trkpt lat="44.32817" lon="6.28791">
        <ele>1725.7957769893</ele>
        <time>2021-08-07T12:59:56.251Z</time>
      </trkpt>
      <trkpt lat="44.32818" lon="6.28783">
        <ele>1724.7760514229</ele>
        <time>2021-08-07T13:00:00.499Z</time>
      </trkpt>
      <trkpt lat="44.32813" lon="6.28767">
        <ele>1723.7349187954</ele>
        <time>2021-08-07T13:00:04.752Z</time>
      </trkpt>
      <trkpt lat="44.32793" lon="6.28742">
        <ele>1722.6069080763</ele>
        <time>2021-08-07T13:00:09.014Z</time>
      </trkpt>
      <trkpt lat="44.32783" lon="6.28727">
        <ele>1721.5861927489</ele>
        <time>2021-08-07T13:00:13.280Z</time>
      </trkpt>
      <trkpt lat="44.3278" lon="6.28713">
        <ele>1720.6501073582</ele>
        <time>2021-08-07T13:00:17.550Z</time>
      </trkpt>
      <trkpt lat="44.32784" lon="6.28702">
        <ele>1719.7892932337</ele>
        <time>2021-08-07T13:00:21.823Z</time>
      </trkpt>
      <trkpt lat="44.328" lon="6.28684">
        <ele>1718.9437438927</ele>
        <time>2021-08-07T13:00:26.103Z</time>
      </trkpt>
      <trkpt lat="44.32816" lon="6.28672">
        <ele>1718.1285945384</ele>
        <time>2021-08-07T13:00:30.389Z</time>
      </trkpt>
      <trkpt lat="44.32843" lon="6.28663">
        <ele>1717.3076765066</ele>
        <time>2021-08-07T13:00:34.684Z</time>
      </trkpt>
      <trkpt lat="44.32856" lon="6.28662">
        <ele>1716.4572112506</ele>
        <time>2021-08-07T13:00:38.983Z</time>
      </trkpt>
      <trkpt lat="44.32867" lon="6.28668">
        <ele>1715.5901793884</ele>
        <time>2021-08-07T13:00:43.286Z</time>
      </trkpt>
      <trkpt lat="44.32879" lon="6.28693">
        <ele>1714.927302267</ele>
        <time>2021-08-07T13:00:47.597Z</time>
      </trkpt>
      <trkpt lat="44.32883" lon="6.28697">
        <ele>1714.0341936783</ele>
        <time>2021-08-07T13:00:51.909Z</time>
      </trkpt>
      <trkpt lat="44.32905" lon="6.28707">
        <ele>1713.0953114332</ele>
        <time>2021-08-07T13:00:56.229Z</time>
      </trkpt>
      <trkpt lat="44.32919" lon="6.28711">
        <ele>1712.2171045388</ele>
        <time>2021-08-07T13:01:00.554Z</time>
      </trkpt>
      <trkpt lat="44.32922" lon="6.28709">
        <ele>1711.2315074156</ele>
        <time>2021-08-07T13:01:04.880Z</time>
      </trkpt>
      <trkpt lat="44.32925" lon="6.28702">
        <ele>1710.1608275854</ele>
        <time>2021-08-07T13:01:09.208Z</time>
      </trkpt>
      <trkpt lat="44.32921" lon="6.28677">
        <ele>1708.8479131495</ele>
        <time>2021-08-07T13:01:13.542Z</time>
      </trkpt>
      <trkpt lat="44.32919" lon="6.28649">
        <ele>1707.4681806813</ele>
        <time>2021-08-07T13:01:17.883Z</time>
      </trkpt>
      <trkpt lat="44.32931" lon="6.28611">
        <ele>1706.1140613487</ele>
        <time>2021-08-07T13:01:22.234Z</time>
      </trkpt>
      <trkpt lat="44.32932" lon="6.28579">
        <ele>1704.6475693523</ele>
        <time>2021-08-07T13:01:26.592Z</time>
      </trkpt>
      <trkpt lat="44.32919" lon="6.2851">
        <ele>1703.0248726645</ele>
        <time>2021-08-07T13:01:30.967Z</time>
      </trkpt>
      <trkpt lat="44.32918" lon="6.28496">
        <ele>1701.5555964472</ele>
        <time>2021-08-07T13:01:35.346Z</time>
      </trkpt>
      <trkpt lat="44.32919" lon="6.28474">
        <ele>1700.004088126</ele>
        <time>2021-08-07T13:01:39.730Z</time>
      </trkpt>
      <trkpt lat="44.32924" lon="6.28459">
        <ele>1698.4652471616</ele>
        <time>2021-08-07T13:01:44.118Z</time>
      </trkpt>
      <trkpt lat="44.32945" lon="6.28426">
        <ele>1696.828873292</ele>
        <time>2021-08-07T13:01:48.516Z</time>
      </trkpt>
      <trkpt lat="44.32971" lon="6.28391">
        <ele>1695.1641230123</ele>
        <time>2021-08-07T13:01:52.926Z</time>
      </trkpt>
      <trkpt lat="44.32975" lon="6.28383">
        <ele>1693.5089631864</ele>
        <time>2021-08-07T13:01:57.339Z</time>
      </trkpt>
      <trkpt lat="44.32975" lon="6.2838">
        <ele>1691.8185846835</ele>
        <time>2021-08-07T13:02:01.753Z</time>
      </trkpt>
      <trkpt lat="44.32971" lon="6.28378">
        <ele>1690.0643036268</ele>
        <time>2021-08-07T13:02:06.168Z</time>
      </trkpt>
      <trkpt lat="44.32953" lon="6.28386">
        <ele>1688.2619823837</ele>
        <time>2021-08-07T13:02:10.589Z</time>
      </trkpt>
      <trkpt lat="44.32929" lon="6.28403">
        <ele>1686.4121382549</ele>
        <time>2021-08-07T13:02:15.019Z</time>
      </trkpt>
      <trkpt lat="44.32917" lon="6.28416">
        <ele>1684.5520365424</ele>
        <time>2021-08-07T13:02:19.454Z</time>
      </trkpt>
      <trkpt lat="44.32893" lon="6.28431">
        <ele>1682.5843109619</ele>
        <time>2021-08-07T13:02:23.898Z</time>
      </trkpt>
      <trkpt lat="44.32841" lon="6.28429">
        <ele>1680.4005863736</ele>
        <time>2021-08-07T13:02:28.359Z</time>
      </trkpt>
      <trkpt lat="44.32773" lon="6.28444">
        <ele>1678.1850515993</ele>
        <time>2021-08-07T13:02:32.843Z</time>
      </trkpt>
      <trkpt lat="44.32757" lon="6.28435">
        <ele>1676.2099379012</ele>
        <time>2021-08-07T13:02:37.333Z</time>
      </trkpt>
      <trkpt lat="44.32739" lon="6.2843">
        <ele>1674.2612606644</ele>
        <time>2021-08-07T13:02:41.829Z</time>
      </trkpt>
      <trkpt lat="44.32712" lon="6.28414">
        <ele>1672.3123910511</ele>
        <time>2021-08-07T13:02:46.335Z</time>
      </trkpt>
      <trkpt lat="44.32651" lon="6.28393">
        <ele>1670.1490976827</ele>
        <time>2021-08-07T13:02:50.862Z</time>
      </trkpt>
      <trkpt lat="44.32629" lon="6.28392">
        <ele>1668.120843437</ele>
        <time>2021-08-07T13:02:55.396Z</time>
      </trkpt>
      <trkpt lat="44.32614" lon="6.28393">
        <ele>1666.1586594241</ele>
        <time>2021-08-07T13:02:59.935Z</time>
      </trkpt>
      <trkpt lat="44.32553" lon="6.284">
        <ele>1664.0398180628</ele>
        <time>2021-08-07T13:03:04.495Z</time>
      </trkpt>
      <trkpt lat="44.32519" lon="6.28399">
        <ele>1661.9447744481</ele>
        <time>2021-08-07T13:03:09.066Z</time>
      </trkpt>
      <trkpt lat="44.32485" lon="6.28403">
        <ele>1659.9991859484</ele>
        <time>2021-08-07T13:03:13.649Z</time>
      </trkpt>
      <trkpt lat="44.32428" lon="6.28406">
        <ele>1658.0586960825</ele>
        <time>2021-08-07T13:03:18.251Z</time>
      </trkpt>
      <trkpt lat="44.32417" lon="6.28403">
        <ele>1656.1453413204</ele>
        <time>2021-08-07T13:03:22.856Z</time>
      </trkpt>
      <trkpt lat="44.32395" lon="6.28393">
        <ele>1654.1807625404</ele>
        <time>2021-08-07T13:03:27.469Z</time>
      </trkpt>
      <trkpt lat="44.32336" lon="6.28356">
        <ele>1652.1892439041</ele>
        <time>2021-08-07T13:03:32.104Z</time>
      </trkpt>
      <trkpt lat="44.3232" lon="6.28349">
        <ele>1650.3782564345</ele>
        <time>2021-08-07T13:03:36.744Z</time>
      </trkpt>
      <trkpt lat="44.32307" lon="6.28346">
        <ele>1648.6108210272</ele>
        <time>2021-08-07T13:03:41.389Z</time>
      </trkpt>
      <trkpt lat="44.32288" lon="6.28348">
        <ele>1646.865371193</ele>
        <time>2021-08-07T13:03:46.040Z</time>
      </trkpt>
      <trkpt lat="44.32227" lon="6.28361">
        <ele>1645.089191896</ele>
        <time>2021-08-07T13:03:50.711Z</time>
      </trkpt>
      <trkpt lat="44.32202" lon="6.28362">
        <ele>1643.2837287854</ele>
        <time>2021-08-07T13:03:55.391Z</time>
      </trkpt>
      <trkpt lat="44.32163" lon="6.28367">
        <ele>1641.551967384</ele>
        <time>2021-08-07T13:04:00.084Z</time>
      </trkpt>
      <trkpt lat="44.32104" lon="6.28364">
        <ele>1639.8835822369</ele>
        <time>2021-08-07T13:04:04.797Z</time>
      </trkpt>
      <trkpt lat="44.32083" lon="6.28368">
        <ele>1638.4419990732</ele>
        <time>2021-08-07T13:04:09.516Z</time>
      </trkpt>
      <trkpt lat="44.32055" lon="6.28377">
        <ele>1637.057939527</ele>
        <time>2021-08-07T13:04:14.245Z</time>
      </trkpt>
      <trkpt lat="44.32007" lon="6.28382">
        <ele>1635.7262519393</ele>
        <time>2021-08-07T13:04:18.990Z</time>
      </trkpt>
      <trkpt lat="44.31956" lon="6.28392">
        <ele>1634.5528837432</ele>
        <time>2021-08-07T13:04:23.752Z</time>
      </trkpt>
      <trkpt lat="44.31934" lon="6.28394">
        <ele>1633.5122017881</ele>
        <time>2021-08-07T13:04:28.522Z</time>
      </trkpt>
      <trkpt lat="44.31901" lon="6.28412">
        <ele>1632.5922769582</ele>
        <time>2021-08-07T13:04:33.303Z</time>
      </trkpt>
      <trkpt lat="44.31891" lon="6.28415">
        <ele>1631.852547909</ele>
        <time>2021-08-07T13:04:38.088Z</time>
      </trkpt>
      <trkpt lat="44.31872" lon="6.28418">
        <ele>1631.2660166029</ele>
        <time>2021-08-07T13:04:42.879Z</time>
      </trkpt>
      <trkpt lat="44.31837" lon="6.28407">
        <ele>1630.6861439628</ele>
        <time>2021-08-07T13:04:47.683Z</time>
      </trkpt>
      <trkpt lat="44.3177" lon="6.284">
        <ele>1630.2183273695</ele>
        <time>2021-08-07T13:04:52.509Z</time>
      </trkpt>
      <trkpt lat="44.31761" lon="6.28396">
        <ele>1630.030791557</ele>
        <time>2021-08-07T13:04:57.338Z</time>
      </trkpt>
      <trkpt lat="44.31754" lon="6.28387">
        <ele>1629.9895710169</ele>
        <time>2021-08-07T13:05:02.170Z</time>
      </trkpt>
      <trkpt lat="44.3175" lon="6.28386">
        <ele>1630.0659571714</ele>
        <time>2021-08-07T13:05:07.003Z</time>
      </trkpt>
      <trkpt lat="44.31728" lon="6.28392">
        <ele>1630.2213084985</ele>
        <time>2021-08-07T13:05:11.844Z</time>
      </trkpt>
      <trkpt lat="44.31723" lon="6.28387">
        <ele>1630.6004445099</ele>
        <time>2021-08-07T13:05:16.687Z</time>
      </trkpt>
      <trkpt lat="44.31724" lon="6.28382">
        <ele>1631.1215713988</ele>
        <time>2021-08-07T13:05:21.531Z</time>
      </trkpt>
      <trkpt lat="44.3174" lon="6.28374">
        <ele>1631.8464842944</ele>
        <time>2021-08-07T13:05:26.381Z</time>
      </trkpt>
      <trkpt lat="44.31748" lon="6.28365">
        <ele>1632.6444904149</ele>
        <time>2021-08-07T13:05:31.234Z</time>
      </trkpt>
      <trkpt lat="44.31752" lon="6.28353">
        <ele>1633.573373016</ele>
        <time>2021-08-07T13:05:36.090Z</time>
      </trkpt>
      <trkpt lat="44.31756" lon="6.28332">
        <ele>1634.7200740524</ele>
        <time>2021-08-07T13:05:40.952Z</time>
      </trkpt>
      <trkpt lat="44.31761" lon="6.2832">
        <ele>1635.8574996697</ele>
        <time>2021-08-07T13:05:45.817Z</time>
      </trkpt>
      <trkpt lat="44.31769" lon="6.28314">
        <ele>1636.9768191064</ele>
        <time>2021-08-07T13:05:50.685Z</time>
      </trkpt>
      <trkpt lat="44.31785" lon="6.28307">
        <ele>1638.1759275292</ele>
        <time>2021-08-07T13:05:55.559Z</time>
      </trkpt>
      <trkpt lat="44.318" lon="6.28285">
        <ele>1639.6362534399</ele>
        <time>2021-08-07T13:06:00.440Z</time>
      </trkpt>
      <trkpt lat="44.31808" lon="6.28268">
        <ele>1641.2090734885</ele>
        <time>2021-08-07T13:06:05.326Z</time>
      </trkpt>
      <trkpt lat="44.31819" lon="6.28248">
        <ele>1642.7858747316</ele>
        <time>2021-08-07T13:06:10.218Z</time>
      </trkpt>
      <trkpt lat="44.31831" lon="6.28234">
        <ele>1644.3383883952</ele>
        <time>2021-08-07T13:06:15.115Z</time>
      </trkpt>
      <trkpt lat="44.31836" lon="6.28224">
        <ele>1645.9991467583</ele>
        <time>2021-08-07T13:06:20.015Z</time>
      </trkpt>
      <trkpt lat="44.31842" lon="6.28206">
        <ele>1647.71794889</ele>
        <time>2021-08-07T13:06:24.920Z</time>
      </trkpt>
      <trkpt lat="44.31848" lon="6.28193">
        <ele>1649.4093295297</ele>
        <time>2021-08-07T13:06:29.829Z</time>
      </trkpt>
      <trkpt lat="44.31853" lon="6.28174">
        <ele>1651.2300759124</ele>
        <time>2021-08-07T13:06:34.742Z</time>
      </trkpt>
      <trkpt lat="44.31853" lon="6.28131">
        <ele>1653.1944346997</ele>
        <time>2021-08-07T13:06:39.666Z</time>
      </trkpt>
      <trkpt lat="44.31862" lon="6.2808">
        <ele>1655.1959672049</ele>
        <time>2021-08-07T13:06:44.602Z</time>
      </trkpt>
      <trkpt lat="44.31863" lon="6.28024">
        <ele>1657.3018330499</ele>
        <time>2021-08-07T13:06:49.552Z</time>
      </trkpt>
      <trkpt lat="44.31859" lon="6.28001">
        <ele>1659.2889634379</ele>
        <time>2021-08-07T13:06:54.507Z</time>
      </trkpt>
      <trkpt lat="44.31863" lon="6.27984">
        <ele>1661.0300070066</ele>
        <time>2021-08-07T13:06:59.467Z</time>
      </trkpt>
      <trkpt lat="44.31871" lon="6.27964">
        <ele>1662.6900748454</ele>
        <time>2021-08-07T13:07:04.432Z</time>
      </trkpt>
      <trkpt lat="44.31869" lon="6.27961">
        <ele>1664.5810668446</ele>
        <time>2021-08-07T13:07:09.398Z</time>
      </trkpt>
      <trkpt lat="44.31852" lon="6.27981">
        <ele>1666.7977025638</ele>
        <time>2021-08-07T13:07:14.371Z</time>
      </trkpt>
      <trkpt lat="44.31845" lon="6.27997">
        <ele>1668.7982337256</ele>
        <time>2021-08-07T13:07:19.349Z</time>
      </trkpt>
      <trkpt lat="44.31835" lon="6.28034">
        <ele>1670.7145070863</ele>
        <time>2021-08-07T13:07:24.337Z</time>
      </trkpt>
      <trkpt lat="44.31835" lon="6.28046">
        <ele>1672.3866135523</ele>
        <time>2021-08-07T13:07:29.327Z</time>
      </trkpt>
      <trkpt lat="44.31832" lon="6.28055">
        <ele>1674.0898636222</ele>
        <time>2021-08-07T13:07:34.320Z</time>
      </trkpt>
      <trkpt lat="44.31805" lon="6.28109">
        <ele>1675.8110616771</ele>
        <time>2021-08-07T13:07:39.329Z</time>
      </trkpt>
      <trkpt lat="44.31775" lon="6.28147">
        <ele>1677.5433120055</ele>
        <time>2021-08-07T13:07:44.351Z</time>
      </trkpt>
      <trkpt lat="44.31772" lon="6.28149">
        <ele>1679.100418676</ele>
        <time>2021-08-07T13:07:49.374Z</time>
      </trkpt>
      <trkpt lat="44.31769" lon="6.28149">
        <ele>1680.5897538601</ele>
        <time>2021-08-07T13:07:54.398Z</time>
      </trkpt>
      <trkpt lat="44.31767" lon="6.28144">
        <ele>1682.0433921236</ele>
        <time>2021-08-07T13:07:59.424Z</time>
      </trkpt>
      <trkpt lat="44.31779" lon="6.28099">
        <ele>1683.4426220923</ele>
        <time>2021-08-07T13:08:04.461Z</time>
      </trkpt>
      <trkpt lat="44.31783" lon="6.28061">
        <ele>1684.7786232006</ele>
        <time>2021-08-07T13:08:09.507Z</time>
      </trkpt>
      <trkpt lat="44.31782" lon="6.28015">
        <ele>1686.1031591002</ele>
        <time>2021-08-07T13:08:14.564Z</time>
      </trkpt>
      <trkpt lat="44.31783" lon="6.27961">
        <ele>1687.2637639585</ele>
        <time>2021-08-07T13:08:19.634Z</time>
      </trkpt>
      <trkpt lat="44.3178" lon="6.27921">
        <ele>1688.5472499958</ele>
        <time>2021-08-07T13:08:24.714Z</time>
      </trkpt>
      <trkpt lat="44.3178" lon="6.27892">
        <ele>1689.5255997018</ele>
        <time>2021-08-07T13:08:29.801Z</time>
      </trkpt>
      <trkpt lat="44.31772" lon="6.27844">
        <ele>1690.3682569367</ele>
        <time>2021-08-07T13:08:34.900Z</time>
      </trkpt>
      <trkpt lat="44.31748" lon="6.27774">
        <ele>1691.0091906828</ele>
        <time>2021-08-07T13:08:40.017Z</time>
      </trkpt>
      <trkpt lat="44.31749" lon="6.27739">
        <ele>1691.6824953858</ele>
        <time>2021-08-07T13:08:45.143Z</time>
      </trkpt>
      <trkpt lat="44.31747" lon="6.27724">
        <ele>1692.2873917572</ele>
        <time>2021-08-07T13:08:50.272Z</time>
      </trkpt>
      <trkpt lat="44.31741" lon="6.27714">
        <ele>1692.7944810994</ele>
        <time>2021-08-07T13:08:55.404Z</time>
      </trkpt>
      <trkpt lat="44.31733" lon="6.2771">
        <ele>1693.2172096872</ele>
        <time>2021-08-07T13:09:00.539Z</time>
      </trkpt>
      <trkpt lat="44.31726" lon="6.2771">
        <ele>1693.6060317015</ele>
        <time>2021-08-07T13:09:05.677Z</time>
      </trkpt>
      <trkpt lat="44.31687" lon="6.27716">
        <ele>1693.7817161383</ele>
        <time>2021-08-07T13:09:10.828Z</time>
      </trkpt>
      <trkpt lat="44.31618" lon="6.27711">
        <ele>1694.103149382</ele>
        <time>2021-08-07T13:09:16.002Z</time>
      </trkpt>
      <trkpt lat="44.31676" lon="6.27718">
        <ele>1694.6126054006</ele>
        <time>2021-08-07T13:09:21.195Z</time>
      </trkpt>
      <trkpt lat="44.31687" lon="6.27717">
        <ele>1695.0493806209</ele>
        <time>2021-08-07T13:09:26.392Z</time>
      </trkpt>
      <trkpt lat="44.31694" lon="6.27711">
        <ele>1695.5604901047</ele>
        <time>2021-08-07T13:09:31.591Z</time>
      </trkpt>
      <trkpt lat="44.31695" lon="6.27703">
        <ele>1696.0971895183</ele>
        <time>2021-08-07T13:09:36.792Z</time>
      </trkpt>
      <trkpt lat="44.31722" lon="6.27651">
        <ele>1696.8198596122</ele>
        <time>2021-08-07T13:09:42.009Z</time>
      </trkpt>
      <trkpt lat="44.31732" lon="6.2765">
        <ele>1697.507951452</ele>
        <time>2021-08-07T13:09:47.229Z</time>
      </trkpt>
      <trkpt lat="44.31745" lon="6.27646">
        <ele>1698.244922032</ele>
        <time>2021-08-07T13:09:52.453Z</time>
      </trkpt>
      <trkpt lat="44.31755" lon="6.27645">
        <ele>1698.9248729197</ele>
        <time>2021-08-07T13:09:57.681Z</time>
      </trkpt>
      <trkpt lat="44.31762" lon="6.27647">
        <ele>1699.6849210034</ele>
        <time>2021-08-07T13:10:02.911Z</time>
      </trkpt>
      <trkpt lat="44.31769" lon="6.27645">
        <ele>1700.5314995706</ele>
        <time>2021-08-07T13:10:08.143Z</time>
      </trkpt>
      <trkpt lat="44.31772" lon="6.27642">
        <ele>1701.4101353618</ele>
        <time>2021-08-07T13:10:13.377Z</time>
      </trkpt>
      <trkpt lat="44.31774" lon="6.27633">
        <ele>1702.3740755855</ele>
        <time>2021-08-07T13:10:18.613Z</time>
      </trkpt>
      <trkpt lat="44.31771" lon="6.27627">
        <ele>1703.3329593487</ele>
        <time>2021-08-07T13:10:23.851Z</time>
      </trkpt>
      <trkpt lat="44.31763" lon="6.2762">
        <ele>1704.3001959096</ele>
        <time>2021-08-07T13:10:29.092Z</time>
      </trkpt>
      <trkpt lat="44.31767" lon="6.27603">
        <ele>1705.5475446436</ele>
        <time>2021-08-07T13:10:34.337Z</time>
      </trkpt>
      <trkpt lat="44.31772" lon="6.27592">
        <ele>1706.8526151785</ele>
        <time>2021-08-07T13:10:39.585Z</time>
      </trkpt>
      <trkpt lat="44.31783" lon="6.27576">
        <ele>1708.3130822101</ele>
        <time>2021-08-07T13:10:44.838Z</time>
      </trkpt>
      <trkpt lat="44.31791" lon="6.27568">
        <ele>1709.825145073</ele>
        <time>2021-08-07T13:10:50.095Z</time>
      </trkpt>
      <trkpt lat="44.31799" lon="6.27563">
        <ele>1711.3556731043</ele>
        <time>2021-08-07T13:10:55.354Z</time>
      </trkpt>
      <trkpt lat="44.31799" lon="6.27547">
        <ele>1712.9046813592</ele>
        <time>2021-08-07T13:11:00.617Z</time>
      </trkpt>
      <trkpt lat="44.3179" lon="6.2754">
        <ele>1714.4066274014</ele>
        <time>2021-08-07T13:11:05.884Z</time>
      </trkpt>
      <trkpt lat="44.31776" lon="6.27519">
        <ele>1716.0391743168</ele>
        <time>2021-08-07T13:11:11.158Z</time>
      </trkpt>
      <trkpt lat="44.31764" lon="6.27485">
        <ele>1717.8368398786</ele>
        <time>2021-08-07T13:11:16.441Z</time>
      </trkpt>
      <trkpt lat="44.31761" lon="6.27464">
        <ele>1719.594845288</ele>
        <time>2021-08-07T13:11:21.729Z</time>
      </trkpt>
      <trkpt lat="44.31764" lon="6.27437">
        <ele>1721.5275970783</ele>
        <time>2021-08-07T13:11:27.023Z</time>
      </trkpt>
      <trkpt lat="44.31774" lon="6.27415">
        <ele>1723.7175349952</ele>
        <time>2021-08-07T13:11:32.323Z</time>
      </trkpt>
      <trkpt lat="44.31778" lon="6.2741">
        <ele>1725.7879146705</ele>
        <time>2021-08-07T13:11:37.625Z</time>
      </trkpt>
      <trkpt lat="44.31785" lon="6.27382">
        <ele>1728.2904559671</ele>
        <time>2021-08-07T13:11:42.934Z</time>
      </trkpt>
      <trkpt lat="44.31764" lon="6.27373">
        <ele>1730.1169158611</ele>
        <time>2021-08-07T13:11:48.251Z</time>
      </trkpt>
      <trkpt lat="44.31752" lon="6.27367">
        <ele>1732.1240774507</ele>
        <time>2021-08-07T13:11:53.572Z</time>
      </trkpt>
      <trkpt lat="44.31739" lon="6.27365">
        <ele>1734.0389817062</ele>
        <time>2021-08-07T13:11:58.897Z</time>
      </trkpt>
      <trkpt lat="44.31728" lon="6.27359">
        <ele>1736.0878028732</ele>
        <time>2021-08-07T13:12:04.226Z</time>
      </trkpt>
      <trkpt lat="44.31714" lon="6.27344">
        <ele>1738.2691615483</ele>
        <time>2021-08-07T13:12:09.561Z</time>
      </trkpt>
      <trkpt lat="44.31704" lon="6.27313">
        <ele>1740.4799173333</ele>
        <time>2021-08-07T13:12:14.904Z</time>
      </trkpt>
      <trkpt lat="44.31699" lon="6.27238">
        <ele>1742.5191994459</ele>
        <time>2021-08-07T13:12:20.265Z</time>
      </trkpt>
      <trkpt lat="44.31704" lon="6.27211">
        <ele>1744.7271528546</ele>
        <time>2021-08-07T13:12:25.633Z</time>
      </trkpt>
      <trkpt lat="44.31708" lon="6.27201">
        <ele>1746.9116047087</ele>
        <time>2021-08-07T13:12:31.004Z</time>
      </trkpt>
      <trkpt lat="44.31714" lon="6.27191">
        <ele>1749.1259923336</ele>
        <time>2021-08-07T13:12:36.378Z</time>
      </trkpt>
      <trkpt lat="44.31713" lon="6.27179">
        <ele>1751.2323891672</ele>
        <time>2021-08-07T13:12:41.755Z</time>
      </trkpt>
      <trkpt lat="44.31706" lon="6.27169">
        <ele>1753.1515870524</ele>
        <time>2021-08-07T13:12:47.135Z</time>
      </trkpt>
      <trkpt lat="44.31697" lon="6.27163">
        <ele>1754.957089939</ele>
        <time>2021-08-07T13:12:52.518Z</time>
      </trkpt>
      <trkpt lat="44.31688" lon="6.27143">
        <ele>1756.878803153</ele>
        <time>2021-08-07T13:12:57.907Z</time>
      </trkpt>
      <trkpt lat="44.31685" lon="6.2711">
        <ele>1758.9703005146</ele>
        <time>2021-08-07T13:13:03.304Z</time>
      </trkpt>
      <trkpt lat="44.31687" lon="6.27085">
        <ele>1760.9560805864</ele>
        <time>2021-08-07T13:13:08.707Z</time>
      </trkpt>
      <trkpt lat="44.3169" lon="6.27071">
        <ele>1762.8342060981</ele>
        <time>2021-08-07T13:13:14.114Z</time>
      </trkpt>
      <trkpt lat="44.31693" lon="6.27061">
        <ele>1764.650421268</ele>
        <time>2021-08-07T13:13:19.523Z</time>
      </trkpt>
      <trkpt lat="44.31695" lon="6.27036">
        <ele>1766.3965191618</ele>
        <time>2021-08-07T13:13:24.938Z</time>
      </trkpt>
      <trkpt lat="44.31694" lon="6.2703">
        <ele>1767.935686374</ele>
        <time>2021-08-07T13:13:30.355Z</time>
      </trkpt>
      <trkpt lat="44.31696" lon="6.27009">
        <ele>1769.6055801951</ele>
        <time>2021-08-07T13:13:35.777Z</time>
      </trkpt>
      <trkpt lat="44.31691" lon="6.26999">
        <ele>1770.9661929246</ele>
        <time>2021-08-07T13:13:41.202Z</time>
      </trkpt>
      <trkpt lat="44.31687" lon="6.26996">
        <ele>1772.2314051044</ele>
        <time>2021-08-07T13:13:46.628Z</time>
      </trkpt>
      <trkpt lat="44.31684" lon="6.26991">
        <ele>1773.5120701779</ele>
        <time>2021-08-07T13:13:52.056Z</time>
      </trkpt>
      <trkpt lat="44.3168" lon="6.26986">
        <ele>1774.690095468</ele>
        <time>2021-08-07T13:13:57.486Z</time>
      </trkpt>
      <trkpt lat="44.31669" lon="6.26988">
        <ele>1775.5919559517</ele>
        <time>2021-08-07T13:14:02.919Z</time>
      </trkpt>
      <trkpt lat="44.31661" lon="6.26986">
        <ele>1776.4932194913</ele>
        <time>2021-08-07T13:14:08.355Z</time>
      </trkpt>
      <trkpt lat="44.31648" lon="6.2698">
        <ele>1777.39009335</ele>
        <time>2021-08-07T13:14:13.796Z</time>
      </trkpt>
      <trkpt lat="44.31639" lon="6.26975">
        <ele>1778.2284342343</ele>
        <time>2021-08-07T13:14:19.240Z</time>
      </trkpt>
      <trkpt lat="44.31625" lon="6.26956">
        <ele>1779.0778373823</ele>
        <time>2021-08-07T13:14:24.690Z</time>
      </trkpt>
      <trkpt lat="44.31625" lon="6.26945">
        <ele>1779.828265302</ele>
        <time>2021-08-07T13:14:30.143Z</time>
      </trkpt>
      <trkpt lat="44.31622" lon="6.26924">
        <ele>1780.4684748036</ele>
        <time>2021-08-07T13:14:35.601Z</time>
      </trkpt>
      <trkpt lat="44.31622" lon="6.26915">
        <ele>1780.9281025931</ele>
        <time>2021-08-07T13:14:41.061Z</time>
      </trkpt>
      <trkpt lat="44.31619" lon="6.26885">
        <ele>1781.3649900544</ele>
        <time>2021-08-07T13:14:46.529Z</time>
      </trkpt>
      <trkpt lat="44.31609" lon="6.26875">
        <ele>1781.49679452</ele>
        <time>2021-08-07T13:14:52.001Z</time>
      </trkpt>
      <trkpt lat="44.31603" lon="6.26867">
        <ele>1781.5673445651</ele>
        <time>2021-08-07T13:14:57.476Z</time>
      </trkpt>
      <trkpt lat="44.31588" lon="6.26826">
        <ele>1781.6100685602</ele>
        <time>2021-08-07T13:15:02.962Z</time>
      </trkpt>
      <trkpt lat="44.3157" lon="6.26797">
        <ele>1781.3769581852</ele>
        <time>2021-08-07T13:15:08.457Z</time>
      </trkpt>
      <trkpt lat="44.31571" lon="6.26791">
        <ele>1781.0495348207</ele>
        <time>2021-08-07T13:15:13.953Z</time>
      </trkpt>
      <trkpt lat="44.31587" lon="6.2679">
        <ele>1780.5978248853</ele>
        <time>2021-08-07T13:15:19.454Z</time>
      </trkpt>
      <trkpt lat="44.31598" lon="6.26786">
        <ele>1780.0079504763</ele>
        <time>2021-08-07T13:15:24.959Z</time>
      </trkpt>
      <trkpt lat="44.31605" lon="6.26771">
        <ele>1779.2511884579</ele>
        <time>2021-08-07T13:15:30.469Z</time>
      </trkpt>
      <trkpt lat="44.31607" lon="6.26751">
        <ele>1778.3595358318</ele>
        <time>2021-08-07T13:15:35.983Z</time>
      </trkpt>
      <trkpt lat="44.31605" lon="6.26737">
        <ele>1777.3718800492</ele>
        <time>2021-08-07T13:15:41.501Z</time>
      </trkpt>
      <trkpt lat="44.31593" lon="6.26706">
        <ele>1776.2813800485</ele>
        <time>2021-08-07T13:15:47.027Z</time>
      </trkpt>
      <trkpt lat="44.31583" lon="6.26689">
        <ele>1775.1267473124</ele>
        <time>2021-08-07T13:15:52.558Z</time>
      </trkpt>
      <trkpt lat="44.31566" lon="6.2667">
        <ele>1773.8257244177</ele>
        <time>2021-08-07T13:15:58.097Z</time>
      </trkpt>
      <trkpt lat="44.31541" lon="6.26646">
        <ele>1772.4305477348</ele>
        <time>2021-08-07T13:16:03.646Z</time>
      </trkpt>
      <trkpt lat="44.31475" lon="6.26578">
        <ele>1770.971739789</ele>
        <time>2021-08-07T13:16:09.222Z</time>
      </trkpt>
      <trkpt lat="44.3145" lon="6.26549">
        <ele>1767.7732399355</ele>
        <time>2021-08-07T13:16:14.809Z</time>
      </trkpt>
      <trkpt lat="44.31431" lon="6.26537">
        <ele>1766.0886209538</ele>
        <time>2021-08-07T13:16:20.403Z</time>
      </trkpt>
      <trkpt lat="44.31426" lon="6.26532">
        <ele>1764.4120208253</ele>
        <time>2021-08-07T13:16:25.999Z</time>
      </trkpt>
      <trkpt lat="44.31424" lon="6.26526">
        <ele>1762.6704305239</ele>
        <time>2021-08-07T13:16:31.597Z</time>
      </trkpt>
      <trkpt lat="44.31426" lon="6.26505">
        <ele>1760.7254629232</ele>
        <time>2021-08-07T13:16:37.200Z</time>
      </trkpt>
      <trkpt lat="44.31424" lon="6.26496">
        <ele>1758.965740029</ele>
        <time>2021-08-07T13:16:42.805Z</time>
      </trkpt>
      <trkpt lat="44.31414" lon="6.26482">
        <ele>1757.1865787764</ele>
        <time>2021-08-07T13:16:48.415Z</time>
      </trkpt>
      <trkpt lat="44.31402" lon="6.26472">
        <ele>1755.4458544444</ele>
        <time>2021-08-07T13:16:54.029Z</time>
      </trkpt>
      <trkpt lat="44.31393" lon="6.26467">
        <ele>1753.8029181248</ele>
        <time>2021-08-07T13:16:59.647Z</time>
      </trkpt>
      <trkpt lat="44.31373" lon="6.2646">
        <ele>1752.1260953029</ele>
        <time>2021-08-07T13:17:05.271Z</time>
      </trkpt>
      <trkpt lat="44.31368" lon="6.2646">
        <ele>1750.613761641</ele>
        <time>2021-08-07T13:17:10.897Z</time>
      </trkpt>
      <trkpt lat="44.31363" lon="6.26461">
        <ele>1749.1709341276</ele>
        <time>2021-08-07T13:17:16.525Z</time>
      </trkpt>
      <trkpt lat="44.31351" lon="6.26467">
        <ele>1747.7974816896</ele>
        <time>2021-08-07T13:17:22.157Z</time>
      </trkpt>
      <trkpt lat="44.31339" lon="6.26476">
        <ele>1746.5578190142</ele>
        <time>2021-08-07T13:17:27.793Z</time>
      </trkpt>
      <trkpt lat="44.31335" lon="6.26481">
        <ele>1745.344126936</ele>
        <time>2021-08-07T13:17:33.431Z</time>
      </trkpt>
      <trkpt lat="44.31332" lon="6.26489">
        <ele>1744.2271345847</ele>
        <time>2021-08-07T13:17:39.072Z</time>
      </trkpt>
      <trkpt lat="44.3134" lon="6.26527">
        <ele>1743.5876009113</ele>
        <time>2021-08-07T13:17:44.722Z</time>
      </trkpt>
      <trkpt lat="44.31338" lon="6.2653">
        <ele>1742.5760779686</ele>
        <time>2021-08-07T13:17:50.373Z</time>
      </trkpt>
      <trkpt lat="44.31332" lon="6.26488">
        <ele>1741.1971331921</ele>
        <time>2021-08-07T13:17:56.034Z</time>
      </trkpt>
      <trkpt lat="44.31338" lon="6.26476">
        <ele>1740.3010523403</ele>
        <time>2021-08-07T13:18:01.699Z</time>
      </trkpt>
      <trkpt lat="44.31357" lon="6.26464">
        <ele>1739.4501964658</ele>
        <time>2021-08-07T13:18:07.371Z</time>
      </trkpt>
      <trkpt lat="44.31367" lon="6.2646">
        <ele>1738.7168871707</ele>
        <time>2021-08-07T13:18:13.046Z</time>
      </trkpt>
      <trkpt lat="44.31384" lon="6.26461">
        <ele>1738.1542436216</ele>
        <time>2021-08-07T13:18:18.727Z</time>
      </trkpt>
      <trkpt lat="44.31392" lon="6.26452">
        <ele>1737.3897123683</ele>
        <time>2021-08-07T13:18:24.412Z</time>
      </trkpt>
      <trkpt lat="44.31402" lon="6.26437">
        <ele>1736.650137943</ele>
        <time>2021-08-07T13:18:30.101Z</time>
      </trkpt>
      <trkpt lat="44.31407" lon="6.26422">
        <ele>1735.9796180877</ele>
        <time>2021-08-07T13:18:35.794Z</time>
      </trkpt>
      <trkpt lat="44.31416" lon="6.26374">
        <ele>1735.1949295517</ele>
        <time>2021-08-07T13:18:41.499Z</time>
      </trkpt>
      <trkpt lat="44.31419" lon="6.26342">
        <ele>1734.4616774866</ele>
        <time>2021-08-07T13:18:47.212Z</time>
      </trkpt>
      <trkpt lat="44.31397" lon="6.263">
        <ele>1733.7357749113</ele>
        <time>2021-08-07T13:18:52.937Z</time>
      </trkpt>
      <trkpt lat="44.31383" lon="6.26285">
        <ele>1733.2763478167</ele>
        <time>2021-08-07T13:18:58.668Z</time>
      </trkpt>
      <trkpt lat="44.31336" lon="6.26205">
        <ele>1732.9541540689</ele>
        <time>2021-08-07T13:19:04.424Z</time>
      </trkpt>
      <trkpt lat="44.31324" lon="6.26171">
        <ele>1732.6357632524</ele>
        <time>2021-08-07T13:19:10.189Z</time>
      </trkpt>
      <trkpt lat="44.31296" lon="6.26135">
        <ele>1732.1396801489</ele>
        <time>2021-08-07T13:19:15.967Z</time>
      </trkpt>
      <trkpt lat="44.31297" lon="6.26126">
        <ele>1731.9365849705</ele>
        <time>2021-08-07T13:19:21.747Z</time>
      </trkpt>
      <trkpt lat="44.31295" lon="6.26122">
        <ele>1731.6846040784</ele>
        <time>2021-08-07T13:19:27.528Z</time>
      </trkpt>
      <trkpt lat="44.31284" lon="6.26111">
        <ele>1731.3255408693</ele>
        <time>2021-08-07T13:19:33.314Z</time>
      </trkpt>
      <trkpt lat="44.31279" lon="6.26103">
        <ele>1731.031962097</ele>
        <time>2021-08-07T13:19:39.103Z</time>
      </trkpt>
      <trkpt lat="44.31276" lon="6.26096">
        <ele>1730.7332502567</ele>
        <time>2021-08-07T13:19:44.893Z</time>
      </trkpt>
      <trkpt lat="44.31273" lon="6.26079">
        <ele>1730.4025409284</ele>
        <time>2021-08-07T13:19:50.688Z</time>
      </trkpt>
      <trkpt lat="44.31272" lon="6.26062">
        <ele>1730.0817568211</ele>
        <time>2021-08-07T13:19:56.487Z</time>
      </trkpt>
      <trkpt lat="44.31274" lon="6.26024">
        <ele>1729.7531273151</ele>
        <time>2021-08-07T13:20:02.295Z</time>
      </trkpt>
      <trkpt lat="44.31284" lon="6.25994">
        <ele>1729.6572776853</ele>
        <time>2021-08-07T13:20:08.111Z</time>
      </trkpt>
      <trkpt lat="44.31284" lon="6.25982">
        <ele>1729.1548959039</ele>
        <time>2021-08-07T13:20:13.930Z</time>
      </trkpt>
      <trkpt lat="44.31269" lon="6.25963">
        <ele>1728.1587062293</ele>
        <time>2021-08-07T13:20:19.755Z</time>
      </trkpt>
      <trkpt lat="44.31267" lon="6.25957">
        <ele>1727.2774328781</ele>
        <time>2021-08-07T13:20:25.582Z</time>
      </trkpt>
      <trkpt lat="44.31267" lon="6.25951">
        <ele>1726.2894809836</ele>
        <time>2021-08-07T13:20:31.410Z</time>
      </trkpt>
      <trkpt lat="44.3127" lon="6.25935">
        <ele>1725.2190053364</ele>
        <time>2021-08-07T13:20:37.242Z</time>
      </trkpt>
      <trkpt lat="44.31285" lon="6.25876">
        <ele>1724.3630432486</ele>
        <time>2021-08-07T13:20:43.089Z</time>
      </trkpt>
      <trkpt lat="44.31298" lon="6.25805">
        <ele>1722.6611717977</ele>
        <time>2021-08-07T13:20:48.954Z</time>
      </trkpt>
      <trkpt lat="44.31303" lon="6.25792">
        <ele>1720.8440472106</ele>
        <time>2021-08-07T13:20:54.822Z</time>
      </trkpt>
      <trkpt lat="44.31321" lon="6.25766">
        <ele>1718.9120999172</ele>
        <time>2021-08-07T13:21:00.699Z</time>
      </trkpt>
      <trkpt lat="44.31324" lon="6.25726">
        <ele>1716.1237449686</ele>
        <time>2021-08-07T13:21:06.586Z</time>
      </trkpt>
      <trkpt lat="44.31322" lon="6.25715">
        <ele>1713.4463373451</ele>
        <time>2021-08-07T13:21:12.475Z</time>
      </trkpt>
      <trkpt lat="44.31321" lon="6.25713">
        <ele>1710.7032406133</ele>
        <time>2021-08-07T13:21:18.365Z</time>
      </trkpt>
      <trkpt lat="44.31322" lon="6.25708">
        <ele>1707.7727308087</ele>
        <time>2021-08-07T13:21:24.256Z</time>
      </trkpt>
      <trkpt lat="44.31398" lon="6.2568">
        <ele>1704.1300023918</ele>
        <time>2021-08-07T13:21:30.174Z</time>
      </trkpt>
      <trkpt lat="44.31414" lon="6.25677">
        <ele>1700.9053402465</ele>
        <time>2021-08-07T13:21:36.097Z</time>
      </trkpt>
      <trkpt lat="44.31453" lon="6.25674">
        <ele>1696.8624240244</ele>
        <time>2021-08-07T13:21:42.033Z</time>
      </trkpt>
      <trkpt lat="44.31482" lon="6.25677">
        <ele>1693.1566918067</ele>
        <time>2021-08-07T13:21:47.979Z</time>
      </trkpt>
      <trkpt lat="44.31497" lon="6.25676">
        <ele>1689.3543302648</ele>
        <time>2021-08-07T13:21:53.930Z</time>
      </trkpt>
      <trkpt lat="44.31528" lon="6.25679">
        <ele>1685.5286698733</ele>
        <time>2021-08-07T13:21:59.891Z</time>
      </trkpt>
      <trkpt lat="44.3155" lon="6.25673">
        <ele>1681.4089236361</ele>
        <time>2021-08-07T13:22:05.860Z</time>
      </trkpt>
      <trkpt lat="44.31562" lon="6.25673">
        <ele>1677.3643530425</ele>
        <time>2021-08-07T13:22:11.832Z</time>
      </trkpt>
      <trkpt lat="44.31599" lon="6.25663">
        <ele>1673.0530274626</ele>
        <time>2021-08-07T13:22:17.817Z</time>
      </trkpt>
      <trkpt lat="44.31615" lon="6.25661">
        <ele>1668.9517095753</ele>
        <time>2021-08-07T13:22:23.808Z</time>
      </trkpt>
      <trkpt lat="44.31659" lon="6.25667">
        <ele>1664.6976295124</ele>
        <time>2021-08-07T13:22:29.813Z</time>
      </trkpt>
      <trkpt lat="44.31673" lon="6.25672">
        <ele>1660.6920273748</ele>
        <time>2021-08-07T13:22:35.823Z</time>
      </trkpt>
      <trkpt lat="44.31688" lon="6.25674">
        <ele>1656.6149026131</ele>
        <time>2021-08-07T13:22:41.838Z</time>
      </trkpt>
      <trkpt lat="44.31696" lon="6.25677">
        <ele>1652.7880853224</ele>
        <time>2021-08-07T13:22:47.856Z</time>
      </trkpt>
      <trkpt lat="44.31707" lon="6.25688">
        <ele>1649.1633672689</ele>
        <time>2021-08-07T13:22:53.878Z</time>
      </trkpt>
      <trkpt lat="44.31713" lon="6.25689">
        <ele>1645.5359815746</ele>
        <time>2021-08-07T13:22:59.902Z</time>
      </trkpt>
      <trkpt lat="44.31726" lon="6.25683">
        <ele>1641.825618144</ele>
        <time>2021-08-07T13:23:05.931Z</time>
      </trkpt>
      <trkpt lat="44.31731" lon="6.25684">
        <ele>1638.4471154498</ele>
        <time>2021-08-07T13:23:11.962Z</time>
      </trkpt>
      <trkpt lat="44.31737" lon="6.2569">
        <ele>1635.2954158306</ele>
        <time>2021-08-07T13:23:17.995Z</time>
      </trkpt>
      <trkpt lat="44.31739" lon="6.2569">
        <ele>1632.2371826017</ele>
        <time>2021-08-07T13:23:24.029Z</time>
      </trkpt>
      <trkpt lat="44.31751" lon="6.25687">
        <ele>1629.1693495968</ele>
        <time>2021-08-07T13:23:30.067Z</time>
      </trkpt>
      <trkpt lat="44.31766" lon="6.25688">
        <ele>1626.3203046106</ele>
        <time>2021-08-07T13:23:36.110Z</time>
      </trkpt>
      <trkpt lat="44.31779" lon="6.25692">
        <ele>1623.7578392891</ele>
        <time>2021-08-07T13:23:42.157Z</time>
      </trkpt>
      <trkpt lat="44.31782" lon="6.25692">
        <ele>1621.4207311799</ele>
        <time>2021-08-07T13:23:48.205Z</time>
      </trkpt>
      <trkpt lat="44.31788" lon="6.25687">
        <ele>1619.19186626</ele>
        <time>2021-08-07T13:23:54.255Z</time>
      </trkpt>
      <trkpt lat="44.31797" lon="6.2569">
        <ele>1617.2643307822</ele>
        <time>2021-08-07T13:24:00.308Z</time>
      </trkpt>
      <trkpt lat="44.31821" lon="6.25685">
        <ele>1615.2400157846</ele>
        <time>2021-08-07T13:24:06.369Z</time>
      </trkpt>
      <trkpt lat="44.31836" lon="6.25687">
        <ele>1613.6916564203</ele>
        <time>2021-08-07T13:24:12.436Z</time>
      </trkpt>
      <trkpt lat="44.31857" lon="6.25695">
        <ele>1612.4496735674</ele>
        <time>2021-08-07T13:24:18.510Z</time>
      </trkpt>
      <trkpt lat="44.31889" lon="6.25695">
        <ele>1611.1732326058</ele>
        <time>2021-08-07T13:24:24.595Z</time>
      </trkpt>
      <trkpt lat="44.3192" lon="6.25702">
        <ele>1610.4121413203</ele>
        <time>2021-08-07T13:24:30.690Z</time>
      </trkpt>
      <trkpt lat="44.31924" lon="6.25702">
        <ele>1609.9762505461</ele>
        <time>2021-08-07T13:24:36.786Z</time>
      </trkpt>
      <trkpt lat="44.31943" lon="6.25696">
        <ele>1609.742100644</ele>
        <time>2021-08-07T13:24:42.889Z</time>
      </trkpt>
      <trkpt lat="44.31952" lon="6.25696">
        <ele>1609.8386450349</ele>
        <time>2021-08-07T13:24:48.995Z</time>
      </trkpt>
      <trkpt lat="44.31959" lon="6.25689">
        <ele>1610.1932600441</ele>
        <time>2021-08-07T13:24:55.104Z</time>
      </trkpt>
      <trkpt lat="44.31958" lon="6.25679">
        <ele>1610.8223868879</ele>
        <time>2021-08-07T13:25:01.215Z</time>
      </trkpt>
      <trkpt lat="44.31954" lon="6.25665">
        <ele>1611.7048847738</ele>
        <time>2021-08-07T13:25:07.330Z</time>
      </trkpt>
      <trkpt lat="44.31938" lon="6.25632">
        <ele>1613.1138805695</ele>
        <time>2021-08-07T13:25:13.454Z</time>
      </trkpt>
      <trkpt lat="44.31929" lon="6.25622">
        <ele>1614.5352912129</ele>
        <time>2021-08-07T13:25:19.582Z</time>
      </trkpt>
      <trkpt lat="44.31924" lon="6.25608">
        <ele>1616.291651132</ele>
        <time>2021-08-07T13:25:25.714Z</time>
      </trkpt>
      <trkpt lat="44.31906" lon="6.25576">
        <ele>1618.2779788437</ele>
        <time>2021-08-07T13:25:31.856Z</time>
      </trkpt>
      <trkpt lat="44.31892" lon="6.25549">
        <ele>1620.2617631359</ele>
        <time>2021-08-07T13:25:38.006Z</time>
      </trkpt>
      <trkpt lat="44.31883" lon="6.25521">
        <ele>1622.3771148277</ele>
        <time>2021-08-07T13:25:44.163Z</time>
      </trkpt>
      <trkpt lat="44.31881" lon="6.25511">
        <ele>1624.6033899658</ele>
        <time>2021-08-07T13:25:50.322Z</time>
      </trkpt>
      <trkpt lat="44.319" lon="6.25469">
        <ele>1627.4474302011</ele>
        <time>2021-08-07T13:25:56.493Z</time>
      </trkpt>
      <trkpt lat="44.319" lon="6.2546">
        <ele>1629.8915577748</ele>
        <time>2021-08-07T13:26:02.666Z</time>
      </trkpt>
      <trkpt lat="44.31892" lon="6.25453">
        <ele>1632.2778377868</ele>
        <time>2021-08-07T13:26:08.842Z</time>
      </trkpt>
      <trkpt lat="44.31882" lon="6.25449">
        <ele>1634.635123369</ele>
        <time>2021-08-07T13:26:15.022Z</time>
      </trkpt>
      <trkpt lat="44.31879" lon="6.25446">
        <ele>1637.1396898784</ele>
        <time>2021-08-07T13:26:21.203Z</time>
      </trkpt>
      <trkpt lat="44.31876" lon="6.25436">
        <ele>1639.7632748551</ele>
        <time>2021-08-07T13:26:27.387Z</time>
      </trkpt>
      <trkpt lat="44.31863" lon="6.25421">
        <ele>1642.4351198946</ele>
        <time>2021-08-07T13:26:33.576Z</time>
      </trkpt>
      <trkpt lat="44.31843" lon="6.25401">
        <ele>1644.9361228032</ele>
        <time>2021-08-07T13:26:39.774Z</time>
      </trkpt>
      <trkpt lat="44.31833" lon="6.25384">
        <ele>1647.3932526212</ele>
        <time>2021-08-07T13:26:45.977Z</time>
      </trkpt>
      <trkpt lat="44.31832" lon="6.2538">
        <ele>1649.8542662399</ele>
        <time>2021-08-07T13:26:52.181Z</time>
      </trkpt>
      <trkpt lat="44.31832" lon="6.25367">
        <ele>1652.3919886823</ele>
        <time>2021-08-07T13:26:58.388Z</time>
      </trkpt>
      <trkpt lat="44.31835" lon="6.2534">
        <ele>1655.0644609709</ele>
        <time>2021-08-07T13:27:04.602Z</time>
      </trkpt>
      <trkpt lat="44.31839" lon="6.25331">
        <ele>1657.4867687339</ele>
        <time>2021-08-07T13:27:10.818Z</time>
      </trkpt>
      <trkpt lat="44.31837" lon="6.25323">
        <ele>1659.7569902105</ele>
        <time>2021-08-07T13:27:17.036Z</time>
      </trkpt>
      <trkpt lat="44.31835" lon="6.2532">
        <ele>1661.8948569843</ele>
        <time>2021-08-07T13:27:23.255Z</time>
      </trkpt>
      <trkpt lat="44.3182" lon="6.25314">
        <ele>1663.8375684878</ele>
        <time>2021-08-07T13:27:29.479Z</time>
      </trkpt>
      <trkpt lat="44.31795" lon="6.25293">
        <ele>1665.9923238188</ele>
        <time>2021-08-07T13:27:35.713Z</time>
      </trkpt>
      <trkpt lat="44.31765" lon="6.25274">
        <ele>1668.3324058816</ele>
        <time>2021-08-07T13:27:41.958Z</time>
      </trkpt>
      <trkpt lat="44.31734" lon="6.25257">
        <ele>1669.9666456779</ele>
        <time>2021-08-07T13:27:48.214Z</time>
      </trkpt>
      <trkpt lat="44.31727" lon="6.25251">
        <ele>1671.5025735507</ele>
        <time>2021-08-07T13:27:54.473Z</time>
      </trkpt>
      <trkpt lat="44.31717" lon="6.25239">
        <ele>1672.9487894435</ele>
        <time>2021-08-07T13:28:00.736Z</time>
      </trkpt>
      <trkpt lat="44.3173" lon="6.25193">
        <ele>1674.8776471233</ele>
        <time>2021-08-07T13:28:07.011Z</time>
      </trkpt>
      <trkpt lat="44.31733" lon="6.25158">
        <ele>1676.2657125648</ele>
        <time>2021-08-07T13:28:13.294Z</time>
      </trkpt>
      <trkpt lat="44.31733" lon="6.25142">
        <ele>1677.5292700268</ele>
        <time>2021-08-07T13:28:19.581Z</time>
      </trkpt>
      <trkpt lat="44.31725" lon="6.25078">
        <ele>1678.748859431</ele>
        <time>2021-08-07T13:28:25.884Z</time>
      </trkpt>
      <trkpt lat="44.31734" lon="6.25045">
        <ele>1679.807765579</ele>
        <time>2021-08-07T13:28:32.195Z</time>
      </trkpt>
      <trkpt lat="44.31754" lon="6.24992">
        <ele>1680.6377882853</ele>
        <time>2021-08-07T13:28:38.521Z</time>
      </trkpt>
      <trkpt lat="44.31755" lon="6.24984">
        <ele>1681.3931104223</ele>
        <time>2021-08-07T13:28:44.849Z</time>
      </trkpt>
      <trkpt lat="44.31768" lon="6.24962">
        <ele>1682.225200867</ele>
        <time>2021-08-07T13:28:51.183Z</time>
      </trkpt>
      <trkpt lat="44.31781" lon="6.24934">
        <ele>1682.8618615115</ele>
        <time>2021-08-07T13:28:57.525Z</time>
      </trkpt>
      <trkpt lat="44.31812" lon="6.24876">
        <ele>1683.2107371127</ele>
        <time>2021-08-07T13:29:03.885Z</time>
      </trkpt>
      <trkpt lat="44.31817" lon="6.2487">
        <ele>1683.8926835638</ele>
        <time>2021-08-07T13:29:10.247Z</time>
      </trkpt>
      <trkpt lat="44.31828" lon="6.24864">
        <ele>1684.609432081</ele>
        <time>2021-08-07T13:29:16.613Z</time>
      </trkpt>
      <trkpt lat="44.31862" lon="6.24854">
        <ele>1685.4672360212</ele>
        <time>2021-08-07T13:29:22.990Z</time>
      </trkpt>
      <trkpt lat="44.31862" lon="6.2485">
        <ele>1686.1198829391</ele>
        <time>2021-08-07T13:29:29.368Z</time>
      </trkpt>
      <trkpt lat="44.31857" lon="6.24842">
        <ele>1686.782534853</ele>
        <time>2021-08-07T13:29:35.749Z</time>
      </trkpt>
      <trkpt lat="44.31849" lon="6.24838">
        <ele>1687.4063878985</ele>
        <time>2021-08-07T13:29:42.133Z</time>
      </trkpt>
      <trkpt lat="44.31823" lon="6.24816">
        <ele>1688.0114129806</ele>
        <time>2021-08-07T13:29:48.527Z</time>
      </trkpt>
      <trkpt lat="44.31818" lon="6.24807">
        <ele>1688.8007208966</ele>
        <time>2021-08-07T13:29:54.924Z</time>
      </trkpt>
      <trkpt lat="44.31807" lon="6.24751">
        <ele>1689.9806568189</ele>
        <time>2021-08-07T13:30:01.334Z</time>
      </trkpt>
      <trkpt lat="44.31802" lon="6.24743">
        <ele>1690.8969900668</ele>
        <time>2021-08-07T13:30:07.747Z</time>
      </trkpt>
      <trkpt lat="44.31798" lon="6.24743">
        <ele>1691.8650853362</ele>
        <time>2021-08-07T13:30:14.161Z</time>
      </trkpt>
      <trkpt lat="44.31776" lon="6.24767">
        <ele>1692.7214395752</ele>
        <time>2021-08-07T13:30:20.585Z</time>
      </trkpt>
      <trkpt lat="44.31767" lon="6.24772">
        <ele>1693.8193290051</ele>
        <time>2021-08-07T13:30:27.012Z</time>
      </trkpt>
      <trkpt lat="44.31755" lon="6.24776">
        <ele>1695.0539504329</ele>
        <time>2021-08-07T13:30:33.443Z</time>
      </trkpt>
      <trkpt lat="44.31727" lon="6.24776">
        <ele>1696.4256943622</ele>
        <time>2021-08-07T13:30:39.883Z</time>
      </trkpt>
      <trkpt lat="44.31696" lon="6.24778">
        <ele>1697.706553818</ele>
        <time>2021-08-07T13:30:46.334Z</time>
      </trkpt>
      <trkpt lat="44.31671" lon="6.24784">
        <ele>1699.1923932046</ele>
        <time>2021-08-07T13:30:52.793Z</time>
      </trkpt>
      <trkpt lat="44.31604" lon="6.24792">
        <ele>1701.2714242953</ele>
        <time>2021-08-07T13:30:59.274Z</time>
      </trkpt>
      <trkpt lat="44.31589" lon="6.24792">
        <ele>1702.9713412066</ele>
        <time>2021-08-07T13:31:05.760Z</time>
      </trkpt>
      <trkpt lat="44.31586" lon="6.2479">
        <ele>1704.5458148606</ele>
        <time>2021-08-07T13:31:12.247Z</time>
      </trkpt>
      <trkpt lat="44.31585" lon="6.24783">
        <ele>1706.1249110309</ele>
        <time>2021-08-07T13:31:18.736Z</time>
      </trkpt>
      <trkpt lat="44.31585" lon="6.24776">
        <ele>1707.7050051459</ele>
        <time>2021-08-07T13:31:25.227Z</time>
      </trkpt>
      <trkpt lat="44.31588" lon="6.24771">
        <ele>1709.3067941321</ele>
        <time>2021-08-07T13:31:31.719Z</time>
      </trkpt>
      <trkpt lat="44.31594" lon="6.24764">
        <ele>1710.8149095983</ele>
        <time>2021-08-07T13:31:38.214Z</time>
      </trkpt>
      <trkpt lat="44.31597" lon="6.24755">
        <ele>1712.4154686601</ele>
        <time>2021-08-07T13:31:44.711Z</time>
      </trkpt>
      <trkpt lat="44.31614" lon="6.24728">
        <ele>1714.0306284529</ele>
        <time>2021-08-07T13:31:51.217Z</time>
      </trkpt>
      <trkpt lat="44.31622" lon="6.2471">
        <ele>1715.6138140246</ele>
        <time>2021-08-07T13:31:57.728Z</time>
      </trkpt>
      <trkpt lat="44.31633" lon="6.24692">
        <ele>1717.178502351</ele>
        <time>2021-08-07T13:32:04.244Z</time>
      </trkpt>
      <trkpt lat="44.31654" lon="6.2463">
        <ele>1719.6277795087</ele>
        <time>2021-08-07T13:32:10.777Z</time>
      </trkpt>
      <trkpt lat="44.31664" lon="6.24607">
        <ele>1721.3175224693</ele>
        <time>2021-08-07T13:32:17.316Z</time>
      </trkpt>
      <trkpt lat="44.31675" lon="6.24587">
        <ele>1722.758366274</ele>
        <time>2021-08-07T13:32:23.861Z</time>
      </trkpt>
      <trkpt lat="44.31692" lon="6.24561">
        <ele>1724.2038856736</ele>
        <time>2021-08-07T13:32:30.415Z</time>
      </trkpt>
      <trkpt lat="44.31779" lon="6.24437">
        <ele>1725.528739568</ele>
        <time>2021-08-07T13:32:37.010Z</time>
      </trkpt>
      <trkpt lat="44.31798" lon="6.24408">
        <ele>1726.6971429904</ele>
        <time>2021-08-07T13:32:43.615Z</time>
      </trkpt>
      <trkpt lat="44.31813" lon="6.2438">
        <ele>1727.8223239815</ele>
        <time>2021-08-07T13:32:50.228Z</time>
      </trkpt>
      <trkpt lat="44.31848" lon="6.24321">
        <ele>1729.0899227892</ele>
        <time>2021-08-07T13:32:56.859Z</time>
      </trkpt>
      <trkpt lat="44.31871" lon="6.24287">
        <ele>1730.1912830225</ele>
        <time>2021-08-07T13:33:03.502Z</time>
      </trkpt>
      <trkpt lat="44.31878" lon="6.24272">
        <ele>1731.2266182998</ele>
        <time>2021-08-07T13:33:10.149Z</time>
      </trkpt>
      <trkpt lat="44.31934" lon="6.24324">
        <ele>1732.0852131481</ele>
        <time>2021-08-07T13:33:16.818Z</time>
      </trkpt>
      <trkpt lat="44.31942" lon="6.24334">
        <ele>1733.1453446602</ele>
        <time>2021-08-07T13:33:23.491Z</time>
      </trkpt>
      <trkpt lat="44.31955" lon="6.24367">
        <ele>1734.1548777773</ele>
        <time>2021-08-07T13:33:30.173Z</time>
      </trkpt>
      <trkpt lat="44.3197" lon="6.2442">
        <ele>1735.1912700253</ele>
        <time>2021-08-07T13:33:36.869Z</time>
      </trkpt>
      <trkpt lat="44.31969" lon="6.24431">
        <ele>1736.6085573926</ele>
        <time>2021-08-07T13:33:43.567Z</time>
      </trkpt>
      <trkpt lat="44.31976" lon="6.24492">
        <ele>1738.0300060172</ele>
        <time>2021-08-07T13:33:50.280Z</time>
      </trkpt>
      <trkpt lat="44.31976" lon="6.24523">
        <ele>1739.7481470773</ele>
        <time>2021-08-07T13:33:57.000Z</time>
      </trkpt>
      <trkpt lat="44.31982" lon="6.24572">
        <ele>1741.8625481388</ele>
        <time>2021-08-07T13:34:03.732Z</time>
      </trkpt>
      <trkpt lat="44.31989" lon="6.24597">
        <ele>1744.3280712248</ele>
        <time>2021-08-07T13:34:10.471Z</time>
      </trkpt>
      <trkpt lat="44.31999" lon="6.24615">
        <ele>1747.0153152463</ele>
        <time>2021-08-07T13:34:17.215Z</time>
      </trkpt>
      <trkpt lat="44.32002" lon="6.24618">
        <ele>1749.8227234345</ele>
        <time>2021-08-07T13:34:23.960Z</time>
      </trkpt>
      <trkpt lat="44.32028" lon="6.24639">
        <ele>1753.1249469178</ele>
        <time>2021-08-07T13:34:30.715Z</time>
      </trkpt>
      <trkpt lat="44.32064" lon="6.2465">
        <ele>1756.5309690266</ele>
        <time>2021-08-07T13:34:37.483Z</time>
      </trkpt>
      <trkpt lat="44.32072" lon="6.24662">
        <ele>1760.1732523493</ele>
        <time>2021-08-07T13:34:44.255Z</time>
      </trkpt>
      <trkpt lat="44.32092" lon="6.24703">
        <ele>1764.2430659852</ele>
        <time>2021-08-07T13:34:51.038Z</time>
      </trkpt>
      <trkpt lat="44.32103" lon="6.24722">
        <ele>1768.4401749917</ele>
        <time>2021-08-07T13:34:57.827Z</time>
      </trkpt>
      <trkpt lat="44.32123" lon="6.24734">
        <ele>1773.0494314083</ele>
        <time>2021-08-07T13:35:04.624Z</time>
      </trkpt>
      <trkpt lat="44.32133" lon="6.24742">
        <ele>1777.7617554342</ele>
        <time>2021-08-07T13:35:11.424Z</time>
      </trkpt>
      <trkpt lat="44.32146" lon="6.24761">
        <ele>1782.7134452737</ele>
        <time>2021-08-07T13:35:18.231Z</time>
      </trkpt>
      <trkpt lat="44.32161" lon="6.24777">
        <ele>1787.8785226544</ele>
        <time>2021-08-07T13:35:25.044Z</time>
      </trkpt>
      <trkpt lat="44.32168" lon="6.2479">
        <ele>1793.1347246632</ele>
        <time>2021-08-07T13:35:31.861Z</time>
      </trkpt>
      <trkpt lat="44.32171" lon="6.24794">
        <ele>1798.4795476816</ele>
        <time>2021-08-07T13:35:38.679Z</time>
      </trkpt>
      <trkpt lat="44.32207" lon="6.24801">
        <ele>1804.6472896908</ele>
        <time>2021-08-07T13:35:45.509Z</time>
      </trkpt>
      <trkpt lat="44.3223" lon="6.24815">
        <ele>1810.6523247608</ele>
        <time>2021-08-07T13:35:52.348Z</time>
      </trkpt>
      <trkpt lat="44.3223" lon="6.24814">
        <ele>1816.092099666</ele>
        <time>2021-08-07T13:35:59.187Z</time>
      </trkpt>
      <trkpt lat="44.32291" lon="6.24836">
        <ele>1822.4624634849</ele>
        <time>2021-08-07T13:36:06.047Z</time>
      </trkpt>
      <trkpt lat="44.32301" lon="6.24859">
        <ele>1828.0835252779</ele>
        <time>2021-08-07T13:36:12.913Z</time>
      </trkpt>
      <trkpt lat="44.32308" lon="6.24884">
        <ele>1833.4956601104</ele>
        <time>2021-08-07T13:36:19.786Z</time>
      </trkpt>
      <trkpt lat="44.32309" lon="6.24901">
        <ele>1838.6651040918</ele>
        <time>2021-08-07T13:36:26.663Z</time>
      </trkpt>
      <trkpt lat="44.32306" lon="6.24941">
        <ele>1843.683464342</ele>
        <time>2021-08-07T13:36:33.550Z</time>
      </trkpt>
      <trkpt lat="44.32307" lon="6.24965">
        <ele>1848.2638572205</ele>
        <time>2021-08-07T13:36:40.442Z</time>
      </trkpt>
      <trkpt lat="44.3231" lon="6.24985">
        <ele>1852.6435422987</ele>
        <time>2021-08-07T13:36:47.339Z</time>
      </trkpt>
      <trkpt lat="44.32328" lon="6.25063">
        <ele>1857.5494147022</ele>
        <time>2021-08-07T13:36:54.256Z</time>
      </trkpt>
      <trkpt lat="44.3234" lon="6.2508">
        <ele>1861.2987273824</ele>
        <time>2021-08-07T13:37:01.179Z</time>
      </trkpt>
      <trkpt lat="44.32363" lon="6.25099">
        <ele>1864.6381405909</ele>
        <time>2021-08-07T13:37:08.110Z</time>
      </trkpt>
      <trkpt lat="44.32367" lon="6.25109">
        <ele>1867.4594680025</ele>
        <time>2021-08-07T13:37:15.044Z</time>
      </trkpt>
      <trkpt lat="44.32367" lon="6.2512">
        <ele>1869.8251059024</ele>
        <time>2021-08-07T13:37:21.981Z</time>
      </trkpt>
      <trkpt lat="44.3237" lon="6.25128">
        <ele>1871.6566782607</ele>
        <time>2021-08-07T13:37:28.920Z</time>
      </trkpt>
      <trkpt lat="44.32401" lon="6.25155">
        <ele>1872.9265418903</ele>
        <time>2021-08-07T13:37:35.871Z</time>
      </trkpt>
      <trkpt lat="44.32424" lon="6.25173">
        <ele>1873.5712810447</ele>
        <time>2021-08-07T13:37:42.831Z</time>
      </trkpt>
      <trkpt lat="44.32471" lon="6.25195">
        <ele>1873.8864538123</ele>
        <time>2021-08-07T13:37:49.808Z</time>
      </trkpt>
      <trkpt lat="44.32489" lon="6.25202">
        <ele>1873.6903571077</ele>
        <time>2021-08-07T13:37:56.791Z</time>
      </trkpt>
      <trkpt lat="44.32507" lon="6.25208">
        <ele>1872.9059492557</ele>
        <time>2021-08-07T13:38:03.780Z</time>
      </trkpt>
      <trkpt lat="44.3256" lon="6.25239">
        <ele>1871.2990189822</ele>
        <time>2021-08-07T13:38:10.788Z</time>
      </trkpt>
      <trkpt lat="44.32568" lon="6.25257">
        <ele>1869.8915376392</ele>
        <time>2021-08-07T13:38:17.801Z</time>
      </trkpt>
      <trkpt lat="44.32577" lon="6.25312">
        <ele>1868.2223203393</ele>
        <time>2021-08-07T13:38:24.828Z</time>
      </trkpt>
      <trkpt lat="44.32588" lon="6.25355">
        <ele>1865.795259593</ele>
        <time>2021-08-07T13:38:31.866Z</time>
      </trkpt>
      <trkpt lat="44.32598" lon="6.25389">
        <ele>1863.1809286024</ele>
        <time>2021-08-07T13:38:38.912Z</time>
      </trkpt>
      <trkpt lat="44.32619" lon="6.25442">
        <ele>1860.0400259381</ele>
        <time>2021-08-07T13:38:45.973Z</time>
      </trkpt>
      <trkpt lat="44.32651" lon="6.25507">
        <ele>1856.1231089008</ele>
        <time>2021-08-07T13:38:53.053Z</time>
      </trkpt>
      <trkpt lat="44.32665" lon="6.25542">
        <ele>1852.2344755088</ele>
        <time>2021-08-07T13:39:00.142Z</time>
      </trkpt>
      <trkpt lat="44.3271" lon="6.25615">
        <ele>1847.4998880394</ele>
        <time>2021-08-07T13:39:07.254Z</time>
      </trkpt>
      <trkpt lat="44.32724" lon="6.25643">
        <ele>1843.4382182617</ele>
        <time>2021-08-07T13:39:14.375Z</time>
      </trkpt>
      <trkpt lat="44.32738" lon="6.25674">
        <ele>1839.6183189844</ele>
        <time>2021-08-07T13:39:21.504Z</time>
      </trkpt>
      <trkpt lat="44.32747" lon="6.25688">
        <ele>1835.6891599188</ele>
        <time>2021-08-07T13:39:28.638Z</time>
      </trkpt>
      <trkpt lat="44.32779" lon="6.2572">
        <ele>1831.4403281571</ele>
        <time>2021-08-07T13:39:35.785Z</time>
      </trkpt>
      <trkpt lat="44.32799" lon="6.25754">
        <ele>1827.2047956618</ele>
        <time>2021-08-07T13:39:42.942Z</time>
      </trkpt>
      <trkpt lat="44.32811" lon="6.25771">
        <ele>1823.1378339268</ele>
        <time>2021-08-07T13:39:50.105Z</time>
      </trkpt>
      <trkpt lat="44.32819" lon="6.25779">
        <ele>1819.2280790768</ele>
        <time>2021-08-07T13:39:57.271Z</time>
      </trkpt>
      <trkpt lat="44.32864" lon="6.25793">
        <ele>1814.8965750135</ele>
        <time>2021-08-07T13:40:04.453Z</time>
      </trkpt>
      <trkpt lat="44.3288" lon="6.25804">
        <ele>1811.1995207571</ele>
        <time>2021-08-07T13:40:11.641Z</time>
      </trkpt>
      <trkpt lat="44.32889" lon="6.25813">
        <ele>1807.8126585007</ele>
        <time>2021-08-07T13:40:18.833Z</time>
      </trkpt>
      <trkpt lat="44.32894" lon="6.2582">
        <ele>1804.6979176857</ele>
        <time>2021-08-07T13:40:26.027Z</time>
      </trkpt>
      <trkpt lat="44.32893" lon="6.25826">
        <ele>1801.8786370264</ele>
        <time>2021-08-07T13:40:33.222Z</time>
      </trkpt>
      <trkpt lat="44.32885" lon="6.25835">
        <ele>1799.4143061793</ele>
        <time>2021-08-07T13:40:40.421Z</time>
      </trkpt>
      <trkpt lat="44.32881" lon="6.25847">
        <ele>1797.1036471638</ele>
        <time>2021-08-07T13:40:47.623Z</time>
      </trkpt>
      <trkpt lat="44.32872" lon="6.25862">
        <ele>1795.0098768042</ele>
        <time>2021-08-07T13:40:54.830Z</time>
      </trkpt>
      <trkpt lat="44.32876" lon="6.25905">
        <ele>1792.9136142658</ele>
        <time>2021-08-07T13:41:02.047Z</time>
      </trkpt>
      <trkpt lat="44.32882" lon="6.25927">
        <ele>1791.1155661608</ele>
        <time>2021-08-07T13:41:09.269Z</time>
      </trkpt>
      <trkpt lat="44.32889" lon="6.25941">
        <ele>1789.5785959794</ele>
        <time>2021-08-07T13:41:16.496Z</time>
      </trkpt>
      <trkpt lat="44.32902" lon="6.25953">
        <ele>1788.2741564711</ele>
        <time>2021-08-07T13:41:23.728Z</time>
      </trkpt>
      <trkpt lat="44.32918" lon="6.25964">
        <ele>1787.1316543903</ele>
        <time>2021-08-07T13:41:30.966Z</time>
      </trkpt>
      <trkpt lat="44.32931" lon="6.25976">
        <ele>1786.0973797431</ele>
        <time>2021-08-07T13:41:38.209Z</time>
      </trkpt>
      <trkpt lat="44.3298" lon="6.26068">
        <ele>1785.1808355433</ele>
        <time>2021-08-07T13:41:45.479Z</time>
      </trkpt>
      <trkpt lat="44.32999" lon="6.2609">
        <ele>1784.5764458653</ele>
        <time>2021-08-07T13:41:52.758Z</time>
      </trkpt>
      <trkpt lat="44.33021" lon="6.26127">
        <ele>1784.0766849389</ele>
        <time>2021-08-07T13:42:00.048Z</time>
      </trkpt>
      <trkpt lat="44.3305" lon="6.2618">
        <ele>1783.8341275594</ele>
        <time>2021-08-07T13:42:07.354Z</time>
      </trkpt>
      <trkpt lat="44.33078" lon="6.26241">
        <ele>1783.8598292726</ele>
        <time>2021-08-07T13:42:14.677Z</time>
      </trkpt>
      <trkpt lat="44.33085" lon="6.2626">
        <ele>1783.9619030496</ele>
        <time>2021-08-07T13:42:22.006Z</time>
      </trkpt>
      <trkpt lat="44.3309" lon="6.26275">
        <ele>1784.1521965444</ele>
        <time>2021-08-07T13:42:29.339Z</time>
      </trkpt>
      <trkpt lat="44.33097" lon="6.26316">
        <ele>1784.5250214819</ele>
        <time>2021-08-07T13:42:36.682Z</time>
      </trkpt>
      <trkpt lat="44.33105" lon="6.26337">
        <ele>1784.8687875175</ele>
        <time>2021-08-07T13:42:44.030Z</time>
      </trkpt>
      <trkpt lat="44.33108" lon="6.26359">
        <ele>1785.1761945979</ele>
        <time>2021-08-07T13:42:51.383Z</time>
      </trkpt>
      <trkpt lat="44.33124" lon="6.26401">
        <ele>1785.441894545</ele>
        <time>2021-08-07T13:42:58.748Z</time>
      </trkpt>
      <trkpt lat="44.33138" lon="6.26431">
        <ele>1785.6025855087</ele>
        <time>2021-08-07T13:43:06.122Z</time>
      </trkpt>
      <trkpt lat="44.33144" lon="6.26464">
        <ele>1785.8201930013</ele>
        <time>2021-08-07T13:43:13.504Z</time>
      </trkpt>
      <trkpt lat="44.33148" lon="6.2647">
        <ele>1785.9945049422</ele>
        <time>2021-08-07T13:43:20.887Z</time>
      </trkpt>
      <trkpt lat="44.3315" lon="6.26472">
        <ele>1786.0895907082</ele>
        <time>2021-08-07T13:43:28.271Z</time>
      </trkpt>
      <trkpt lat="44.33159" lon="6.26472">
        <ele>1786.066370685</ele>
        <time>2021-08-07T13:43:35.659Z</time>
      </trkpt>
      <trkpt lat="44.33179" lon="6.26471">
        <ele>1785.8887671052</ele>
        <time>2021-08-07T13:43:43.053Z</time>
      </trkpt>
      <trkpt lat="44.33192" lon="6.26475">
        <ele>1785.6804709996</ele>
        <time>2021-08-07T13:43:50.451Z</time>
      </trkpt>
      <trkpt lat="44.33208" lon="6.26468">
        <ele>1785.3125035981</ele>
        <time>2021-08-07T13:43:57.855Z</time>
      </trkpt>
      <trkpt lat="44.33215" lon="6.26467">
        <ele>1784.8555668829</ele>
        <time>2021-08-07T13:44:05.262Z</time>
      </trkpt>
      <trkpt lat="44.33223" lon="6.26471">
        <ele>1784.3126514735</ele>
        <time>2021-08-07T13:44:12.671Z</time>
      </trkpt>
      <trkpt lat="44.33237" lon="6.26443">
        <ele>1783.2281350094</ele>
        <time>2021-08-07T13:44:20.089Z</time>
      </trkpt>
      <trkpt lat="44.33242" lon="6.26437">
        <ele>1782.277012981</ele>
        <time>2021-08-07T13:44:27.509Z</time>
      </trkpt>
      <trkpt lat="44.3326" lon="6.2643">
        <ele>1781.199241988</ele>
        <time>2021-08-07T13:44:34.935Z</time>
      </trkpt>
      <trkpt lat="44.33298" lon="6.26427">
        <ele>1779.982839131</ele>
        <time>2021-08-07T13:44:42.374Z</time>
      </trkpt>
      <trkpt lat="44.33348" lon="6.26413">
        <ele>1776.8376992875</ele>
        <time>2021-08-07T13:44:49.830Z</time>
      </trkpt>
      <trkpt lat="44.33356" lon="6.26414">
        <ele>1775.139626726</ele>
        <time>2021-08-07T13:44:57.288Z</time>
      </trkpt>
      <trkpt lat="44.3337" lon="6.2642">
        <ele>1773.2783999553</ele>
        <time>2021-08-07T13:45:04.751Z</time>
      </trkpt>
      <trkpt lat="44.33389" lon="6.26418">
        <ele>1771.0881606511</ele>
        <time>2021-08-07T13:45:12.221Z</time>
      </trkpt>
      <trkpt lat="44.33392" lon="6.26419">
        <ele>1768.9592385623</ele>
        <time>2021-08-07T13:45:19.692Z</time>
      </trkpt>
      <trkpt lat="44.33398" lon="6.26418">
        <ele>1766.6468274402</ele>
        <time>2021-08-07T13:45:27.165Z</time>
      </trkpt>
      <trkpt lat="44.33408" lon="6.26408">
        <ele>1764.0429410871</ele>
        <time>2021-08-07T13:45:34.642Z</time>
      </trkpt>
      <trkpt lat="44.33422" lon="6.26415">
        <ele>1761.4620092906</ele>
        <time>2021-08-07T13:45:42.124Z</time>
      </trkpt>
      <trkpt lat="44.33436" lon="6.26429">
        <ele>1758.8060741469</ele>
        <time>2021-08-07T13:45:49.611Z</time>
      </trkpt>
      <trkpt lat="44.33466" lon="6.26449">
        <ele>1755.8048587202</ele>
        <time>2021-08-07T13:45:57.110Z</time>
      </trkpt>
      <trkpt lat="44.33478" lon="6.2646">
        <ele>1753.0203141743</ele>
        <time>2021-08-07T13:46:04.613Z</time>
      </trkpt>
      <trkpt lat="44.33486" lon="6.26468">
        <ele>1750.2530049755</ele>
        <time>2021-08-07T13:46:12.120Z</time>
      </trkpt>
      <trkpt lat="44.33502" lon="6.26496">
        <ele>1747.7035035859</ele>
        <time>2021-08-07T13:46:19.635Z</time>
      </trkpt>
      <trkpt lat="44.33533" lon="6.26525">
        <ele>1744.5994793248</ele>
        <time>2021-08-07T13:46:27.163Z</time>
      </trkpt>
      <trkpt lat="44.33546" lon="6.2654">
        <ele>1741.5194894533</ele>
        <time>2021-08-07T13:46:34.696Z</time>
      </trkpt>
      <trkpt lat="44.33563" lon="6.26555">
        <ele>1738.331084248</ele>
        <time>2021-08-07T13:46:42.236Z</time>
      </trkpt>
      <trkpt lat="44.33616" lon="6.26624">
        <ele>1735.3732540885</ele>
        <time>2021-08-07T13:46:49.800Z</time>
      </trkpt>
      <trkpt lat="44.33646" lon="6.26647">
        <ele>1732.4345558951</ele>
        <time>2021-08-07T13:46:57.376Z</time>
      </trkpt>
      <trkpt lat="44.33667" lon="6.2666">
        <ele>1729.4261649817</ele>
        <time>2021-08-07T13:47:04.959Z</time>
      </trkpt>
      <trkpt lat="44.33682" lon="6.26677">
        <ele>1726.4310012027</ele>
        <time>2021-08-07T13:47:12.549Z</time>
      </trkpt>
      <trkpt lat="44.33688" lon="6.26699">
        <ele>1723.5450460742</ele>
        <time>2021-08-07T13:47:20.144Z</time>
      </trkpt>
      <trkpt lat="44.3368" lon="6.26742">
        <ele>1720.7320542574</ele>
        <time>2021-08-07T13:47:27.750Z</time>
      </trkpt>
      <trkpt lat="44.33676" lon="6.26753">
        <ele>1717.9998191992</ele>
        <time>2021-08-07T13:47:35.359Z</time>
      </trkpt>
      <trkpt lat="44.33678" lon="6.26765">
        <ele>1715.2662827083</ele>
        <time>2021-08-07T13:47:42.971Z</time>
      </trkpt>
      <trkpt lat="44.33683" lon="6.26775">
        <ele>1712.5578011533</ele>
        <time>2021-08-07T13:47:50.586Z</time>
      </trkpt>
      <trkpt lat="44.33689" lon="6.2678">
        <ele>1709.920572772</ele>
        <time>2021-08-07T13:47:58.203Z</time>
      </trkpt>
      <trkpt lat="44.33694" lon="6.26779">
        <ele>1707.3822348473</ele>
        <time>2021-08-07T13:48:05.822Z</time>
      </trkpt>
      <trkpt lat="44.33701" lon="6.26765">
        <ele>1705.0177183075</ele>
        <time>2021-08-07T13:48:13.445Z</time>
      </trkpt>
      <trkpt lat="44.33703" lon="6.26763">
        <ele>1702.7276806122</ele>
        <time>2021-08-07T13:48:21.069Z</time>
      </trkpt>
      <trkpt lat="44.33704" lon="6.26765">
        <ele>1700.5219759274</ele>
        <time>2021-08-07T13:48:28.693Z</time>
      </trkpt>
      <trkpt lat="44.33721" lon="6.268">
        <ele>1697.8710769223</ele>
        <time>2021-08-07T13:48:36.327Z</time>
      </trkpt>
      <trkpt lat="44.33722" lon="6.26807">
        <ele>1695.8526483592</ele>
        <time>2021-08-07T13:48:43.963Z</time>
      </trkpt>
      <trkpt lat="44.33722" lon="6.26833">
        <ele>1693.9114092357</ele>
        <time>2021-08-07T13:48:51.605Z</time>
      </trkpt>
      <trkpt lat="44.33716" lon="6.2685">
        <ele>1692.2433014023</ele>
        <time>2021-08-07T13:48:59.252Z</time>
      </trkpt>
      <trkpt lat="44.33714" lon="6.26883">
        <ele>1690.6605581938</ele>
        <time>2021-08-07T13:49:06.907Z</time>
      </trkpt>
      <trkpt lat="44.33715" lon="6.26908">
        <ele>1689.2560118841</ele>
        <time>2021-08-07T13:49:14.568Z</time>
      </trkpt>
      <trkpt lat="44.33711" lon="6.26931">
        <ele>1688.0614415297</ele>
        <time>2021-08-07T13:49:22.234Z</time>
      </trkpt>
      <trkpt lat="44.33722" lon="6.26963">
        <ele>1686.8132880404</ele>
        <time>2021-08-07T13:49:29.909Z</time>
      </trkpt>
      <trkpt lat="44.33728" lon="6.26974">
        <ele>1685.8803338869</ele>
        <time>2021-08-07T13:49:37.587Z</time>
      </trkpt>
      <trkpt lat="44.33745" lon="6.26998">
        <ele>1685.0411857885</ele>
        <time>2021-08-07T13:49:45.273Z</time>
      </trkpt>
      <trkpt lat="44.33758" lon="6.27011">
        <ele>1684.4289742204</ele>
        <time>2021-08-07T13:49:52.964Z</time>
      </trkpt>
      <trkpt lat="44.33761" lon="6.27016">
        <ele>1684.0713011509</ele>
        <time>2021-08-07T13:50:00.657Z</time>
      </trkpt>
      <trkpt lat="44.33773" lon="6.27048">
        <ele>1683.854089716</ele>
        <time>2021-08-07T13:50:08.359Z</time>
      </trkpt>
      <trkpt lat="44.33776" lon="6.27074">
        <ele>1683.820485917</ele>
        <time>2021-08-07T13:50:16.067Z</time>
      </trkpt>
      <trkpt lat="44.33787" lon="6.27083">
        <ele>1683.859470086</ele>
        <time>2021-08-07T13:50:23.779Z</time>
      </trkpt>
      <trkpt lat="44.33792" lon="6.27096">
        <ele>1684.2352966748</ele>
        <time>2021-08-07T13:50:31.495Z</time>
      </trkpt>
      <trkpt lat="44.33787" lon="6.27115">
        <ele>1685.0096605073</ele>
        <time>2021-08-07T13:50:39.216Z</time>
      </trkpt>
      <trkpt lat="44.3379" lon="6.2713">
        <ele>1685.8829741595</ele>
        <time>2021-08-07T13:50:46.940Z</time>
      </trkpt>
      <trkpt lat="44.33804" lon="6.27159">
        <ele>1686.7506429453</ele>
        <time>2021-08-07T13:50:54.673Z</time>
      </trkpt>
      <trkpt lat="44.33848" lon="6.2733">
        <ele>1687.7775196293</ele>
        <time>2021-08-07T13:51:02.449Z</time>
      </trkpt>
      <trkpt lat="44.33861" lon="6.27366">
        <ele>1688.981760464</ele>
        <time>2021-08-07T13:51:10.235Z</time>
      </trkpt>
      <trkpt lat="44.33863" lon="6.27407">
        <ele>1690.7944235437</ele>
        <time>2021-08-07T13:51:18.031Z</time>
      </trkpt>
      <trkpt lat="44.3386" lon="6.27421">
        <ele>1692.4830141056</ele>
        <time>2021-08-07T13:51:25.830Z</time>
      </trkpt>
      <trkpt lat="44.33861" lon="6.27438">
        <ele>1694.3111762384</ele>
        <time>2021-08-07T13:51:33.633Z</time>
      </trkpt>
      <trkpt lat="44.33864" lon="6.27443">
        <ele>1696.0861676724</ele>
        <time>2021-08-07T13:51:41.438Z</time>
      </trkpt>
      <trkpt lat="44.33875" lon="6.27452">
        <ele>1697.9740423972</ele>
        <time>2021-08-07T13:51:49.247Z</time>
      </trkpt>
      <trkpt lat="44.3389" lon="6.27462">
        <ele>1699.9238046516</ele>
        <time>2021-08-07T13:51:57.061Z</time>
      </trkpt>
      <trkpt lat="44.33906" lon="6.27477">
        <ele>1701.9299157659</ele>
        <time>2021-08-07T13:52:04.882Z</time>
      </trkpt>
      <trkpt lat="44.33941" lon="6.27513">
        <ele>1704.0064972485</ele>
        <time>2021-08-07T13:52:12.717Z</time>
      </trkpt>
      <trkpt lat="44.34022" lon="6.27585">
        <ele>1706.2910312103</ele>
        <time>2021-08-07T13:52:20.584Z</time>
      </trkpt>
      <trkpt lat="44.34036" lon="6.27595">
        <ele>1708.4491858195</ele>
        <time>2021-08-07T13:52:28.457Z</time>
      </trkpt>
      <trkpt lat="44.34057" lon="6.27608">
        <ele>1710.5926562626</ele>
        <time>2021-08-07T13:52:36.337Z</time>
      </trkpt>
      <trkpt lat="44.34075" lon="6.27611">
        <ele>1712.6013283808</ele>
        <time>2021-08-07T13:52:44.223Z</time>
      </trkpt>
      <trkpt lat="44.34083" lon="6.27614">
        <ele>1714.6617274528</ele>
        <time>2021-08-07T13:52:52.112Z</time>
      </trkpt>
      <trkpt lat="44.34104" lon="6.27638">
        <ele>1716.8791240251</ele>
        <time>2021-08-07T13:53:00.010Z</time>
      </trkpt>
      <trkpt lat="44.34119" lon="6.27652">
        <ele>1718.9473073274</ele>
        <time>2021-08-07T13:53:07.914Z</time>
      </trkpt>
      <trkpt lat="44.34148" lon="6.27663">
        <ele>1720.8314854362</ele>
        <time>2021-08-07T13:53:15.828Z</time>
      </trkpt>
      <trkpt lat="44.34159" lon="6.27666">
        <ele>1722.6856324358</ele>
        <time>2021-08-07T13:53:23.746Z</time>
      </trkpt>
      <trkpt lat="44.34183" lon="6.27693">
        <ele>1724.800871305</ele>
        <time>2021-08-07T13:53:31.674Z</time>
      </trkpt>
      <trkpt lat="44.342" lon="6.27693">
        <ele>1726.355397081</ele>
        <time>2021-08-07T13:53:39.608Z</time>
      </trkpt>
      <trkpt lat="44.34232" lon="6.27706">
        <ele>1727.9434326319</ele>
        <time>2021-08-07T13:53:47.553Z</time>
      </trkpt>
      <trkpt lat="44.34251" lon="6.27712">
        <ele>1729.4815499782</ele>
        <time>2021-08-07T13:53:55.505Z</time>
      </trkpt>
      <trkpt lat="44.34274" lon="6.27716">
        <ele>1730.9711325567</ele>
        <time>2021-08-07T13:54:03.464Z</time>
      </trkpt>
      <trkpt lat="44.34287" lon="6.27716">
        <ele>1732.2713477081</ele>
        <time>2021-08-07T13:54:11.428Z</time>
      </trkpt>
      <trkpt lat="44.34297" lon="6.27715">
        <ele>1733.3636183315</ele>
        <time>2021-08-07T13:54:19.395Z</time>
      </trkpt>
      <trkpt lat="44.34323" lon="6.27696">
        <ele>1733.9996205783</ele>
        <time>2021-08-07T13:54:27.372Z</time>
      </trkpt>
      <trkpt lat="44.34327" lon="6.27695">
        <ele>1734.6977989243</ele>
        <time>2021-08-07T13:54:35.350Z</time>
      </trkpt>
      <trkpt lat="44.34349" lon="6.27684">
        <ele>1734.959098741</ele>
        <time>2021-08-07T13:54:43.336Z</time>
      </trkpt>
      <trkpt lat="44.34356" lon="6.27685">
        <ele>1735.2675780754</ele>
        <time>2021-08-07T13:54:51.324Z</time>
      </trkpt>
      <trkpt lat="44.34368" lon="6.27697">
        <ele>1735.7916565329</ele>
        <time>2021-08-07T13:54:59.317Z</time>
      </trkpt>
      <trkpt lat="44.34378" lon="6.27709">
        <ele>1736.1036288002</ele>
        <time>2021-08-07T13:55:07.314Z</time>
      </trkpt>
      <trkpt lat="44.34392" lon="6.2772">
        <ele>1736.1818671416</ele>
        <time>2021-08-07T13:55:15.317Z</time>
      </trkpt>
      <trkpt lat="44.34408" lon="6.27718">
        <ele>1735.6648220297</ele>
        <time>2021-08-07T13:55:23.325Z</time>
      </trkpt>
      <trkpt lat="44.34427" lon="6.27711">
        <ele>1734.5608267879</ele>
        <time>2021-08-07T13:55:31.340Z</time>
      </trkpt>
      <trkpt lat="44.34437" lon="6.27695">
        <ele>1733.0159495257</ele>
        <time>2021-08-07T13:55:39.360Z</time>
      </trkpt>
      <trkpt lat="44.3445" lon="6.27688">
        <ele>1731.6793427583</ele>
        <time>2021-08-07T13:55:47.384Z</time>
      </trkpt>
      <trkpt lat="44.34472" lon="6.27683">
        <ele>1730.344461899</ele>
        <time>2021-08-07T13:55:55.416Z</time>
      </trkpt>
      <trkpt lat="44.34486" lon="6.27686">
        <ele>1728.9424045263</ele>
        <time>2021-08-07T13:56:03.452Z</time>
      </trkpt>
      <trkpt lat="44.34518" lon="6.27672">
        <ele>1726.939612749</ele>
        <time>2021-08-07T13:56:11.500Z</time>
      </trkpt>
      <trkpt lat="44.34553" lon="6.27658">
        <ele>1724.7752900885</ele>
        <time>2021-08-07T13:56:19.560Z</time>
      </trkpt>
      <trkpt lat="44.34584" lon="6.27638">
        <ele>1722.3952395164</ele>
        <time>2021-08-07T13:56:27.631Z</time>
      </trkpt>
      <trkpt lat="44.34602" lon="6.27631">
        <ele>1719.8840575257</ele>
        <time>2021-08-07T13:56:35.708Z</time>
      </trkpt>
      <trkpt lat="44.3463" lon="6.27614">
        <ele>1716.9643958263</ele>
        <time>2021-08-07T13:56:43.796Z</time>
      </trkpt>
      <trkpt lat="44.34642" lon="6.2761">
        <ele>1714.1657273834</ele>
        <time>2021-08-07T13:56:51.888Z</time>
      </trkpt>
      <trkpt lat="44.34656" lon="6.27606">
        <ele>1711.2712744948</ele>
        <time>2021-08-07T13:56:59.985Z</time>
      </trkpt>
      <trkpt lat="44.347" lon="6.27603">
        <ele>1708.0876493632</ele>
        <time>2021-08-07T13:57:08.096Z</time>
      </trkpt>
      <trkpt lat="44.34714" lon="6.27605">
        <ele>1704.9971076623</ele>
        <time>2021-08-07T13:57:16.212Z</time>
      </trkpt>
      <trkpt lat="44.34737" lon="6.27611">
        <ele>1701.5872651128</ele>
        <time>2021-08-07T13:57:24.336Z</time>
      </trkpt>
      <trkpt lat="44.34753" lon="6.27612">
        <ele>1698.2494848752</ele>
        <time>2021-08-07T13:57:32.465Z</time>
      </trkpt>
      <trkpt lat="44.34786" lon="6.27611">
        <ele>1694.6895526937</ele>
        <time>2021-08-07T13:57:40.605Z</time>
      </trkpt>
      <trkpt lat="44.34837" lon="6.27605">
        <ele>1691.0446392272</ele>
        <time>2021-08-07T13:57:48.762Z</time>
      </trkpt>
      <trkpt lat="44.34844" lon="6.27603">
        <ele>1687.5610686521</ele>
        <time>2021-08-07T13:57:56.921Z</time>
      </trkpt>
      <trkpt lat="44.34864" lon="6.27591">
        <ele>1684.041339614</ele>
        <time>2021-08-07T13:58:05.088Z</time>
      </trkpt>
      <trkpt lat="44.3487" lon="6.27586">
        <ele>1680.4325640643</ele>
        <time>2021-08-07T13:58:13.257Z</time>
      </trkpt>
      <trkpt lat="44.3488" lon="6.27571">
        <ele>1676.7613154337</ele>
        <time>2021-08-07T13:58:21.431Z</time>
      </trkpt>
      <trkpt lat="44.34886" lon="6.27542">
        <ele>1673.0184492515</ele>
        <time>2021-08-07T13:58:29.612Z</time>
      </trkpt>
      <trkpt lat="44.34886" lon="6.27516">
        <ele>1669.0734777263</ele>
        <time>2021-08-07T13:58:37.799Z</time>
      </trkpt>
      <trkpt lat="44.34879" lon="6.27495">
        <ele>1665.0917472038</ele>
        <time>2021-08-07T13:58:45.992Z</time>
      </trkpt>
      <trkpt lat="44.34831" lon="6.27411">
        <ele>1661.1627032396</ele>
        <time>2021-08-07T13:58:54.210Z</time>
      </trkpt>
      <trkpt lat="44.34829" lon="6.27402">
        <ele>1657.0815571277</ele>
        <time>2021-08-07T13:59:02.431Z</time>
      </trkpt>
      <trkpt lat="44.34829" lon="6.27393">
        <ele>1652.883906296</ele>
        <time>2021-08-07T13:59:10.654Z</time>
      </trkpt>
      <trkpt lat="44.34834" lon="6.27377">
        <ele>1648.4851047352</ele>
        <time>2021-08-07T13:59:18.881Z</time>
      </trkpt>
      <trkpt lat="44.34846" lon="6.27364">
        <ele>1644.0182398661</ele>
        <time>2021-08-07T13:59:27.113Z</time>
      </trkpt>
      <trkpt lat="44.34874" lon="6.27344">
        <ele>1639.4130480117</ele>
        <time>2021-08-07T13:59:35.356Z</time>
      </trkpt>
      <trkpt lat="44.34967" lon="6.27305">
        <ele>1634.4522795491</ele>
        <time>2021-08-07T13:59:43.631Z</time>
      </trkpt>
      <trkpt lat="44.35007" lon="6.27285">
        <ele>1629.8728297412</ele>
        <time>2021-08-07T13:59:51.920Z</time>
      </trkpt>
      <trkpt lat="44.35053" lon="6.27256">
        <ele>1625.2868270438</ele>
        <time>2021-08-07T14:00:00.226Z</time>
      </trkpt>
      <trkpt lat="44.35061" lon="6.27254">
        <ele>1621.1593659589</ele>
        <time>2021-08-07T14:00:08.535Z</time>
      </trkpt>
      <trkpt lat="44.35069" lon="6.27256">
        <ele>1617.0699997304</ele>
        <time>2021-08-07T14:00:16.846Z</time>
      </trkpt>
      <trkpt lat="44.35075" lon="6.27259">
        <ele>1613.0510242512</ele>
        <time>2021-08-07T14:00:25.160Z</time>
      </trkpt>
      <trkpt lat="44.35095" lon="6.27273">
        <ele>1608.9715567684</ele>
        <time>2021-08-07T14:00:33.481Z</time>
      </trkpt>
      <trkpt lat="44.35108" lon="6.2728">
        <ele>1605.0792603611</ele>
        <time>2021-08-07T14:00:41.807Z</time>
      </trkpt>
      <trkpt lat="44.35148" lon="6.27289">
        <ele>1601.2069844473</ele>
        <time>2021-08-07T14:00:50.146Z</time>
      </trkpt>
      <trkpt lat="44.35173" lon="6.27302">
        <ele>1597.5446200044</ele>
        <time>2021-08-07T14:00:58.494Z</time>
      </trkpt>
      <trkpt lat="44.35179" lon="6.27309">
        <ele>1594.138238777</ele>
        <time>2021-08-07T14:01:06.845Z</time>
      </trkpt>
      <trkpt lat="44.3519" lon="6.27338">
        <ele>1590.700519926</ele>
        <time>2021-08-07T14:01:15.204Z</time>
      </trkpt>
      <trkpt lat="44.35205" lon="6.27364">
        <ele>1587.4918572578</ele>
        <time>2021-08-07T14:01:23.570Z</time>
      </trkpt>
      <trkpt lat="44.35256" lon="6.27416">
        <ele>1584.4227844775</ele>
        <time>2021-08-07T14:01:31.958Z</time>
      </trkpt>
      <trkpt lat="44.3526" lon="6.27426">
        <ele>1581.7719593872</ele>
        <time>2021-08-07T14:01:40.348Z</time>
      </trkpt>
      <trkpt lat="44.35263" lon="6.27429">
        <ele>1579.3110955694</ele>
        <time>2021-08-07T14:01:48.740Z</time>
      </trkpt>
      <trkpt lat="44.35272" lon="6.2745">
        <ele>1577.0291043304</ele>
        <time>2021-08-07T14:01:57.137Z</time>
      </trkpt>
      <trkpt lat="44.35286" lon="6.2749">
        <ele>1574.8415263647</ele>
        <time>2021-08-07T14:02:05.545Z</time>
      </trkpt>
      <trkpt lat="44.35292" lon="6.2754">
        <ele>1572.825245167</ele>
        <time>2021-08-07T14:02:13.965Z</time>
      </trkpt>
      <trkpt lat="44.35304" lon="6.2758">
        <ele>1571.0741820288</ele>
        <time>2021-08-07T14:02:22.396Z</time>
      </trkpt>
      <trkpt lat="44.35315" lon="6.27635">
        <ele>1569.3469291634</ele>
        <time>2021-08-07T14:02:30.840Z</time>
      </trkpt>
      <trkpt lat="44.3531" lon="6.27637">
        <ele>1568.1488374795</ele>
        <time>2021-08-07T14:02:39.286Z</time>
      </trkpt>
      <trkpt lat="44.35307" lon="6.27636">
        <ele>1567.1926256026</ele>
        <time>2021-08-07T14:02:47.733Z</time>
      </trkpt>
      <trkpt lat="44.353" lon="6.27626">
        <ele>1566.4964605707</ele>
        <time>2021-08-07T14:02:56.183Z</time>
      </trkpt>
      <trkpt lat="44.35282" lon="6.27595">
        <ele>1566.0339675135</ele>
        <time>2021-08-07T14:03:04.643Z</time>
      </trkpt>
      <trkpt lat="44.35242" lon="6.27558">
        <ele>1565.6997480185</ele>
        <time>2021-08-07T14:03:13.119Z</time>
      </trkpt>
      <trkpt lat="44.35214" lon="6.27523">
        <ele>1565.7196504534</ele>
        <time>2021-08-07T14:03:21.607Z</time>
      </trkpt>
      <trkpt lat="44.35202" lon="6.2752">
        <ele>1565.8504927125</ele>
        <time>2021-08-07T14:03:30.099Z</time>
      </trkpt>
      <trkpt lat="44.35198" lon="6.27524">
        <ele>1566.1547436728</ele>
        <time>2021-08-07T14:03:38.593Z</time>
      </trkpt>
      <trkpt lat="44.35195" lon="6.27529">
        <ele>1566.6407341906</ele>
        <time>2021-08-07T14:03:47.089Z</time>
      </trkpt>
      <trkpt lat="44.35195" lon="6.27539">
        <ele>1567.2991918278</ele>
        <time>2021-08-07T14:03:55.587Z</time>
      </trkpt>
      <trkpt lat="44.35192" lon="6.27548">
        <ele>1568.139153694</ele>
        <time>2021-08-07T14:04:04.087Z</time>
      </trkpt>
      <trkpt lat="44.35188" lon="6.27606">
        <ele>1568.9601183563</ele>
        <time>2021-08-07T14:04:12.601Z</time>
      </trkpt>
      <trkpt lat="44.35181" lon="6.27641">
        <ele>1570.2803553347</ele>
        <time>2021-08-07T14:04:21.124Z</time>
      </trkpt>
      <trkpt lat="44.3518" lon="6.27683">
        <ele>1571.696899217</ele>
        <time>2021-08-07T14:04:29.657Z</time>
      </trkpt>
      <trkpt lat="44.35175" lon="6.27707">
        <ele>1573.2797665246</ele>
        <time>2021-08-07T14:04:38.196Z</time>
      </trkpt>
      <trkpt lat="44.35166" lon="6.27729">
        <ele>1575.035033068</ele>
        <time>2021-08-07T14:04:46.741Z</time>
      </trkpt>
      <trkpt lat="44.35141" lon="6.2777">
        <ele>1577.1030690179</ele>
        <time>2021-08-07T14:04:55.299Z</time>
      </trkpt>
      <trkpt lat="44.35128" lon="6.27799">
        <ele>1578.901149613</ele>
        <time>2021-08-07T14:05:03.865Z</time>
      </trkpt>
      <trkpt lat="44.35116" lon="6.2784">
        <ele>1580.8488078841</ele>
        <time>2021-08-07T14:05:12.442Z</time>
      </trkpt>
      <trkpt lat="44.35101" lon="6.27882">
        <ele>1582.9119065492</ele>
        <time>2021-08-07T14:05:21.030Z</time>
      </trkpt>
      <trkpt lat="44.35093" lon="6.279">
        <ele>1584.8112386153</ele>
        <time>2021-08-07T14:05:29.623Z</time>
      </trkpt>
      <trkpt lat="44.35082" lon="6.27915">
        <ele>1586.7371533946</ele>
        <time>2021-08-07T14:05:38.221Z</time>
      </trkpt>
      <trkpt lat="44.35065" lon="6.27925">
        <ele>1588.7139840738</ele>
        <time>2021-08-07T14:05:46.825Z</time>
      </trkpt>
      <trkpt lat="44.35045" lon="6.27926">
        <ele>1590.6618163175</ele>
        <time>2021-08-07T14:05:55.436Z</time>
      </trkpt>
      <trkpt lat="44.35008" lon="6.27915">
        <ele>1592.6551350604</ele>
        <time>2021-08-07T14:06:04.060Z</time>
      </trkpt>
      <trkpt lat="44.34988" lon="6.27905">
        <ele>1594.6479026594</ele>
        <time>2021-08-07T14:06:12.691Z</time>
      </trkpt>
      <trkpt lat="44.34966" lon="6.27881">
        <ele>1596.7779207062</ele>
        <time>2021-08-07T14:06:21.331Z</time>
      </trkpt>
      <trkpt lat="44.34933" lon="6.27826">
        <ele>1599.0525976084</ele>
        <time>2021-08-07T14:06:29.988Z</time>
      </trkpt>
      <trkpt lat="44.34912" lon="6.27805">
        <ele>1600.9656924731</ele>
        <time>2021-08-07T14:06:38.654Z</time>
      </trkpt>
      <trkpt lat="44.34905" lon="6.27804">
        <ele>1602.8737683563</ele>
        <time>2021-08-07T14:06:47.322Z</time>
      </trkpt>
      <trkpt lat="44.34903" lon="6.27806">
        <ele>1604.654616734</ele>
        <time>2021-08-07T14:06:55.991Z</time>
      </trkpt>
      <trkpt lat="44.349" lon="6.27821">
        <ele>1606.3147837197</ele>
        <time>2021-08-07T14:07:04.664Z</time>
      </trkpt>
      <trkpt lat="44.34899" lon="6.27851">
        <ele>1607.7985978053</ele>
        <time>2021-08-07T14:07:13.344Z</time>
      </trkpt>
      <trkpt lat="44.34896" lon="6.27878">
        <ele>1609.3590889113</ele>
        <time>2021-08-07T14:07:22.031Z</time>
      </trkpt>
      <trkpt lat="44.34895" lon="6.27992">
        <ele>1610.5630323028</ele>
        <time>2021-08-07T14:07:30.745Z</time>
      </trkpt>
      <trkpt lat="44.34891" lon="6.28">
        <ele>1612.0074586916</ele>
        <time>2021-08-07T14:07:39.461Z</time>
      </trkpt>
      <trkpt lat="44.34884" lon="6.28006">
        <ele>1613.3809059091</ele>
        <time>2021-08-07T14:07:48.180Z</time>
      </trkpt>
      <trkpt lat="44.3486" lon="6.28013">
        <ele>1614.8387215685</ele>
        <time>2021-08-07T14:07:56.907Z</time>
      </trkpt>
      <trkpt lat="44.34842" lon="6.28015">
        <ele>1616.2579781983</ele>
        <time>2021-08-07T14:08:05.640Z</time>
      </trkpt>
      <trkpt lat="44.34835" lon="6.28014">
        <ele>1617.4464581842</ele>
        <time>2021-08-07T14:08:14.375Z</time>
      </trkpt>
      <trkpt lat="44.34825" lon="6.28016">
        <ele>1618.5633653245</ele>
        <time>2021-08-07T14:08:23.114Z</time>
      </trkpt>
      <trkpt lat="44.34821" lon="6.28024">
        <ele>1619.4727460512</ele>
        <time>2021-08-07T14:08:31.855Z</time>
      </trkpt>
      <trkpt lat="44.34823" lon="6.28055">
        <ele>1620.147152323</ele>
        <time>2021-08-07T14:08:40.603Z</time>
      </trkpt>
      <trkpt lat="44.34829" lon="6.2807">
        <ele>1620.7059273176</ele>
        <time>2021-08-07T14:08:49.356Z</time>
      </trkpt>
      <trkpt lat="44.34846" lon="6.28093">
        <ele>1620.9825736595</ele>
        <time>2021-08-07T14:08:58.116Z</time>
      </trkpt>
      <trkpt lat="44.34876" lon="6.28143">
        <ele>1621.2523312113</ele>
        <time>2021-08-07T14:09:06.892Z</time>
      </trkpt>
      <trkpt lat="44.34896" lon="6.2817">
        <ele>1621.4252643001</ele>
        <time>2021-08-07T14:09:15.677Z</time>
      </trkpt>
      <trkpt lat="44.34916" lon="6.28191">
        <ele>1621.4227621093</ele>
        <time>2021-08-07T14:09:24.471Z</time>
      </trkpt>
      <trkpt lat="44.34952" lon="6.28235">
        <ele>1621.5705853463</ele>
        <time>2021-08-07T14:09:33.281Z</time>
      </trkpt>
      <trkpt lat="44.34964" lon="6.28257">
        <ele>1621.4829041589</ele>
        <time>2021-08-07T14:09:42.097Z</time>
      </trkpt>
      <trkpt lat="44.34973" lon="6.28285">
        <ele>1621.2154307193</ele>
        <time>2021-08-07T14:09:50.921Z</time>
      </trkpt>
      <trkpt lat="44.34973" lon="6.28306">
        <ele>1620.8115889477</ele>
        <time>2021-08-07T14:09:59.750Z</time>
      </trkpt>
      <trkpt lat="44.34966" lon="6.28357">
        <ele>1620.3306779439</ele>
        <time>2021-08-07T14:10:08.591Z</time>
      </trkpt>
      <trkpt lat="44.34955" lon="6.2837">
        <ele>1619.5620764158</ele>
        <time>2021-08-07T14:10:17.437Z</time>
      </trkpt>
      <trkpt lat="44.34924" lon="6.28387">
        <ele>1618.6492714195</ele>
        <time>2021-08-07T14:10:26.294Z</time>
      </trkpt>
      <trkpt lat="44.34905" lon="6.2839">
        <ele>1617.6789459587</ele>
        <time>2021-08-07T14:10:35.157Z</time>
      </trkpt>
      <trkpt lat="44.34864" lon="6.28405">
        <ele>1616.5599669525</ele>
        <time>2021-08-07T14:10:44.034Z</time>
      </trkpt>
      <trkpt lat="44.34841" lon="6.28422">
        <ele>1615.1872456099</ele>
        <time>2021-08-07T14:10:52.920Z</time>
      </trkpt>
      <trkpt lat="44.34818" lon="6.28434">
        <ele>1613.8621783494</ele>
        <time>2021-08-07T14:11:01.814Z</time>
      </trkpt>
      <trkpt lat="44.34805" lon="6.28442">
        <ele>1612.194427916</ele>
        <time>2021-08-07T14:11:10.713Z</time>
      </trkpt>
      <trkpt lat="44.34792" lon="6.28448">
        <ele>1610.5574277309</ele>
        <time>2021-08-07T14:11:19.617Z</time>
      </trkpt>
      <trkpt lat="44.34776" lon="6.28446">
        <ele>1608.9495704169</ele>
        <time>2021-08-07T14:11:28.526Z</time>
      </trkpt>
      <trkpt lat="44.34761" lon="6.28441">
        <ele>1607.4019156254</ele>
        <time>2021-08-07T14:11:37.440Z</time>
      </trkpt>
      <trkpt lat="44.34747" lon="6.28433">
        <ele>1605.8793706577</ele>
        <time>2021-08-07T14:11:46.359Z</time>
      </trkpt>
      <trkpt lat="44.34732" lon="6.28428">
        <ele>1604.2170672423</ele>
        <time>2021-08-07T14:11:55.283Z</time>
      </trkpt>
      <trkpt lat="44.34719" lon="6.28429">
        <ele>1602.468158478</ele>
        <time>2021-08-07T14:12:04.212Z</time>
      </trkpt>
      <trkpt lat="44.34708" lon="6.28439">
        <ele>1600.6184281126</ele>
        <time>2021-08-07T14:12:13.145Z</time>
      </trkpt>
      <trkpt lat="44.34703" lon="6.28447">
        <ele>1598.7481931813</ele>
        <time>2021-08-07T14:12:22.080Z</time>
      </trkpt>
      <trkpt lat="44.34701" lon="6.28465">
        <ele>1596.8468834956</ele>
        <time>2021-08-07T14:12:31.020Z</time>
      </trkpt>
      <trkpt lat="44.34717" lon="6.28556">
        <ele>1594.7130570853</ele>
        <time>2021-08-07T14:12:39.982Z</time>
      </trkpt>
      <trkpt lat="44.34716" lon="6.28574">
        <ele>1592.9830889563</ele>
        <time>2021-08-07T14:12:48.949Z</time>
      </trkpt>
      <trkpt lat="44.34712" lon="6.28583">
        <ele>1591.366422623</ele>
        <time>2021-08-07T14:12:57.918Z</time>
      </trkpt>
      <trkpt lat="44.34696" lon="6.28604">
        <ele>1589.7936846135</ele>
        <time>2021-08-07T14:13:06.894Z</time>
      </trkpt>
      <trkpt lat="44.34682" lon="6.28616">
        <ele>1588.3378638827</ele>
        <time>2021-08-07T14:13:15.876Z</time>
      </trkpt>
      <trkpt lat="44.3463" lon="6.28657">
        <ele>1587.1097504004</ele>
        <time>2021-08-07T14:13:24.878Z</time>
      </trkpt>
      <trkpt lat="44.34604" lon="6.28676">
        <ele>1585.7154870296</ele>
        <time>2021-08-07T14:13:33.890Z</time>
      </trkpt>
      <trkpt lat="44.34594" lon="6.28689">
        <ele>1584.5004769553</ele>
        <time>2021-08-07T14:13:42.906Z</time>
      </trkpt>
      <trkpt lat="44.34585" lon="6.28721">
        <ele>1583.3181230566</ele>
        <time>2021-08-07T14:13:51.930Z</time>
      </trkpt>
      <trkpt lat="44.34582" lon="6.28743">
        <ele>1582.4185772</ele>
        <time>2021-08-07T14:14:00.959Z</time>
      </trkpt>
      <trkpt lat="44.34579" lon="6.28748">
        <ele>1581.7713715116</ele>
        <time>2021-08-07T14:14:09.990Z</time>
      </trkpt>
      <trkpt lat="44.34566" lon="6.28756">
        <ele>1581.3752078289</ele>
        <time>2021-08-07T14:14:19.026Z</time>
      </trkpt>
      <trkpt lat="44.34541" lon="6.28765">
        <ele>1581.262718802</ele>
        <time>2021-08-07T14:14:28.070Z</time>
      </trkpt>
      <trkpt lat="44.34515" lon="6.28774">
        <ele>1581.0821049414</ele>
        <time>2021-08-07T14:14:37.123Z</time>
      </trkpt>
      <trkpt lat="44.34498" lon="6.28777">
        <ele>1581.0675118842</ele>
        <time>2021-08-07T14:14:46.182Z</time>
      </trkpt>
      <trkpt lat="44.34489" lon="6.28784">
        <ele>1581.287742994</ele>
        <time>2021-08-07T14:14:55.245Z</time>
      </trkpt>
      <trkpt lat="44.34484" lon="6.28796">
        <ele>1581.631926883</ele>
        <time>2021-08-07T14:15:04.311Z</time>
      </trkpt>
      <trkpt lat="44.34484" lon="6.28802">
        <ele>1582.0652724946</ele>
        <time>2021-08-07T14:15:13.378Z</time>
      </trkpt>
      <trkpt lat="44.3449" lon="6.28819">
        <ele>1582.6175119496</ele>
        <time>2021-08-07T14:15:22.450Z</time>
      </trkpt>
      <trkpt lat="44.34545" lon="6.28884">
        <ele>1582.9307172006</ele>
        <time>2021-08-07T14:15:31.546Z</time>
      </trkpt>
      <trkpt lat="44.34554" lon="6.28903">
        <ele>1583.6821705715</ele>
        <time>2021-08-07T14:15:40.647Z</time>
      </trkpt>
      <trkpt lat="44.34557" lon="6.28914">
        <ele>1584.567035241</ele>
        <time>2021-08-07T14:15:49.751Z</time>
      </trkpt>
      <trkpt lat="44.34554" lon="6.28936">
        <ele>1585.6099389397</ele>
        <time>2021-08-07T14:15:58.861Z</time>
      </trkpt>
      <trkpt lat="44.34541" lon="6.28956">
        <ele>1586.8593832897</ele>
        <time>2021-08-07T14:16:07.977Z</time>
      </trkpt>
      <trkpt lat="44.34494" lon="6.28996">
        <ele>1588.6217772833</ele>
        <time>2021-08-07T14:16:17.111Z</time>
      </trkpt>
      <trkpt lat="44.34488" lon="6.29007">
        <ele>1589.9464727646</ele>
        <time>2021-08-07T14:16:26.249Z</time>
      </trkpt>
      <trkpt lat="44.34488" lon="6.29016">
        <ele>1591.1615808087</ele>
        <time>2021-08-07T14:16:35.389Z</time>
      </trkpt>
      <trkpt lat="44.34491" lon="6.29025">
        <ele>1592.3343555403</ele>
        <time>2021-08-07T14:16:44.531Z</time>
      </trkpt>
      <trkpt lat="44.34502" lon="6.29036">
        <ele>1593.4272199659</ele>
        <time>2021-08-07T14:16:53.678Z</time>
      </trkpt>
      <trkpt lat="44.34563" lon="6.29063">
        <ele>1594.4230705156</ele>
        <time>2021-08-07T14:17:02.846Z</time>
      </trkpt>
      <trkpt lat="44.34594" lon="6.2908">
        <ele>1595.6764803427</ele>
        <time>2021-08-07T14:17:12.025Z</time>
      </trkpt>
      <trkpt lat="44.346" lon="6.29085">
        <ele>1596.7684199096</ele>
        <time>2021-08-07T14:17:21.206Z</time>
      </trkpt>
      <trkpt lat="44.34609" lon="6.291">
        <ele>1597.8755266966</ele>
        <time>2021-08-07T14:17:30.392Z</time>
      </trkpt>
      <trkpt lat="44.34616" lon="6.29129">
        <ele>1598.8645229146</ele>
        <time>2021-08-07T14:17:39.585Z</time>
      </trkpt>
      <trkpt lat="44.34619" lon="6.29216">
        <ele>1599.856116684</ele>
        <time>2021-08-07T14:17:48.799Z</time>
      </trkpt>
      <trkpt lat="44.34625" lon="6.29241">
        <ele>1600.7057764847</ele>
        <time>2021-08-07T14:17:58.020Z</time>
      </trkpt>
      <trkpt lat="44.34637" lon="6.29256">
        <ele>1601.4766188713</ele>
        <time>2021-08-07T14:18:07.246Z</time>
      </trkpt>
      <trkpt lat="44.34656" lon="6.29258">
        <ele>1602.2155514577</ele>
        <time>2021-08-07T14:18:16.478Z</time>
      </trkpt>
      <trkpt lat="44.34699" lon="6.29235">
        <ele>1602.8738033109</ele>
        <time>2021-08-07T14:18:25.726Z</time>
      </trkpt>
      <trkpt lat="44.34721" lon="6.29232">
        <ele>1603.4225956721</ele>
        <time>2021-08-07T14:18:34.981Z</time>
      </trkpt>
      <trkpt lat="44.34739" lon="6.29239">
        <ele>1603.8855467662</ele>
        <time>2021-08-07T14:18:44.242Z</time>
      </trkpt>
      <trkpt lat="44.34762" lon="6.29268">
        <ele>1604.3792433182</ele>
        <time>2021-08-07T14:18:53.514Z</time>
      </trkpt>
      <trkpt lat="44.34766" lon="6.29267">
        <ele>1604.7639610266</ele>
        <time>2021-08-07T14:19:02.787Z</time>
      </trkpt>
      <trkpt lat="44.34763" lon="6.29267">
        <ele>1605.1573507881</ele>
        <time>2021-08-07T14:19:12.061Z</time>
      </trkpt>
      <trkpt lat="44.34768" lon="6.29289">
        <ele>1605.5018872307</ele>
        <time>2021-08-07T14:19:21.341Z</time>
      </trkpt>
      <trkpt lat="44.34766" lon="6.29321">
        <ele>1605.8286055698</ele>
        <time>2021-08-07T14:19:30.629Z</time>
      </trkpt>
      <trkpt lat="44.34754" lon="6.29382">
        <ele>1606.1139821493</ele>
        <time>2021-08-07T14:19:39.932Z</time>
      </trkpt>
      <trkpt lat="44.3475" lon="6.29432">
        <ele>1606.4632882716</ele>
        <time>2021-08-07T14:19:49.247Z</time>
      </trkpt>
      <trkpt lat="44.34743" lon="6.29481">
        <ele>1606.6701035246</ele>
        <time>2021-08-07T14:19:58.574Z</time>
      </trkpt>
      <trkpt lat="44.34717" lon="6.29598">
        <ele>1606.5184782823</ele>
        <time>2021-08-07T14:20:07.930Z</time>
      </trkpt>
      <trkpt lat="44.34715" lon="6.2963">
        <ele>1606.484025228</ele>
        <time>2021-08-07T14:20:17.294Z</time>
      </trkpt>
      <trkpt lat="44.3471" lon="6.29647">
        <ele>1606.5396997464</ele>
        <time>2021-08-07T14:20:26.662Z</time>
      </trkpt>
      <trkpt lat="44.34699" lon="6.29668">
        <ele>1606.6440122085</ele>
        <time>2021-08-07T14:20:36.036Z</time>
      </trkpt>
      <trkpt lat="44.34689" lon="6.2971">
        <ele>1606.793171694</ele>
        <time>2021-08-07T14:20:45.421Z</time>
      </trkpt>
      <trkpt lat="44.34681" lon="6.29751">
        <ele>1606.9538792525</ele>
        <time>2021-08-07T14:20:54.816Z</time>
      </trkpt>
      <trkpt lat="44.34677" lon="6.29758">
        <ele>1607.0221587035</ele>
        <time>2021-08-07T14:21:04.213Z</time>
      </trkpt>
      <trkpt lat="44.34675" lon="6.2976">
        <ele>1607.1020450911</ele>
        <time>2021-08-07T14:21:13.611Z</time>
      </trkpt>
      <trkpt lat="44.34668" lon="6.29754">
        <ele>1607.2046871002</ele>
        <time>2021-08-07T14:21:23.012Z</time>
      </trkpt>
      <trkpt lat="44.34663" lon="6.29731">
        <ele>1607.252913003</ele>
        <time>2021-08-07T14:21:32.418Z</time>
      </trkpt>
      <trkpt lat="44.34662" lon="6.29669">
        <ele>1607.2618444024</ele>
        <time>2021-08-07T14:21:41.839Z</time>
      </trkpt>
      <trkpt lat="44.3466" lon="6.29662">
        <ele>1607.3157134838</ele>
        <time>2021-08-07T14:21:51.262Z</time>
      </trkpt>
      <trkpt lat="44.34655" lon="6.2966">
        <ele>1607.4107541778</ele>
        <time>2021-08-07T14:22:00.687Z</time>
      </trkpt>
      <trkpt lat="44.3465" lon="6.29684">
        <ele>1607.4038548626</ele>
        <time>2021-08-07T14:22:10.118Z</time>
      </trkpt>
      <trkpt lat="44.34643" lon="6.29712">
        <ele>1607.4076670971</ele>
        <time>2021-08-07T14:22:19.556Z</time>
      </trkpt>
      <trkpt lat="44.3464" lon="6.29737">
        <ele>1607.3921591885</ele>
        <time>2021-08-07T14:22:29.000Z</time>
      </trkpt>
      <trkpt lat="44.34647" lon="6.29767">
        <ele>1607.3104254379</ele>
        <time>2021-08-07T14:22:38.451Z</time>
      </trkpt>
      <trkpt lat="44.3464" lon="6.29794">
        <ele>1607.2736748059</ele>
        <time>2021-08-07T14:22:47.909Z</time>
      </trkpt>
      <trkpt lat="44.34629" lon="6.29816">
        <ele>1607.1936858687</ele>
        <time>2021-08-07T14:22:57.373Z</time>
      </trkpt>
      <trkpt lat="44.34632" lon="6.29881">
        <ele>1606.9258490875</ele>
        <time>2021-08-07T14:23:06.853Z</time>
      </trkpt>
      <trkpt lat="44.34629" lon="6.29915">
        <ele>1606.8657905156</ele>
        <time>2021-08-07T14:23:16.341Z</time>
      </trkpt>
      <trkpt lat="44.34632" lon="6.29932">
        <ele>1606.6191934138</ele>
        <time>2021-08-07T14:23:25.834Z</time>
      </trkpt>
      <trkpt lat="44.34637" lon="6.29948">
        <ele>1606.2916151745</ele>
        <time>2021-08-07T14:23:35.331Z</time>
      </trkpt>
      <trkpt lat="44.34649" lon="6.2997">
        <ele>1605.8586169172</ele>
        <time>2021-08-07T14:23:44.834Z</time>
      </trkpt>
      <trkpt lat="44.34683" lon="6.30008">
        <ele>1605.2281014064</ele>
        <time>2021-08-07T14:23:54.352Z</time>
      </trkpt>
      <trkpt lat="44.34686" lon="6.3001">
        <ele>1604.7804292577</ele>
        <time>2021-08-07T14:24:03.871Z</time>
      </trkpt>
      <trkpt lat="44.34704" lon="6.30015">
        <ele>1604.1542837923</ele>
        <time>2021-08-07T14:24:13.396Z</time>
      </trkpt>
      <trkpt lat="44.34708" lon="6.30018">
        <ele>1603.679890768</ele>
        <time>2021-08-07T14:24:22.923Z</time>
      </trkpt>
      <trkpt lat="44.34724" lon="6.30038">
        <ele>1603.2284748935</ele>
        <time>2021-08-07T14:24:32.457Z</time>
      </trkpt>
      <trkpt lat="44.34742" lon="6.3005">
        <ele>1602.68874328</ele>
        <time>2021-08-07T14:24:41.997Z</time>
      </trkpt>
      <trkpt lat="44.34762" lon="6.30073">
        <ele>1602.1959283297</ele>
        <time>2021-08-07T14:24:51.546Z</time>
      </trkpt>
      <trkpt lat="44.34769" lon="6.30077">
        <ele>1601.6683432275</ele>
        <time>2021-08-07T14:25:01.097Z</time>
      </trkpt>
      <trkpt lat="44.34776" lon="6.30075">
        <ele>1601.0965010965</ele>
        <time>2021-08-07T14:25:10.651Z</time>
      </trkpt>
      <trkpt lat="44.34793" lon="6.30092">
        <ele>1600.5237051545</ele>
        <time>2021-08-07T14:25:20.212Z</time>
      </trkpt>
      <trkpt lat="44.34801" lon="6.30096">
        <ele>1599.9867890147</ele>
        <time>2021-08-07T14:25:29.776Z</time>
      </trkpt>
      <trkpt lat="44.34806" lon="6.30095">
        <ele>1599.4835627739</ele>
        <time>2021-08-07T14:25:39.341Z</time>
      </trkpt>
      <trkpt lat="44.34806" lon="6.30087">
        <ele>1598.9947998039</ele>
        <time>2021-08-07T14:25:48.908Z</time>
      </trkpt>
      <trkpt lat="44.34804" lon="6.30083">
        <ele>1598.541476601</ele>
        <time>2021-08-07T14:25:58.476Z</time>
      </trkpt>
      <trkpt lat="44.34808" lon="6.3008">
        <ele>1598.0522542825</ele>
        <time>2021-08-07T14:26:08.046Z</time>
      </trkpt>
      <trkpt lat="44.34812" lon="6.30082">
        <ele>1597.5991334544</ele>
        <time>2021-08-07T14:26:17.617Z</time>
      </trkpt>
      <trkpt lat="44.34832" lon="6.30107">
        <ele>1597.1096254786</ele>
        <time>2021-08-07T14:26:27.197Z</time>
      </trkpt>
      <trkpt lat="44.34838" lon="6.30118">
        <ele>1596.642672353</ele>
        <time>2021-08-07T14:26:36.781Z</time>
      </trkpt>
      <trkpt lat="44.3485" lon="6.30168">
        <ele>1596.1396853065</ele>
        <time>2021-08-07T14:26:46.377Z</time>
      </trkpt>
      <trkpt lat="44.34845" lon="6.3011">
        <ele>1595.7223043729</ele>
        <time>2021-08-07T14:26:55.987Z</time>
      </trkpt>
      <trkpt lat="44.34839" lon="6.3009">
        <ele>1595.2367422238</ele>
        <time>2021-08-07T14:27:05.602Z</time>
      </trkpt>
      <trkpt lat="44.3483" lon="6.30076">
        <ele>1594.7385569582</ele>
        <time>2021-08-07T14:27:15.222Z</time>
      </trkpt>
      <trkpt lat="44.34816" lon="6.3006">
        <ele>1594.2122657619</ele>
        <time>2021-08-07T14:27:24.848Z</time>
      </trkpt>
      <trkpt lat="44.34811" lon="6.30057">
        <ele>1593.6799695141</ele>
        <time>2021-08-07T14:27:34.476Z</time>
      </trkpt>
      <trkpt lat="44.34813" lon="6.3006">
        <ele>1593.0973741225</ele>
        <time>2021-08-07T14:27:44.105Z</time>
      </trkpt>
      <trkpt lat="44.34828" lon="6.30073">
        <ele>1592.422865814</ele>
        <time>2021-08-07T14:27:53.739Z</time>
      </trkpt>
      <trkpt lat="44.34838" lon="6.30092">
        <ele>1591.7397352491</ele>
        <time>2021-08-07T14:28:03.379Z</time>
      </trkpt>
      <trkpt lat="44.34845" lon="6.30119">
        <ele>1590.9655483318</ele>
        <time>2021-08-07T14:28:13.026Z</time>
      </trkpt>
      <trkpt lat="44.34845" lon="6.30127">
        <ele>1590.0929439228</ele>
        <time>2021-08-07T14:28:22.675Z</time>
      </trkpt>
      <trkpt lat="44.34841" lon="6.30143">
        <ele>1589.1560356225</ele>
        <time>2021-08-07T14:28:32.328Z</time>
      </trkpt>
      <trkpt lat="44.34838" lon="6.30147">
        <ele>1588.1179024572</ele>
        <time>2021-08-07T14:28:41.982Z</time>
      </trkpt>
      <trkpt lat="44.34823" lon="6.30154">
        <ele>1587.0632296381</ele>
        <time>2021-08-07T14:28:51.642Z</time>
      </trkpt>
      <trkpt lat="44.34811" lon="6.30168">
        <ele>1585.8689398681</ele>
        <time>2021-08-07T14:29:01.307Z</time>
      </trkpt>
      <trkpt lat="44.3481" lon="6.30174">
        <ele>1584.5030639529</ele>
        <time>2021-08-07T14:29:10.973Z</time>
      </trkpt>
      <trkpt lat="44.3483" lon="6.30202">
        <ele>1582.8811249279</ele>
        <time>2021-08-07T14:29:20.649Z</time>
      </trkpt>
      <trkpt lat="44.34842" lon="6.30209">
        <ele>1581.2430407331</ele>
        <time>2021-08-07T14:29:30.329Z</time>
      </trkpt>
      <trkpt lat="44.34842" lon="6.30223">
        <ele>1579.5393076785</ele>
        <time>2021-08-07T14:29:40.013Z</time>
      </trkpt>
      <trkpt lat="44.34854" lon="6.3026">
        <ele>1577.6015347103</ele>
        <time>2021-08-07T14:29:49.706Z</time>
      </trkpt>
      <trkpt lat="44.34868" lon="6.30315">
        <ele>1575.3354459973</ele>
        <time>2021-08-07T14:29:59.413Z</time>
      </trkpt>
      <trkpt lat="44.34873" lon="6.30327">
        <ele>1573.2602124159</ele>
        <time>2021-08-07T14:30:09.124Z</time>
      </trkpt>
      <trkpt lat="44.34901" lon="6.3042">
        <ele>1570.5160400152</ele>
        <time>2021-08-07T14:30:18.859Z</time>
      </trkpt>
      <trkpt lat="44.34908" lon="6.30443">
        <ele>1568.255327282</ele>
        <time>2021-08-07T14:30:28.600Z</time>
      </trkpt>
      <trkpt lat="44.34914" lon="6.30453">
        <ele>1566.0727403419</ele>
        <time>2021-08-07T14:30:38.344Z</time>
      </trkpt>
      <trkpt lat="44.34923" lon="6.30466">
        <ele>1563.8410481524</ele>
        <time>2021-08-07T14:30:48.092Z</time>
      </trkpt>
      <trkpt lat="44.34925" lon="6.30476">
        <ele>1561.6362751637</ele>
        <time>2021-08-07T14:30:57.843Z</time>
      </trkpt>
      <trkpt lat="44.34937" lon="6.30499">
        <ele>1559.3073237218</ele>
        <time>2021-08-07T14:31:07.601Z</time>
      </trkpt>
      <trkpt lat="44.34944" lon="6.30508">
        <ele>1557.1295382214</ele>
        <time>2021-08-07T14:31:17.362Z</time>
      </trkpt>
      <trkpt lat="44.34958" lon="6.30514">
        <ele>1554.9734589107</ele>
        <time>2021-08-07T14:31:27.128Z</time>
      </trkpt>
      <trkpt lat="44.34977" lon="6.30525">
        <ele>1552.8577253377</ele>
        <time>2021-08-07T14:31:36.900Z</time>
      </trkpt>
      <trkpt lat="44.34991" lon="6.30538">
        <ele>1550.8280557733</ele>
        <time>2021-08-07T14:31:46.678Z</time>
      </trkpt>
      <trkpt lat="44.35009" lon="6.30563">
        <ele>1548.8600178024</ele>
        <time>2021-08-07T14:31:56.465Z</time>
      </trkpt>
      <trkpt lat="44.35036" lon="6.30581">
        <ele>1547.0310771304</ele>
        <time>2021-08-07T14:32:06.262Z</time>
      </trkpt>
      <trkpt lat="44.35038" lon="6.3059">
        <ele>1545.2017998418</ele>
        <time>2021-08-07T14:32:16.061Z</time>
      </trkpt>
      <trkpt lat="44.35045" lon="6.306">
        <ele>1543.4638164193</ele>
        <time>2021-08-07T14:32:25.863Z</time>
      </trkpt>
      <trkpt lat="44.35046" lon="6.3061">
        <ele>1541.8048532577</ele>
        <time>2021-08-07T14:32:35.668Z</time>
      </trkpt>
      <trkpt lat="44.35044" lon="6.30624">
        <ele>1540.2064054042</ele>
        <time>2021-08-07T14:32:45.476Z</time>
      </trkpt>
      <trkpt lat="44.35036" lon="6.30643">
        <ele>1538.6764163426</ele>
        <time>2021-08-07T14:32:55.290Z</time>
      </trkpt>
      <trkpt lat="44.35035" lon="6.3065">
        <ele>1537.2862192564</ele>
        <time>2021-08-07T14:33:05.105Z</time>
      </trkpt>
      <trkpt lat="44.35037" lon="6.30671">
        <ele>1535.9357845868</ele>
        <time>2021-08-07T14:33:14.925Z</time>
      </trkpt>
      <trkpt lat="44.35048" lon="6.30686">
        <ele>1534.7383411716</ele>
        <time>2021-08-07T14:33:24.750Z</time>
      </trkpt>
      <trkpt lat="44.35113" lon="6.30717">
        <ele>1533.5349249405</ele>
        <time>2021-08-07T14:33:34.598Z</time>
      </trkpt>
      <trkpt lat="44.35128" lon="6.30719">
        <ele>1532.5254679323</ele>
        <time>2021-08-07T14:33:44.451Z</time>
      </trkpt>
      <trkpt lat="44.35161" lon="6.30703">
        <ele>1531.4593865682</ele>
        <time>2021-08-07T14:33:54.316Z</time>
      </trkpt>
      <trkpt lat="44.35168" lon="6.30703">
        <ele>1530.5393135073</ele>
        <time>2021-08-07T14:34:04.183Z</time>
      </trkpt>
      <trkpt lat="44.35197" lon="6.30709">
        <ele>1529.6295805286</ele>
        <time>2021-08-07T14:34:14.060Z</time>
      </trkpt>
      <trkpt lat="44.35221" lon="6.30702">
        <ele>1528.7408800595</ele>
        <time>2021-08-07T14:34:23.946Z</time>
      </trkpt>
      <trkpt lat="44.35234" lon="6.30695">
        <ele>1528.0058494995</ele>
        <time>2021-08-07T14:34:33.836Z</time>
      </trkpt>
      <trkpt lat="44.3525" lon="6.30679">
        <ele>1527.3038639726</ele>
        <time>2021-08-07T14:34:43.733Z</time>
      </trkpt>
      <trkpt lat="44.35298" lon="6.30617">
        <ele>1526.6097577</ele>
        <time>2021-08-07T14:34:53.651Z</time>
      </trkpt>
      <trkpt lat="44.35304" lon="6.30605">
        <ele>1526.0238590258</ele>
        <time>2021-08-07T14:35:03.573Z</time>
      </trkpt>
      <trkpt lat="44.35316" lon="6.30589">
        <ele>1525.4157127765</ele>
        <time>2021-08-07T14:35:13.500Z</time>
      </trkpt>
      <trkpt lat="44.35339" lon="6.30581">
        <ele>1525.01738036</ele>
        <time>2021-08-07T14:35:23.435Z</time>
      </trkpt>
      <trkpt lat="44.35352" lon="6.30584">
        <ele>1524.5111599123</ele>
        <time>2021-08-07T14:35:33.375Z</time>
      </trkpt>
      <trkpt lat="44.35353" lon="6.30582">
        <ele>1524.0145619014</ele>
        <time>2021-08-07T14:35:43.315Z</time>
      </trkpt>
      <trkpt lat="44.35352" lon="6.30569">
        <ele>1523.482367414</ele>
        <time>2021-08-07T14:35:53.258Z</time>
      </trkpt>
      <trkpt lat="44.35355" lon="6.30554">
        <ele>1522.9414448588</ele>
        <time>2021-08-07T14:36:03.205Z</time>
      </trkpt>
      <trkpt lat="44.35358" lon="6.30544">
        <ele>1522.3481043387</ele>
        <time>2021-08-07T14:36:13.155Z</time>
      </trkpt>
      <trkpt lat="44.35364" lon="6.30536">
        <ele>1521.6817620944</ele>
        <time>2021-08-07T14:36:23.107Z</time>
      </trkpt>
      <trkpt lat="44.35375" lon="6.30535">
        <ele>1521.0017939642</ele>
        <time>2021-08-07T14:36:33.063Z</time>
      </trkpt>
      <trkpt lat="44.3538" lon="6.3054">
        <ele>1520.3425022312</ele>
        <time>2021-08-07T14:36:43.021Z</time>
      </trkpt>
      <trkpt lat="44.35383" lon="6.30553">
        <ele>1519.6659792071</ele>
        <time>2021-08-07T14:36:52.982Z</time>
      </trkpt>
      <trkpt lat="44.35386" lon="6.30598">
        <ele>1518.8715024559</ele>
        <time>2021-08-07T14:37:02.954Z</time>
      </trkpt>
      <trkpt lat="44.35385" lon="6.30721">
        <ele>1517.8860323039</ele>
        <time>2021-08-07T14:37:12.956Z</time>
      </trkpt>
      <trkpt lat="44.35379" lon="6.30749">
        <ele>1516.8925015099</ele>
        <time>2021-08-07T14:37:22.965Z</time>
      </trkpt>
      <trkpt lat="44.35396" lon="6.30769">
        <ele>1515.5165609104</ele>
        <time>2021-08-07T14:37:32.981Z</time>
      </trkpt>
      <trkpt lat="44.35402" lon="6.30765">
        <ele>1514.3688529272</ele>
        <time>2021-08-07T14:37:42.999Z</time>
      </trkpt>
      <trkpt lat="44.35404" lon="6.30762">
        <ele>1513.1930522295</ele>
        <time>2021-08-07T14:37:53.018Z</time>
      </trkpt>
      <trkpt lat="44.35413" lon="6.30729">
        <ele>1511.9666315947</ele>
        <time>2021-08-07T14:38:03.046Z</time>
      </trkpt>
      <trkpt lat="44.35419" lon="6.30695">
        <ele>1510.6273372994</ele>
        <time>2021-08-07T14:38:13.082Z</time>
      </trkpt>
      <trkpt lat="44.35422" lon="6.3063">
        <ele>1509.3995668999</ele>
        <time>2021-08-07T14:38:23.134Z</time>
      </trkpt>
      <trkpt lat="44.35426" lon="6.30612">
        <ele>1507.8321640061</ele>
        <time>2021-08-07T14:38:33.190Z</time>
      </trkpt>
      <trkpt lat="44.35433" lon="6.30592">
        <ele>1506.0901521882</ele>
        <time>2021-08-07T14:38:43.251Z</time>
      </trkpt>
      <trkpt lat="44.35437" lon="6.3057">
        <ele>1504.3102667862</ele>
        <time>2021-08-07T14:38:53.318Z</time>
      </trkpt>
      <trkpt lat="44.35443" lon="6.30556">
        <ele>1502.3556992547</ele>
        <time>2021-08-07T14:39:03.389Z</time>
      </trkpt>
      <trkpt lat="44.35453" lon="6.30542">
        <ele>1500.0241464289</ele>
        <time>2021-08-07T14:39:13.465Z</time>
      </trkpt>
      <trkpt lat="44.35461" lon="6.30527">
        <ele>1497.8414006284</ele>
        <time>2021-08-07T14:39:23.545Z</time>
      </trkpt>
      <trkpt lat="44.35463" lon="6.30502">
        <ele>1495.7339525324</ele>
        <time>2021-08-07T14:39:33.631Z</time>
      </trkpt>
      <trkpt lat="44.35465" lon="6.30495">
        <ele>1493.5557149285</ele>
        <time>2021-08-07T14:39:43.719Z</time>
      </trkpt>
      <trkpt lat="44.35468" lon="6.30489">
        <ele>1491.2449135643</ele>
        <time>2021-08-07T14:39:53.808Z</time>
      </trkpt>
      <trkpt lat="44.3547" lon="6.30489">
        <ele>1488.9096315029</ele>
        <time>2021-08-07T14:40:03.898Z</time>
      </trkpt>
      <trkpt lat="44.35474" lon="6.30493">
        <ele>1486.5200430922</ele>
        <time>2021-08-07T14:40:13.990Z</time>
      </trkpt>
      <trkpt lat="44.35476" lon="6.30492">
        <ele>1484.0984286907</ele>
        <time>2021-08-07T14:40:24.083Z</time>
      </trkpt>
      <trkpt lat="44.35478" lon="6.30477">
        <ele>1481.5290386468</ele>
        <time>2021-08-07T14:40:34.179Z</time>
      </trkpt>
      <trkpt lat="44.35488" lon="6.30478">
        <ele>1478.7281519976</ele>
        <time>2021-08-07T14:40:44.279Z</time>
      </trkpt>
      <trkpt lat="44.35492" lon="6.30487">
        <ele>1476.2169216757</ele>
        <time>2021-08-07T14:40:54.381Z</time>
      </trkpt>
      <trkpt lat="44.35494" lon="6.30489">
        <ele>1473.7206657196</ele>
        <time>2021-08-07T14:41:04.484Z</time>
      </trkpt>
      <trkpt lat="44.35497" lon="6.30475">
        <ele>1471.0956451458</ele>
        <time>2021-08-07T14:41:14.590Z</time>
      </trkpt>
      <trkpt lat="44.35498" lon="6.30474">
        <ele>1468.6070021367</ele>
        <time>2021-08-07T14:41:24.697Z</time>
      </trkpt>
      <trkpt lat="44.35502" lon="6.30481">
        <ele>1466.0809863939</ele>
        <time>2021-08-07T14:41:34.806Z</time>
      </trkpt>
      <trkpt lat="44.35504" lon="6.30495">
        <ele>1463.6359552468</ele>
        <time>2021-08-07T14:41:44.918Z</time>
      </trkpt>
      <trkpt lat="44.35506" lon="6.30495">
        <ele>1461.0840664406</ele>
        <time>2021-08-07T14:41:55.031Z</time>
      </trkpt>
      <trkpt lat="44.35512" lon="6.3049">
        <ele>1458.3766171385</ele>
        <time>2021-08-07T14:42:05.146Z</time>
      </trkpt>
      <trkpt lat="44.35514" lon="6.30484">
        <ele>1455.7477352265</ele>
        <time>2021-08-07T14:42:15.263Z</time>
      </trkpt>
      <trkpt lat="44.35516" lon="6.30461">
        <ele>1453.1459084655</ele>
        <time>2021-08-07T14:42:25.385Z</time>
      </trkpt>
      <trkpt lat="44.35507" lon="6.30433">
        <ele>1450.4869770904</ele>
        <time>2021-08-07T14:42:35.515Z</time>
      </trkpt>
      <trkpt lat="44.35497" lon="6.30413">
        <ele>1447.8353586159</ele>
        <time>2021-08-07T14:42:45.650Z</time>
      </trkpt>
      <trkpt lat="44.35493" lon="6.30402">
        <ele>1445.1258747147</ele>
        <time>2021-08-07T14:42:55.788Z</time>
      </trkpt>
      <trkpt lat="44.3549" lon="6.30392">
        <ele>1442.3615180586</ele>
        <time>2021-08-07T14:43:05.929Z</time>
      </trkpt>
      <trkpt lat="44.35488" lon="6.30381">
        <ele>1439.4903235419</ele>
        <time>2021-08-07T14:43:16.073Z</time>
      </trkpt>
      <trkpt lat="44.3549" lon="6.3038">
        <ele>1436.6605170868</ele>
        <time>2021-08-07T14:43:26.217Z</time>
      </trkpt>
      <trkpt lat="44.35504" lon="6.30397">
        <ele>1433.7530191367</ele>
        <time>2021-08-07T14:43:36.367Z</time>
      </trkpt>
      <trkpt lat="44.35519" lon="6.30399">
        <ele>1430.6015926696</ele>
        <time>2021-08-07T14:43:46.522Z</time>
      </trkpt>
      <trkpt lat="44.35546" lon="6.30413">
        <ele>1427.5209050099</ele>
        <time>2021-08-07T14:43:56.687Z</time>
      </trkpt>
      <trkpt lat="44.3555" lon="6.30413">
        <ele>1424.4998655346</ele>
        <time>2021-08-07T14:44:06.853Z</time>
      </trkpt>
      <trkpt lat="44.35563" lon="6.30403">
        <ele>1421.0692357916</ele>
        <time>2021-08-07T14:44:17.024Z</time>
      </trkpt>
      <trkpt lat="44.35576" lon="6.30395">
        <ele>1417.6463950235</ele>
        <time>2021-08-07T14:44:27.200Z</time>
      </trkpt>
      <trkpt lat="44.35603" lon="6.30398">
        <ele>1413.9500699197</ele>
        <time>2021-08-07T14:44:37.385Z</time>
      </trkpt>
      <trkpt lat="44.3561" lon="6.30402">
        <ele>1410.6881143633</ele>
        <time>2021-08-07T14:44:47.572Z</time>
      </trkpt>
      <trkpt lat="44.35611" lon="6.30398">
        <ele>1407.4549164137</ele>
        <time>2021-08-07T14:44:57.760Z</time>
      </trkpt>
      <trkpt lat="44.35611" lon="6.30391">
        <ele>1404.2038753137</ele>
        <time>2021-08-07T14:45:07.950Z</time>
      </trkpt>
      <trkpt lat="44.35601" lon="6.30356">
        <ele>1400.893286543</ele>
        <time>2021-08-07T14:45:18.149Z</time>
      </trkpt>
      <trkpt lat="44.35597" lon="6.30331">
        <ele>1397.3591547911</ele>
        <time>2021-08-07T14:45:28.354Z</time>
      </trkpt>
      <trkpt lat="44.35611" lon="6.30331">
        <ele>1393.8724206974</ele>
        <time>2021-08-07T14:45:38.564Z</time>
      </trkpt>
      <trkpt lat="44.35619" lon="6.30334">
        <ele>1390.3610371489</ele>
        <time>2021-08-07T14:45:48.777Z</time>
      </trkpt>
      <trkpt lat="44.35632" lon="6.30343">
        <ele>1386.7595158627</ele>
        <time>2021-08-07T14:45:58.994Z</time>
      </trkpt>
      <trkpt lat="44.35648" lon="6.30359">
        <ele>1383.0585740614</ele>
        <time>2021-08-07T14:46:09.218Z</time>
      </trkpt>
      <trkpt lat="44.35656" lon="6.30369">
        <ele>1379.422012278</ele>
        <time>2021-08-07T14:46:19.446Z</time>
      </trkpt>
      <trkpt lat="44.35662" lon="6.30381">
        <ele>1375.7862675739</ele>
        <time>2021-08-07T14:46:29.677Z</time>
      </trkpt>
      <trkpt lat="44.35677" lon="6.30421">
        <ele>1371.9457858664</ele>
        <time>2021-08-07T14:46:39.919Z</time>
      </trkpt>
      <trkpt lat="44.35685" lon="6.30434">
        <ele>1368.1392578116</ele>
        <time>2021-08-07T14:46:50.165Z</time>
      </trkpt>
      <trkpt lat="44.35694" lon="6.30478">
        <ele>1364.3067979184</ele>
        <time>2021-08-07T14:47:00.422Z</time>
      </trkpt>
      <trkpt lat="44.35714" lon="6.30514">
        <ele>1360.3129098398</ele>
        <time>2021-08-07T14:47:10.690Z</time>
      </trkpt>
      <trkpt lat="44.35736" lon="6.30573">
        <ele>1355.8802600408</ele>
        <time>2021-08-07T14:47:20.974Z</time>
      </trkpt>
      <trkpt lat="44.35741" lon="6.3058">
        <ele>1351.8982730981</ele>
        <time>2021-08-07T14:47:31.260Z</time>
      </trkpt>
      <trkpt lat="44.3574" lon="6.30586">
        <ele>1348.0232728133</ele>
        <time>2021-08-07T14:47:41.548Z</time>
      </trkpt>
      <trkpt lat="44.35742" lon="6.30586">
        <ele>1344.1229400875</ele>
        <time>2021-08-07T14:47:51.836Z</time>
      </trkpt>
      <trkpt lat="44.35742" lon="6.30593">
        <ele>1340.1781005148</ele>
        <time>2021-08-07T14:48:02.126Z</time>
      </trkpt>
      <trkpt lat="44.35734" lon="6.30642">
        <ele>1335.9806763957</ele>
        <time>2021-08-07T14:48:12.428Z</time>
      </trkpt>
      <trkpt lat="44.35738" lon="6.30667">
        <ele>1331.6930384487</ele>
        <time>2021-08-07T14:48:22.736Z</time>
      </trkpt>
      <trkpt lat="44.35734" lon="6.30687">
        <ele>1327.7844399649</ele>
        <time>2021-08-07T14:48:33.049Z</time>
      </trkpt>
      <trkpt lat="44.35736" lon="6.3072">
        <ele>1323.4907499495</ele>
        <time>2021-08-07T14:48:43.370Z</time>
      </trkpt>
      <trkpt lat="44.35733" lon="6.30752">
        <ele>1319.5960410865</ele>
        <time>2021-08-07T14:48:53.699Z</time>
      </trkpt>
      <trkpt lat="44.35736" lon="6.30768">
        <ele>1315.7696781898</ele>
        <time>2021-08-07T14:49:04.032Z</time>
      </trkpt>
      <trkpt lat="44.35744" lon="6.30783">
        <ele>1311.8608347275</ele>
        <time>2021-08-07T14:49:14.369Z</time>
      </trkpt>
      <trkpt lat="44.35748" lon="6.30802">
        <ele>1308.1158209444</ele>
        <time>2021-08-07T14:49:24.711Z</time>
      </trkpt>
      <trkpt lat="44.35751" lon="6.3081">
        <ele>1304.4620143332</ele>
        <time>2021-08-07T14:49:35.055Z</time>
      </trkpt>
      <trkpt lat="44.35755" lon="6.30814">
        <ele>1300.8874013834</ele>
        <time>2021-08-07T14:49:45.401Z</time>
      </trkpt>
      <trkpt lat="44.35763" lon="6.30816">
        <ele>1297.3243413809</ele>
        <time>2021-08-07T14:49:55.749Z</time>
      </trkpt>
      <trkpt lat="44.35767" lon="6.30816">
        <ele>1293.9209596361</ele>
        <time>2021-08-07T14:50:06.099Z</time>
      </trkpt>
      <trkpt lat="44.35769" lon="6.30823">
        <ele>1290.6147914304</ele>
        <time>2021-08-07T14:50:16.451Z</time>
      </trkpt>
      <trkpt lat="44.35772" lon="6.30824">
        <ele>1287.4305319824</ele>
        <time>2021-08-07T14:50:26.803Z</time>
      </trkpt>
      <trkpt lat="44.35781" lon="6.3082">
        <ele>1284.1841745517</ele>
        <time>2021-08-07T14:50:37.159Z</time>
      </trkpt>
      <trkpt lat="44.35789" lon="6.30813">
        <ele>1281.1175172912</ele>
        <time>2021-08-07T14:50:47.518Z</time>
      </trkpt>
      <trkpt lat="44.35798" lon="6.30808">
        <ele>1278.1508070563</ele>
        <time>2021-08-07T14:50:57.880Z</time>
      </trkpt>
      <trkpt lat="44.35807" lon="6.30807">
        <ele>1275.2860254971</ele>
        <time>2021-08-07T14:51:08.245Z</time>
      </trkpt>
      <trkpt lat="44.35812" lon="6.3081">
        <ele>1272.5732542862</ele>
        <time>2021-08-07T14:51:18.612Z</time>
      </trkpt>
      <trkpt lat="44.35816" lon="6.30814">
        <ele>1269.978307079</ele>
        <time>2021-08-07T14:51:28.981Z</time>
      </trkpt>
      <trkpt lat="44.35819" lon="6.30825">
        <ele>1267.4408222781</ele>
        <time>2021-08-07T14:51:39.353Z</time>
      </trkpt>
      <trkpt lat="44.35836" lon="6.30832">
        <ele>1264.9082280771</ele>
        <time>2021-08-07T14:51:49.730Z</time>
      </trkpt>
      <trkpt lat="44.35841" lon="6.30835">
        <ele>1262.6748078529</ele>
        <time>2021-08-07T14:52:00.109Z</time>
      </trkpt>
      <trkpt lat="44.35848" lon="6.30836">
        <ele>1260.5594240712</ele>
        <time>2021-08-07T14:52:10.490Z</time>
      </trkpt>
      <trkpt lat="44.35862" lon="6.30834">
        <ele>1258.4869168006</ele>
        <time>2021-08-07T14:52:20.876Z</time>
      </trkpt>
      <trkpt lat="44.35892" lon="6.30816">
        <ele>1256.3516196331</ele>
        <time>2021-08-07T14:52:31.273Z</time>
      </trkpt>
      <trkpt lat="44.35897" lon="6.30814">
        <ele>1254.6960982751</ele>
        <time>2021-08-07T14:52:41.672Z</time>
      </trkpt>
      <trkpt lat="44.35914" lon="6.30797">
        <ele>1253.022526589</ele>
        <time>2021-08-07T14:52:52.078Z</time>
      </trkpt>
      <trkpt lat="44.35919" lon="6.30789">
        <ele>1251.7020182564</ele>
        <time>2021-08-07T14:53:02.486Z</time>
      </trkpt>
      <trkpt lat="44.35921" lon="6.30794">
        <ele>1250.5255014189</ele>
        <time>2021-08-07T14:53:12.896Z</time>
      </trkpt>
      <trkpt lat="44.3592" lon="6.30798">
        <ele>1249.537046731</ele>
        <time>2021-08-07T14:53:23.306Z</time>
      </trkpt>
      <trkpt lat="44.35916" lon="6.30807">
        <ele>1248.7407358608</ele>
        <time>2021-08-07T14:53:33.719Z</time>
      </trkpt>
      <trkpt lat="44.35914" lon="6.30819">
        <ele>1247.9808425028</ele>
        <time>2021-08-07T14:53:44.135Z</time>
      </trkpt>
      <trkpt lat="44.35903" lon="6.30831">
        <ele>1247.4947963061</ele>
        <time>2021-08-07T14:53:54.556Z</time>
      </trkpt>
      <trkpt lat="44.35899" lon="6.30843">
        <ele>1246.9694993876</ele>
        <time>2021-08-07T14:54:04.980Z</time>
      </trkpt>
      <trkpt lat="44.35893" lon="6.30854">
        <ele>1246.542806539</ele>
        <time>2021-08-07T14:54:15.407Z</time>
      </trkpt>
      <trkpt lat="44.3589" lon="6.30856">
        <ele>1246.1950177635</ele>
        <time>2021-08-07T14:54:25.835Z</time>
      </trkpt>
      <trkpt lat="44.35885" lon="6.30872">
        <ele>1245.8507618479</ele>
        <time>2021-08-07T14:54:36.267Z</time>
      </trkpt>
      <trkpt lat="44.35875" lon="6.30885">
        <ele>1245.6275673822</ele>
        <time>2021-08-07T14:54:46.704Z</time>
      </trkpt>
      <trkpt lat="44.35872" lon="6.30895">
        <ele>1245.3544741978</ele>
        <time>2021-08-07T14:54:57.144Z</time>
      </trkpt>
      <trkpt lat="44.35868" lon="6.30918">
        <ele>1245.0090546274</ele>
        <time>2021-08-07T14:55:07.589Z</time>
      </trkpt>
      <trkpt lat="44.3586" lon="6.30925">
        <ele>1244.9174156321</ele>
        <time>2021-08-07T14:55:18.037Z</time>
      </trkpt>
      <trkpt lat="44.35856" lon="6.30932">
        <ele>1244.8025283104</ele>
        <time>2021-08-07T14:55:28.488Z</time>
      </trkpt>
      <trkpt lat="44.35856" lon="6.30978">
        <ele>1244.3817197003</ele>
        <time>2021-08-07T14:55:38.950Z</time>
      </trkpt>
      <trkpt lat="44.35852" lon="6.31007">
        <ele>1244.3732912638</ele>
        <time>2021-08-07T14:55:49.419Z</time>
      </trkpt>
      <trkpt lat="44.35852" lon="6.3102">
        <ele>1244.3034113045</ele>
        <time>2021-08-07T14:55:59.891Z</time>
      </trkpt>
      <trkpt lat="44.35844" lon="6.31052">
        <ele>1244.3828633472</ele>
        <time>2021-08-07T14:56:10.371Z</time>
      </trkpt>
      <trkpt lat="44.35852" lon="6.31097">
        <ele>1244.0265944834</ele>
        <time>2021-08-07T14:56:20.862Z</time>
      </trkpt>
      <trkpt lat="44.3585" lon="6.31138">
        <ele>1243.9254903785</ele>
        <time>2021-08-07T14:56:31.363Z</time>
      </trkpt>
      <trkpt lat="44.35857" lon="6.31177">
        <ele>1243.6767794415</ele>
        <time>2021-08-07T14:56:41.873Z</time>
      </trkpt>
      <trkpt lat="44.35858" lon="6.31194">
        <ele>1243.5098700365</ele>
        <time>2021-08-07T14:56:52.387Z</time>
      </trkpt>
      <trkpt lat="44.35855" lon="6.31227">
        <ele>1243.4029082359</ele>
        <time>2021-08-07T14:57:02.909Z</time>
      </trkpt>
      <trkpt lat="44.3585" lon="6.31257">
        <ele>1243.1651929674</ele>
        <time>2021-08-07T14:57:13.439Z</time>
      </trkpt>
      <trkpt lat="44.35835" lon="6.31301">
        <ele>1242.7091346946</ele>
        <time>2021-08-07T14:57:23.980Z</time>
      </trkpt>
      <trkpt lat="44.35832" lon="6.31304">
        <ele>1242.1843239145</ele>
        <time>2021-08-07T14:57:34.523Z</time>
      </trkpt>
      <trkpt lat="44.35821" lon="6.31308">
        <ele>1241.5763295065</ele>
        <time>2021-08-07T14:57:45.070Z</time>
      </trkpt>
      <trkpt lat="44.35811" lon="6.31317">
        <ele>1240.8022712427</ele>
        <time>2021-08-07T14:57:55.620Z</time>
      </trkpt>
      <trkpt lat="44.35821" lon="6.3136">
        <ele>1239.7106505207</ele>
        <time>2021-08-07T14:58:06.181Z</time>
      </trkpt>
      <trkpt lat="44.35823" lon="6.31386">
        <ele>1238.609159131</ele>
        <time>2021-08-07T14:58:16.749Z</time>
      </trkpt>
      <trkpt lat="44.35828" lon="6.31409">
        <ele>1237.3948094171</ele>
        <time>2021-08-07T14:58:27.322Z</time>
      </trkpt>
      <trkpt lat="44.35833" lon="6.31427">
        <ele>1235.9461896686</ele>
        <time>2021-08-07T14:58:37.900Z</time>
      </trkpt>
      <trkpt lat="44.35846" lon="6.31451">
        <ele>1234.2157592405</ele>
        <time>2021-08-07T14:58:48.485Z</time>
      </trkpt>
      <trkpt lat="44.35852" lon="6.31471">
        <ele>1232.452542787</ele>
        <time>2021-08-07T14:58:59.075Z</time>
      </trkpt>
      <trkpt lat="44.35856" lon="6.31504">
        <ele>1230.5645927683</ele>
        <time>2021-08-07T14:59:09.673Z</time>
      </trkpt>
      <trkpt lat="44.35863" lon="6.31527">
        <ele>1228.3874404506</ele>
        <time>2021-08-07T14:59:20.277Z</time>
      </trkpt>
      <trkpt lat="44.35865" lon="6.31533">
        <ele>1226.103669169</ele>
        <time>2021-08-07T14:59:30.883Z</time>
      </trkpt>
      <trkpt lat="44.35888" lon="6.31554">
        <ele>1223.414065773</ele>
        <time>2021-08-07T14:59:41.498Z</time>
      </trkpt>
      <trkpt lat="44.35908" lon="6.31597">
        <ele>1220.5924784245</ele>
        <time>2021-08-07T14:59:52.125Z</time>
      </trkpt>
      <trkpt lat="44.35915" lon="6.31609">
        <ele>1217.9411910433</ele>
        <time>2021-08-07T15:00:02.756Z</time>
      </trkpt>
      <trkpt lat="44.35945" lon="6.31639">
        <ele>1214.9237645992</ele>
        <time>2021-08-07T15:00:13.399Z</time>
      </trkpt>
      <trkpt lat="44.35962" lon="6.3165">
        <ele>1212.0946487447</ele>
        <time>2021-08-07T15:00:24.049Z</time>
      </trkpt>
      <trkpt lat="44.35985" lon="6.31644">
        <ele>1209.3089459739</ele>
        <time>2021-08-07T15:00:34.706Z</time>
      </trkpt>
      <trkpt lat="44.36008" lon="6.31633">
        <ele>1206.5959132853</ele>
        <time>2021-08-07T15:00:45.371Z</time>
      </trkpt>
      <trkpt lat="44.36029" lon="6.31618">
        <ele>1203.8821377888</ele>
        <time>2021-08-07T15:00:56.044Z</time>
      </trkpt>
      <trkpt lat="44.36046" lon="6.31608">
        <ele>1201.1503187669</ele>
        <time>2021-08-07T15:01:06.723Z</time>
      </trkpt>
      <trkpt lat="44.36063" lon="6.31589">
        <ele>1198.2720685227</ele>
        <time>2021-08-07T15:01:17.410Z</time>
      </trkpt>
      <trkpt lat="44.36074" lon="6.31582">
        <ele>1195.6081464812</ele>
        <time>2021-08-07T15:01:28.101Z</time>
      </trkpt>
      <trkpt lat="44.36085" lon="6.31582">
        <ele>1192.947110764</ele>
        <time>2021-08-07T15:01:38.795Z</time>
      </trkpt>
      <trkpt lat="44.36104" lon="6.31588">
        <ele>1190.2372807136</ele>
        <time>2021-08-07T15:01:49.496Z</time>
      </trkpt>
      <trkpt lat="44.36116" lon="6.31589">
        <ele>1187.6388187597</ele>
        <time>2021-08-07T15:02:00.201Z</time>
      </trkpt>
      <trkpt lat="44.36123" lon="6.31586">
        <ele>1185.1115665932</ele>
        <time>2021-08-07T15:02:10.908Z</time>
      </trkpt>
      <trkpt lat="44.36161" lon="6.31564">
        <ele>1182.585917707</ele>
        <time>2021-08-07T15:02:21.629Z</time>
      </trkpt>
      <trkpt lat="44.36173" lon="6.31559">
        <ele>1179.9186880385</ele>
        <time>2021-08-07T15:02:32.354Z</time>
      </trkpt>
      <trkpt lat="44.36214" lon="6.31535">
        <ele>1177.1477376114</ele>
        <time>2021-08-07T15:02:43.094Z</time>
      </trkpt>
      <trkpt lat="44.36233" lon="6.31521">
        <ele>1174.5299083643</ele>
        <time>2021-08-07T15:02:53.841Z</time>
      </trkpt>
      <trkpt lat="44.36258" lon="6.31491">
        <ele>1171.8182237029</ele>
        <time>2021-08-07T15:03:04.599Z</time>
      </trkpt>
      <trkpt lat="44.36312" lon="6.31438">
        <ele>1168.8105869001</ele>
        <time>2021-08-07T15:03:15.379Z</time>
      </trkpt>
      <trkpt lat="44.3634" lon="6.31431">
        <ele>1165.9380585325</ele>
        <time>2021-08-07T15:03:26.169Z</time>
      </trkpt>
      <trkpt lat="44.36363" lon="6.31418">
        <ele>1163.2289027047</ele>
        <time>2021-08-07T15:03:36.967Z</time>
      </trkpt>
      <trkpt lat="44.36374" lon="6.31415">
        <ele>1160.4129056065</ele>
        <time>2021-08-07T15:03:47.769Z</time>
      </trkpt>
      <trkpt lat="44.36394" lon="6.31416">
        <ele>1157.3612629909</ele>
        <time>2021-08-07T15:03:58.577Z</time>
      </trkpt>
      <trkpt lat="44.36408" lon="6.31413">
        <ele>1154.1900710437</ele>
        <time>2021-08-07T15:04:09.390Z</time>
      </trkpt>
      <trkpt lat="44.36412" lon="6.31413">
        <ele>1150.9047340261</ele>
        <time>2021-08-07T15:04:20.204Z</time>
      </trkpt>
      <trkpt lat="44.36415" lon="6.31416">
        <ele>1147.4441424279</ele>
        <time>2021-08-07T15:04:31.020Z</time>
      </trkpt>
      <trkpt lat="44.36418" lon="6.31423">
        <ele>1143.7808324593</ele>
        <time>2021-08-07T15:04:41.838Z</time>
      </trkpt>
      <trkpt lat="44.36416" lon="6.31447">
        <ele>1139.8268127929</ele>
        <time>2021-08-07T15:04:52.662Z</time>
      </trkpt>
      <trkpt lat="44.36417" lon="6.31475">
        <ele>1135.7143071588</ele>
        <time>2021-08-07T15:05:03.492Z</time>
      </trkpt>
      <trkpt lat="44.36425" lon="6.31499">
        <ele>1131.5548035549</ele>
        <time>2021-08-07T15:05:14.329Z</time>
      </trkpt>
      <trkpt lat="44.36437" lon="6.31514">
        <ele>1127.6080275237</ele>
        <time>2021-08-07T15:05:25.171Z</time>
      </trkpt>
      <trkpt lat="44.36454" lon="6.31526">
        <ele>1123.7214233662</ele>
        <time>2021-08-07T15:05:36.019Z</time>
      </trkpt>
      <trkpt lat="44.36457" lon="6.31535">
        <ele>1120.0403864753</ele>
        <time>2021-08-07T15:05:46.870Z</time>
      </trkpt>
      <trkpt lat="44.36462" lon="6.31543">
        <ele>1116.3837755224</ele>
        <time>2021-08-07T15:05:57.723Z</time>
      </trkpt>
      <trkpt lat="44.36479" lon="6.31555">
        <ele>1112.5982550689</ele>
        <time>2021-08-07T15:06:08.582Z</time>
      </trkpt>
      <trkpt lat="44.36503" lon="6.31566">
        <ele>1108.8668662531</ele>
        <time>2021-08-07T15:06:19.450Z</time>
      </trkpt>
      <trkpt lat="44.36517" lon="6.31565">
        <ele>1105.5744917592</ele>
        <time>2021-08-07T15:06:30.322Z</time>
      </trkpt>
      <trkpt lat="44.36522" lon="6.31566">
        <ele>1102.3882649596</ele>
        <time>2021-08-07T15:06:41.196Z</time>
      </trkpt>
      <trkpt lat="44.36524" lon="6.31571">
        <ele>1099.2494438882</ele>
        <time>2021-08-07T15:06:52.072Z</time>
      </trkpt>
      <trkpt lat="44.36524" lon="6.31577">
        <ele>1096.2104154139</ele>
        <time>2021-08-07T15:07:02.949Z</time>
      </trkpt>
      <trkpt lat="44.36516" lon="6.31599">
        <ele>1093.152642012</ele>
        <time>2021-08-07T15:07:13.832Z</time>
      </trkpt>
      <trkpt lat="44.36516" lon="6.31607">
        <ele>1090.2697766073</ele>
        <time>2021-08-07T15:07:24.717Z</time>
      </trkpt>
      <trkpt lat="44.36526" lon="6.31635">
        <ele>1087.3526262539</ele>
        <time>2021-08-07T15:07:35.609Z</time>
      </trkpt>
      <trkpt lat="44.36542" lon="6.31655">
        <ele>1084.7159365378</ele>
        <time>2021-08-07T15:07:46.509Z</time>
      </trkpt>
      <trkpt lat="44.36547" lon="6.31656">
        <ele>1082.3807403035</ele>
        <time>2021-08-07T15:07:57.410Z</time>
      </trkpt>
      <trkpt lat="44.36556" lon="6.3165">
        <ele>1080.150620212</ele>
        <time>2021-08-07T15:08:08.314Z</time>
      </trkpt>
      <trkpt lat="44.36585" lon="6.31609">
        <ele>1077.9951937552</ele>
        <time>2021-08-07T15:08:19.232Z</time>
      </trkpt>
      <trkpt lat="44.36591" lon="6.31604">
        <ele>1075.8299332666</ele>
        <time>2021-08-07T15:08:30.153Z</time>
      </trkpt>
      <trkpt lat="44.36607" lon="6.31611">
        <ele>1073.6581377146</ele>
        <time>2021-08-07T15:08:41.079Z</time>
      </trkpt>
      <trkpt lat="44.36623" lon="6.31609">
        <ele>1071.7524718909</ele>
        <time>2021-08-07T15:08:52.011Z</time>
      </trkpt>
      <trkpt lat="44.36652" lon="6.31584">
        <ele>1070.0193979257</ele>
        <time>2021-08-07T15:09:02.954Z</time>
      </trkpt>
      <trkpt lat="44.3668" lon="6.31571">
        <ele>1068.4824616589</ele>
        <time>2021-08-07T15:09:13.907Z</time>
      </trkpt>
      <trkpt lat="44.36694" lon="6.31561">
        <ele>1067.1140715191</ele>
        <time>2021-08-07T15:09:24.865Z</time>
      </trkpt>
      <trkpt lat="44.36709" lon="6.31553">
        <ele>1065.8963600151</ele>
        <time>2021-08-07T15:09:35.828Z</time>
      </trkpt>
      <trkpt lat="44.36725" lon="6.31551">
        <ele>1064.8220616089</ele>
        <time>2021-08-07T15:09:46.797Z</time>
      </trkpt>
      <trkpt lat="44.36741" lon="6.31553">
        <ele>1063.8861821166</ele>
        <time>2021-08-07T15:09:57.771Z</time>
      </trkpt>
      <trkpt lat="44.36755" lon="6.31559">
        <ele>1063.0691142636</ele>
        <time>2021-08-07T15:10:08.750Z</time>
      </trkpt>
      <trkpt lat="44.36771" lon="6.31572">
        <ele>1062.3301893103</ele>
        <time>2021-08-07T15:10:19.735Z</time>
      </trkpt>
      <trkpt lat="44.3678" lon="6.31571">
        <ele>1061.6556868289</ele>
        <time>2021-08-07T15:10:30.723Z</time>
      </trkpt>
      <trkpt lat="44.36792" lon="6.31567">
        <ele>1061.0313180667</ele>
        <time>2021-08-07T15:10:41.715Z</time>
      </trkpt>
      <trkpt lat="44.36801" lon="6.3156">
        <ele>1060.4508929365</ele>
        <time>2021-08-07T15:10:52.711Z</time>
      </trkpt>
      <trkpt lat="44.36822" lon="6.31535">
        <ele>1059.921880019</ele>
        <time>2021-08-07T15:11:03.716Z</time>
      </trkpt>
      <trkpt lat="44.3697" lon="6.31378">
        <ele>1059.4180841403</ele>
        <time>2021-08-07T15:11:14.783Z</time>
      </trkpt>
      <trkpt lat="44.37014" lon="6.31327">
        <ele>1059.0433374598</ele>
        <time>2021-08-07T15:11:25.869Z</time>
      </trkpt>
      <trkpt lat="44.37052" lon="6.31296">
        <ele>1058.7344401364</ele>
        <time>2021-08-07T15:11:36.969Z</time>
      </trkpt>
      <trkpt lat="44.37073" lon="6.31275">
        <ele>1058.808808136</ele>
        <time>2021-08-07T15:11:48.078Z</time>
      </trkpt>
      <trkpt lat="44.37095" lon="6.31246">
        <ele>1059.0868579284</ele>
        <time>2021-08-07T15:11:59.197Z</time>
      </trkpt>
      <trkpt lat="44.37111" lon="6.31216">
        <ele>1059.4954260078</ele>
        <time>2021-08-07T15:12:10.325Z</time>
      </trkpt>
      <trkpt lat="44.37119" lon="6.31207">
        <ele>1059.7241318314</ele>
        <time>2021-08-07T15:12:21.457Z</time>
      </trkpt>
      <trkpt lat="44.37125" lon="6.31203">
        <ele>1059.9568920554</ele>
        <time>2021-08-07T15:12:32.591Z</time>
      </trkpt>
      <trkpt lat="44.37132" lon="6.31195">
        <ele>1060.2156416337</ele>
        <time>2021-08-07T15:12:43.728Z</time>
      </trkpt>
    </trkseg>
  </trk>
</gpx>